[[{"header":{"parameterUnit":"m.s-1","parameterCategory":1,"la1":30.6,"la2":28.766,"lo1":-90.7593,"lo2":-88.6598,"dy":0.0162,"dx":0.0183,"nx":116,"ny":114,"refTime":"2023-11-21T06:00:00:Z","depth":0,"parameterNumber":2,"parameterNumberName":"U-component_of_WINDS"},"data":[0.0,0.0,0.0,0.0,0.0,0.0,0.0,0.0,0.0,0.0,0.0,0.0,0.0,0.0,0.0,0.0,0.0,0.0,0.0,0.0,0.0,0.0,0.0,0.0,0.0,0.0,0.0,0.0,0.0,0.0,0.0,0.0,0.0,0.0,0.0,0.0,0.0,0.0,0.0,0.0,0.0,0.0,0.0,0.0,0.0,0.0,0.0,0.0,0.0,0.0,0.0,0.0,0.0,0.0,0.0,0.0,0.0,0.0,0.0,0.0,0.0,0.0,0.0,0.0,0.0,0.0,0.0,0.0,0.0,0.0,0.0,0.0,0.0,0.0,0.0,0.0,0.0,0.0,0.0,0.0,0.0,0.0,0.0,0.0,0.0,0.0,0.0,0.0,0.0,0.0,0.0,0.0,0.0,0.0,0.0,0.0,0.0,0.0,0.0,0.0,0.0,0.0,0.0,0.0,0.0,0.0,0.0,0.0,0.0,0.0,0.0,0.0,0.0,0.0,0.0,0.0,0.0,0.0,0.0,0.0,0.0,0.0,0.0,0.0,0.0,0.0,0.0,0.0,0.0,0.0,0.0,0.0,0.0,0.0,0.0,0.0,0.0,0.0,0.0,0.0,0.0,0.0,0.0,0.0,0.0,0.0,0.0,0.0,0.0,0.0,0.0,0.0,0.0,0.0,0.0,0.0,0.0,0.0,0.0,0.0,0.0,0.0,0.0,0.0,0.0,0.0,0.0,0.0,0.0,0.0,0.0,0.0,0.0,0.0,0.0,0.0,0.0,0.0,0.0,0.0,0.0,0.0,0.0,0.0,0.0,0.0,0.0,0.0,0.0,0.0,0.0,0.0,0.0,0.0,0.0,0.0,0.0,0.0,0.0,0.0,0.0,0.0,0.0,0.0,0.0,0.0,0.0,0.0,0.0,0.0,0.0,0.0,0.0,0.0,0.0,0.0,0.0,0.0,0.0,0.0,0.0,0.0,0.0,0.0,0.0,0.0,0.0,0.0,0.0,0.0,0.0,0.0,0.0,0.0,0.0,0.0,0.0,0.0,0.0,0.0,0.0,0.0,0.0,0.0,0.0,0.0,0.0,0.0,0.0,0.0,0.0,0.0,0.0,0.0,0.0,0.0,0.0,0.0,0.0,0.0,0.0,0.0,0.0,0.0,0.0,0.0,0.0,0.0,0.0,0.0,0.0,0.0,0.0,0.0,0.0,0.0,0.0,0.0,0.0,0.0,0.0,0.0,0.0,0.0,0.0,0.0,0.0,0.0,0.0,0.0,0.0,0.0,0.0,0.0,0.0,0.0,0.0,0.0,0.0,0.0,0.0,0.0,0.0,0.0,0.0,0.0,0.0,0.0,0.0,0.0,0.0,0.0,0.0,0.0,0.0,0.0,0.0,0.0,0.0,0.0,0.0,0.0,0.0,0.0,0.0,0.0,0.0,0.0,0.0,0.0,0.0,0.0,0.0,0.0,0.0,0.0,0.0,0.0,0.0,0.0,0.0,0.0,0.0,0.0,0.0,0.0,0.0,0.0,0.0,0.0,0.0,0.0,0.0,0.0,0.0,0.0,0.0,0.0,0.0,0.0,0.0,0.0,0.0,0.0,0.0,0.0,0.0,0.0,0.0,0.0,0.0,0.0,0.0,0.0,0.0,0.0,0.0,0.0,0.0,0.0,0.0,0.0,0.0,0.0,0.0,0.0,0.0,0.0,0.0,0.0,0.0,0.0,0.0,0.0,0.0,0.0,0.0,0.0,0.0,0.0,0.0,0.0,0.0,0.0,0.0,0.0,0.0,0.0,0.0,0.0,0.0,0.0,0.0,0.0,0.0,0.0,0.0,0.0,0.0,0.0,0.0,0.0,0.0,0.0,0.0,0.0,0.0,0.0,0.0,0.0,0.0,0.0,0.0,0.0,0.0,0.0,0.0,0.0,0.0,0.0,0.0,0.0,0.0,0.0,0.0,0.0,0.0,0.0,0.0,0.0,0.0,0.0,0.0,0.0,0.0,0.0,0.0,0.0,0.0,0.0,0.0,0.0,0.0,0.0,0.0,0.0,0.0,0.0,0.0,0.0,0.0,0.0,0.0,0.0,0.0,0.0,0.0,0.0,0.0,0.0,0.0,0.0,0.0,0.0,0.0,0.0,0.0,0.0,0.0,0.0,0.0,0.0,0.0,0.0,0.0,0.0,0.0,0.0,0.0,0.0,0.0,0.0,0.0,0.0,0.0,0.0,0.0,0.0,0.0,0.0,0.0,0.0,0.0,0.0,0.0,0.0,0.0,0.0,0.0,0.0,0.0,0.0,0.0,0.0,0.0,0.0,0.0,0.0,0.0,0.0,0.0,0.0,0.0,0.0,0.0,0.0,0.0,0.0,0.0,0.0,0.0,0.0,0.0,0.0,0.0,0.0,0.0,0.0,0.0,0.0,0.0,0.0,0.0,0.0,0.0,0.0,0.0,0.0,0.0,0.0,0.0,0.0,0.0,0.0,0.0,0.0,0.0,0.0,0.0,0.0,0.0,0.0,0.0,0.0,0.0,0.0,0.0,0.0,0.0,0.0,0.0,0.0,0.0,0.0,0.0,0.0,0.0,0.0,0.0,0.0,0.0,0.0,0.0,0.0,0.0,0.0,0.0,0.0,0.0,0.0,0.0,0.0,0.0,0.0,0.0,0.0,0.0,0.0,0.0,0.0,0.0,0.0,0.0,0.0,0.0,0.0,0.0,0.0,0.0,0.0,0.0,0.0,0.0,0.0,0.0,0.0,0.0,0.0,0.0,0.0,0.0,0.0,0.0,0.0,0.0,0.0,0.0,0.0,0.0,0.0,0.0,0.0,0.0,0.0,0.0,0.0,0.0,0.0,0.0,0.0,0.0,0.0,0.0,0.0,0.0,0.0,0.0,0.0,0.0,0.0,0.0,0.0,0.0,0.0,0.0,0.0,0.0,0.0,0.0,0.0,0.0,0.0,0.0,0.0,0.0,0.0,0.0,0.0,0.0,0.0,0.0,0.0,0.0,0.0,0.0,0.0,0.0,0.0,0.0,0.0,0.0,0.0,0.0,0.0,0.0,0.0,0.0,0.0,0.0,0.0,0.0,0.0,0.0,0.0,0.0,0.0,0.0,0.0,0.0,0.0,0.0,0.0,0.0,0.0,0.0,0.0,0.0,0.0,0.0,0.0,0.0,0.0,0.0,0.0,0.0,0.0,0.0,0.0,0.0,0.0,0.0,0.0,0.0,0.0,0.0,0.0,0.0,0.0,0.0,0.0,0.0,0.0,0.0,0.0,0.0,0.0,0.0,0.0,0.0,0.0,0.0,0.0,0.0,0.0,0.0,0.0,0.0,0.0,0.0,0.0,0.0,0.0,0.0,0.0,0.0,0.0,0.0,0.0,0.0,0.0,0.0,0.0,0.0,0.0,0.0,0.0,0.0,0.0,0.0,0.0,0.0,0.0,0.0,0.0,0.0,0.0,0.0,0.0,0.0,0.0,0.0,0.0,0.0,0.0,0.0,0.0,0.0,0.0,0.0,0.0,0.0,0.0,0.0,0.0,0.0,0.0,0.0,0.0,0.0,0.0,0.0,0.0,0.0,0.0,0.0,0.0,0.0,0.0,0.0,0.0,0.0,0.0,0.0,0.0,0.0,0.0,0.0,0.0,0.0,0.0,0.0,0.0,0.0,0.0,0.0,0.0,0.0,0.0,0.0,0.0,0.0,0.0,0.0,0.0,0.0,0.0,0.0,0.0,0.0,0.0,0.0,0.0,0.0,0.0,0.0,0.0,0.0,0.0,0.0,0.0,0.0,0.0,0.0,0.0,0.0,0.0,0.0,0.0,0.0,0.0,0.0,0.0,0.0,0.0,0.0,0.0,0.0,0.0,0.0,0.0,0.0,0.0,0.0,0.0,0.0,0.0,0.0,0.0,0.0,0.0,0.0,0.0,0.0,0.0,0.0,0.0,0.0,0.0,0.0,0.0,0.0,0.0,0.0,0.0,0.0,0.0,0.0,0.0,0.0,0.0,0.0,0.0,0.0,0.0,0.0,0.0,0.0,0.0,0.0,0.0,0.0,0.0,0.0,0.0,0.0,0.0,0.0,0.0,0.0,0.0,0.0,0.0,0.0,0.0,0.0,0.0,0.0,0.0,0.0,0.0,0.0,0.0,0.0,0.0,0.0,0.0,0.0,0.0,0.0,0.0,0.0,0.0,0.0,0.0,0.0,0.0,0.0,0.0,0.0,0.0,0.0,0.0,0.0,0.0,0.0,0.0,0.0,0.0,0.0,0.0,0.0,0.0,0.0,0.0,0.0,0.0,0.0,0.0,0.0,0.0,0.0,0.0,0.0,0.0,0.0,0.0,0.0,0.0,0.0,0.0,0.0,0.0,0.0,0.0,0.0,0.0,0.0,0.0,0.0,0.0,0.0,0.0,0.0,0.0,0.0,0.0,0.0,0.0,0.0,0.0,0.0,0.0,0.0,0.0,0.0,0.0,0.0,0.0,0.0,0.0,0.0,0.0,0.0,0.0,0.0,0.0,0.0,0.0,0.0,0.0,0.0,0.0,0.0,0.0,0.0,0.0,0.0,0.0,0.0,0.0,0.0,0.0,0.0,0.0,0.0,0.0,0.0,0.0,0.0,0.0,0.0,0.0,0.0,0.0,0.0,0.0,0.0,0.0,0.0,0.0,0.0,0.0,0.0,0.0,0.0,0.0,0.0,0.0,0.0,0.0,0.0,0.0,0.0,0.0,0.0,0.0,0.0,0.0,0.0,0.0,0.0,0.0,0.0,0.0,0.0,0.0,0.0,0.0,0.0,0.0,0.0,0.0,0.0,0.0,0.0,0.0,0.0,0.0,0.0,0.0,0.0,0.0,0.0,0.0,0.0,0.0,0.0,0.0,0.0,0.0,0.0,0.0,0.0,0.0,0.0,0.0,0.0,0.0,0.0,0.0,0.0,0.0,0.0,0.0,0.0,0.0,0.0,0.0,0.0,0.0,0.0,0.0,0.0,0.0,0.0,0.0,0.0,0.0,0.0,0.0,0.0,0.0,0.0,0.0,0.0,0.0,0.0,0.0,0.0,0.0,0.0,0.0,0.0,0.0,0.0,0.0,0.0,0.0,0.0,0.0,0.0,0.0,0.0,0.0,0.0,0.0,0.0,0.0,0.0,0.0,0.0,0.0,0.0,0.0,0.0,0.0,0.0,0.0,0.0,0.0,0.0,0.0,0.0,0.0,0.0,0.0,0.0,0.0,0.0,0.0,0.0,0.0,0.0,0.0,0.0,0.0,0.0,0.0,0.0,0.0,0.0,0.0,0.0,0.0,0.0,0.0,0.0,0.0,0.0,0.0,0.0,0.0,0.0,0.0,0.0,0.0,0.0,0.0,0.0,0.0,0.0,0.0,0.0,0.0,0.0,0.0,0.0,0.0,0.0,0.0,0.0,0.0,0.0,0.0,0.0,0.0,0.0,0.0,0.0,0.0,0.0,0.0,0.0,0.0,0.0,0.0,0.0,0.0,0.0,0.0,0.0,0.0,0.0,0.0,0.0,0.0,0.0,0.0,0.0,0.0,0.0,0.0,0.0,0.0,0.0,0.0,0.0,0.0,0.0,0.0,0.0,0.0,0.0,0.0,0.0,0.0,0.0,0.0,0.0,0.0,0.0,0.0,0.0,0.0,0.0,0.0,0.0,0.0,0.0,0.0,0.0,0.0,0.0,0.0,0.0,0.0,0.0,0.0,0.0,0.0,0.0,0.0,0.0,0.0,0.0,0.0,0.0,0.0,0.0,0.0,0.0,0.0,0.0,0.0,0.0,0.0,0.0,0.0,0.0,0.0,0.0,0.0,0.0,0.0,0.0,0.0,0.0,0.0,0.0,0.0,0.0,0.0,0.0,0.0,0.0,0.0,0.0,0.0,0.0,0.0,0.0,0.0,0.0,0.0,0.0,0.0,0.0,0.0,0.0,0.0,0.0,0.0,0.0,0.0,0.0,0.0,0.0,0.0,0.0,0.0,0.0,0.0,0.0,0.0,0.0,0.0,0.0,0.0,0.0,0.0,0.0,0.0,0.0,0.0,0.0,0.0,0.0,0.0,0.0,0.0,3.2063,3.1559,0.0,0.0,0.0,0.0,0.0,0.0,0.0,0.0,0.0,0.0,0.0,0.0,0.0,0.0,0.0,0.0,0.0,0.0,0.0,0.0,0.0,0.0,0.0,0.0,0.0,0.0,0.0,0.0,0.0,0.0,0.0,0.0,0.0,0.0,0.0,0.0,0.0,0.0,0.0,0.0,0.0,0.0,0.0,0.0,0.0,0.0,0.0,0.0,0.0,0.0,0.0,0.0,0.0,0.0,0.0,0.0,0.0,0.0,0.0,0.0,0.0,0.0,0.0,0.0,0.0,0.0,0.0,0.0,0.0,0.0,0.0,0.0,0.0,0.0,0.0,0.0,0.0,0.0,0.0,0.0,0.0,0.0,0.0,0.0,0.0,0.0,0.0,0.0,0.0,0.0,0.0,0.0,0.0,0.0,0.0,0.0,0.0,0.0,0.0,0.0,0.0,0.0,0.0,0.0,0.0,0.0,0.0,0.0,0.0,0.0,0.0,0.0,0.0,0.0,3.2493,3.1988,0.0,0.0,0.0,0.0,0.0,0.0,0.0,0.0,0.0,0.0,0.0,0.0,0.0,0.0,0.0,0.0,0.0,0.0,0.0,0.0,0.0,0.0,0.0,2.7267,2.7562,2.7562,2.7081,2.6752,2.6742,2.6222,2.5911,2.5911,2.6231,2.6626,2.7089,2.7138,2.733,2.7715,0.0,0.0,0.0,0.0,0.0,0.0,0.0,0.0,0.0,0.0,0.0,0.0,0.0,0.0,0.0,0.0,0.0,0.0,0.0,0.0,0.0,0.0,0.0,0.0,0.0,0.0,0.0,0.0,0.0,0.0,0.0,0.0,0.0,0.0,0.0,0.0,0.0,0.0,0.0,0.0,0.0,0.0,0.0,0.0,0.0,0.0,0.0,0.0,0.0,0.0,0.0,0.0,0.0,0.0,0.0,0.0,0.0,0.0,0.0,0.0,0.0,0.0,0.0,0.0,0.0,0.0,0.0,0.0,0.0,0.0,3.395,3.4111,3.4433,3.4433,3.4281,3.3969,3.3331,3.2829,3.2446,3.1919,0.0,0.0,0.0,0.0,0.0,0.0,0.0,0.0,0.0,0.0,0.0,0.0,0.0,0.0,0.0,0.0,0.0,0.0,0.0,0.0,0.0,2.7374,2.744,2.744,2.7449,2.743,2.7306,2.7204,2.7159,2.7159,2.7207,2.7333,2.7529,2.7898,2.8146,2.8217,0.0,0.0,2.8504,2.9035,2.9246,2.9212,2.9672,0.0,0.0,0.0,0.0,0.0,0.0,0.0,0.0,0.0,0.0,0.0,0.0,0.0,0.0,0.0,0.0,0.0,0.0,0.0,0.0,0.0,0.0,0.0,0.0,0.0,0.0,0.0,0.0,0.0,0.0,0.0,0.0,0.0,0.0,0.0,0.0,0.0,0.0,0.0,0.0,0.0,0.0,0.0,2.8705,2.9761,0.0,0.0,0.0,0.0,0.0,0.0,0.0,0.0,0.0,0.0,0.0,0.0,0.0,3.3294,3.3396,3.3396,3.4049,3.5346,3.5346,3.6039,3.7349,3.7349,3.6737,3.5676,3.5335,0.0,3.3264,3.3294,0.0,0.0,0.0,0.0,0.0,0.0,0.0,0.0,0.0,0.0,0.0,0.0,0.0,0.0,0.0,0.0,0.0,0.0,0.0,0.0,0.0,2.6189,2.6431,2.6497,2.68,2.6997,2.7011,2.7246,2.7401,2.7401,2.7401,2.7526,2.7755,2.787,2.7919,2.7919,2.8171,2.8288,2.8316,2.8838,2.8947,2.8674,2.9173,2.9438,2.9506,2.9705,0.0,0.0,0.0,0.0,0.0,0.0,0.0,0.0,0.0,0.0,0.0,0.0,0.0,0.0,0.0,0.0,0.0,0.0,0.0,0.0,0.0,0.0,0.0,0.0,0.0,0.0,0.0,0.0,0.0,0.0,0.0,0.0,0.0,0.0,0.0,0.0,0.0,0.0,0.0,2.8685,2.9159,2.9269,2.9503,2.9822,0.0,0.0,0.0,0.0,0.0,0.0,0.0,0.0,0.0,3.4214,3.4942,3.5504,3.5932,3.5584,3.5761,3.6384,3.6046,3.6228,3.6896,3.6896,3.6571,3.6054,3.593,3.5523,3.4834,3.3888,3.3507,3.3448,0.0,0.0,0.0,0.0,3.2471,3.2865,0.0,0.0,0.0,0.0,0.0,0.0,0.0,0.0,0.0,0.0,0.0,0.0,2.4937,2.5301,2.5591,2.5687,2.6028,2.6243,2.631,2.6788,2.7063,2.7063,2.7222,2.7423,2.7718,2.761,2.7549,2.7549,2.7916,2.811,2.8122,2.865,2.8685,2.8312,2.8865,2.9223,2.9422,2.9561,2.9617,0.0,0.0,0.0,0.0,0.0,0.0,0.0,0.0,0.0,0.0,0.0,0.0,0.0,0.0,0.0,0.0,0.0,0.0,0.0,0.0,0.0,0.0,0.0,0.0,0.0,0.0,0.0,0.0,0.0,0.0,0.0,0.0,0.0,0.0,0.0,0.0,0.0,0.0,2.9148,2.9603,2.9478,2.9893,3.0216,0.0,0.0,0.0,0.0,0.0,0.0,3.2305,3.3514,3.4504,3.5189,3.6137,3.6874,3.7431,3.6998,3.6863,3.7044,3.6595,3.6476,3.6653,3.6653,3.6491,3.6178,3.6327,3.6204,3.5795,3.4381,3.3868,3.3885,3.3065,3.3142,3.36,3.2779,3.2815,3.3249,0.0,0.0,0.0,0.0,0.0,0.0,0.0,0.0,0.0,0.0,0.0,2.5412,2.5536,2.5467,2.5412,2.5412,2.5439,2.5398,2.5273,2.5824,2.6176,2.6176,2.6712,2.7093,2.7231,2.7348,2.7414,2.7414,2.7562,2.765,2.765,2.811,2.834,2.8312,2.8865,2.8826,2.8408,2.8923,2.9147,2.9147,0.0,0.0,0.0,0.0,0.0,0.0,0.0,0.0,0.0,0.0,0.0,0.0,0.0,0.0,0.0,0.0,0.0,0.0,0.0,0.0,0.0,0.0,0.0,0.0,0.0,0.0,0.0,0.0,0.0,0.0,0.0,0.0,0.0,0.0,0.0,0.0,0.0,0.0,0.0,3.0847,3.0624,0.0,0.0,0.0,0.0,3.0438,3.1649,3.26,3.3114,3.4469,3.5477,3.602,3.6092,3.6154,3.6186,3.616,3.65,3.718,3.7152,3.7506,3.8195,3.8195,3.753,3.6397,3.6917,3.6465,3.5308,3.5041,3.4916,3.4813,3.3626,3.3502,3.3829,3.2577,3.246,3.2829,0.0,0.0,0.0,0.0,0.0,0.0,0.0,0.0,2.4162,2.4118,2.4378,2.4464,2.4205,2.4334,2.4378,2.4249,2.4595,2.4809,2.4752,2.5231,2.5522,2.5522,2.6109,2.6657,2.7194,2.7323,2.7401,2.7401,2.7524,2.7824,2.8246,2.8408,2.8485,2.851,2.9006,2.8878,2.8312,2.8492,2.8779,2.9062,2.8721,2.8966,0.0,0.0,0.0,0.0,0.0,0.0,0.0,0.0,0.0,0.0,0.0,0.0,0.0,0.0,0.0,0.0,0.0,0.0,0.0,0.0,0.0,0.0,0.0,0.0,0.0,0.0,0.0,0.0,0.0,0.0,0.0,0.0,0.0,0.0,0.0,0.0,0.0,3.0353,3.0782,0.0,3.1882,3.2489,3.3049,3.3519,3.4315,3.4853,3.5054,3.5998,3.661,3.6801,3.7263,3.7519,3.7519,3.713,3.7074,3.7313,3.6935,3.6898,3.7133,3.7133,3.6903,3.6473,3.6668,3.6483,3.6038,3.5528,3.5469,3.5633,3.4857,3.4883,3.5262,3.4451,3.4502,3.4862,0.0,0.0,0.0,0.0,0.0,0.0,0.0,0.0,2.3437,2.3465,2.37,2.3789,2.3582,2.3669,2.3671,2.3539,2.3839,2.4031,2.4031,2.4538,2.4837,2.4837,2.5646,2.6404,2.7052,2.7233,2.7441,2.7676,2.7803,2.8237,2.8949,2.8949,2.8949,2.8963,2.9258,2.903,2.8402,2.8402,2.8571,2.8795,2.8267,2.846,2.9024,0.0,0.0,0.0,0.0,0.0,0.0,0.0,0.0,0.0,0.0,0.0,0.0,0.0,0.0,0.0,0.0,0.0,0.0,0.0,0.0,0.0,0.0,0.0,0.0,0.0,0.0,0.0,0.0,0.0,0.0,0.0,0.0,0.0,0.0,0.0,3.0628,3.1031,3.1622,3.231,3.3043,3.3842,3.449,3.4989,3.5565,3.5902,3.5902,3.657,3.6966,3.6966,3.7441,3.7693,3.7693,3.7313,3.7104,3.7089,3.6693,3.6507,3.6507,3.6507,3.6507,3.6507,3.6507,3.6507,3.6476,3.603,3.6001,3.6148,3.5351,3.5247,3.5524,3.5162,3.5261,3.5454,0.0,0.0,0.0,0.0,0.0,0.0,0.0,2.3108,2.3228,2.3539,2.348,2.3522,2.3846,2.3597,2.3403,2.3388,2.3225,2.3108,2.3108,2.3721,2.4088,2.4102,2.537,2.6298,2.6795,2.7081,2.7559,2.8222,2.8357,2.8831,2.9636,2.9636,2.9636,2.9636,2.9636,2.9264,2.8622,2.8622,2.851,2.8274,2.7785,2.7612,2.7625,0.0,0.0,0.0,0.0,0.0,0.0,0.0,0.0,0.0,0.0,0.0,0.0,0.0,0.0,0.0,0.0,0.0,0.0,0.0,0.0,0.0,0.0,0.0,0.0,0.0,0.0,0.0,0.0,0.0,0.0,0.0,0.0,0.0,3.0664,3.0944,3.1583,3.2989,3.3201,3.3578,3.4429,3.4536,3.4536,3.4566,3.5152,3.5522,3.5522,3.6153,3.6507,3.6507,3.6507,3.6507,3.6507,3.6507,3.6507,3.6507,3.6507,3.6492,3.6476,3.6476,3.646,3.643,3.643,3.643,3.643,3.643,3.643,3.6338,3.506,3.4566,3.4566,3.4566,3.4551,3.4428,0.0,0.0,0.0,0.0,0.0,0.0,2.3108,2.3225,2.33,2.3243,2.342,2.3495,2.3345,2.345,2.345,2.3198,2.3271,2.3256,2.3108,2.3275,2.3588,2.4088,2.4965,2.5869,2.6775,2.7485,2.8185,2.8846,2.8983,2.946,3.0253,3.0253,3.0253,3.0253,3.0253,2.9922,2.9324,2.9324,2.9014,2.8454,2.7858,2.7795,2.8076,0.0,0.0,0.0,0.0,0.0,0.0,0.0,0.0,0.0,0.0,0.0,0.0,0.0,0.0,0.0,0.0,0.0,0.0,0.0,0.0,0.0,0.0,0.0,0.0,0.0,0.0,0.0,0.0,0.0,0.0,0.0,0.0,2.9202,3.0411,3.1528,3.2195,3.2124,3.32,3.4208,3.4941,3.5139,3.5429,3.5907,3.6122,3.623,3.623,3.6399,3.6507,3.6507,3.6507,3.6507,3.6507,3.6507,3.6507,3.6507,3.6507,3.6226,3.5705,3.5705,3.5416,3.4896,3.4896,3.4896,3.4896,3.4896,3.5206,3.5722,3.5891,3.5953,3.5953,3.5953,3.5645,3.5198,0.0,0.0,0.0,0.0,0.0,0.0,2.3108,2.3198,2.3271,2.3241,2.3318,2.336,2.3241,2.3318,2.3303,2.3123,2.321,2.3225,2.3108,2.3108,2.3509,2.4398,2.4898,2.5775,2.7115,2.7682,2.8446,2.9441,2.9581,3.0061,3.0841,3.0883,3.0927,3.0927,3.0927,3.0567,2.9982,2.9982,2.9623,2.8964,2.8291,2.8017,2.7978,2.7698,2.76,2.76,2.76,2.76,2.76,2.76,0.0,0.0,0.0,0.0,0.0,0.0,0.0,0.0,0.0,0.0,0.0,0.0,0.0,0.0,0.0,0.0,0.0,0.0,0.0,0.0,0.0,0.0,0.0,0.0,2.8498,2.8855,2.9899,3.1082,3.1918,3.2022,3.2967,3.391,3.4645,3.4736,3.5108,3.596,3.5959,3.6101,3.6476,3.6507,3.6507,3.6507,3.6507,3.6352,3.6038,3.6038,3.5879,3.5576,3.5576,3.5351,3.4944,3.4944,3.4697,3.4312,3.4312,3.4312,3.4312,3.4312,3.4547,3.5009,0.0,0.0,0.0,0.0,3.6261,3.5876,0.0,0.0,0.0,0.0,0.0,0.0,2.3108,2.3108,2.3153,2.333,2.321,2.3168,2.3358,2.321,2.3108,2.3108,2.3108,2.3108,2.3108,2.3108,2.3603,2.4758,2.5045,2.5951,2.7571,2.7807,2.8569,2.9899,2.994,3.0348,3.1084,3.1214,3.1272,3.1286,3.1286,3.0987,3.0507,3.0507,3.0193,2.9653,2.9041,2.838,2.7705,2.763,2.76,2.76,2.76,2.76,2.76,2.76,0.0,0.0,0.0,0.0,0.0,0.0,0.0,0.0,0.0,0.0,0.0,0.0,0.0,0.0,0.0,0.0,0.0,0.0,0.0,0.0,0.0,0.0,0.0,0.0,2.8438,2.8695,2.9305,3.0137,3.1094,3.2216,3.2661,3.3151,3.3867,3.3791,3.4114,3.514,3.5044,3.532,3.6179,0.0,0.0,0.0,0.0,3.5943,3.5271,3.5286,3.496,3.4312,3.4312,3.4262,3.4177,3.4177,3.4129,3.4058,3.4058,3.4058,3.4058,3.4058,3.4109,3.4262,3.5075,3.58,3.6383,3.6476,3.6507,3.6415,0.0,0.0,0.0,0.0,0.0,0.0,2.3108,2.3108,2.3108,2.3153,2.3123,2.3108,2.3153,2.3123,2.3108,2.3108,2.3108,2.3108,2.3108,2.3108,2.3419,2.414,2.518,2.6363,2.7653,2.8251,2.8985,2.9899,2.9371,2.9348,2.976,2.9787,2.9871,2.9982,2.9982,3.0177,3.0507,3.0507,3.0432,3.0313,3.0178,2.9445,2.8351,2.7809,2.76,2.76,2.76,2.76,2.76,2.76,2.76,2.769,2.8246,0.0,0.0,0.0,0.0,0.0,0.0,0.0,0.0,0.0,0.0,0.0,0.0,0.0,0.0,0.0,0.0,0.0,0.0,0.0,0.0,2.7673,2.8104,2.8635,2.9241,2.998,3.0711,3.1375,3.258,3.343,3.3578,3.3668,3.3791,3.4013,3.3996,3.4114,3.4466,3.4482,3.4549,3.4714,3.4745,3.4664,3.4514,3.4514,3.4447,3.4312,3.4312,0.0,3.3405,3.3405,3.3118,3.2624,3.2624,3.2624,3.2624,3.2624,3.2921,3.3544,3.4894,3.548,3.5689,3.6289,3.6507,3.6476,0.0,0.0,0.0,0.0,0.0,0.0,2.3108,2.3108,2.3108,2.3108,2.3108,2.3108,2.3108,2.3108,2.3108,2.3108,2.3108,2.3108,0.0,2.3371,2.38,2.4393,2.5269,2.635,2.7623,2.7979,2.8537,2.9302,2.9023,2.8987,2.9154,2.9222,2.9291,2.9361,2.9442,2.9606,2.9836,3.0303,3.0451,3.041,3.0465,2.9939,2.9039,2.8366,2.7899,2.76,2.76,2.7824,2.8096,2.8096,2.8321,2.8663,2.8994,2.9099,2.9092,0.0,0.0,0.0,0.0,0.0,0.0,0.0,0.0,0.0,0.0,0.0,0.0,0.0,0.0,2.749,0.0,0.0,2.749,2.749,2.8007,2.8599,2.9214,2.9843,3.0466,3.1026,3.187,3.2408,3.2408,3.2376,3.2595,3.3161,3.3356,3.3737,3.4401,3.4735,3.4992,3.5184,3.5201,3.4974,3.4498,3.4498,3.4266,3.3793,3.3793,3.3661,3.3399,3.3399,3.3265,3.305,3.277,3.2653,3.264,3.2309,3.2408,3.2797,3.3871,3.4514,3.4944,3.5672,3.5943,3.599,0.0,0.0,0.0,0.0,0.0,0.0,0.0,2.3346,2.3271,2.3271,2.317,2.3108,2.3108,2.3108,2.3108,2.3108,2.3108,2.3108,0.0,2.3562,2.413,2.4763,2.534,2.6246,2.7559,2.7596,2.7898,2.8482,2.8488,2.851,2.8537,2.8633,2.8702,2.8743,2.8907,2.8939,2.8978,2.9864,3.0263,3.0312,3.0558,3.03,2.9713,2.9175,2.8485,2.7809,2.7944,2.8349,2.8786,2.8786,2.9159,2.9623,2.9743,2.9773,2.9762,2.9618,2.9199,0.0,0.0,0.0,0.0,0.0,0.0,0.0,0.0,0.0,2.749,2.749,2.749,2.749,2.749,2.749,2.7529,2.7663,2.8177,2.8782,2.9384,2.9923,3.0458,3.0953,3.1142,3.1235,3.1235,3.1099,3.1424,3.2454,3.278,3.3399,3.4461,3.4988,3.5344,3.554,3.5559,3.5192,3.4437,3.4437,3.4053,3.3302,3.3302,3.338,3.3535,3.3535,3.3632,3.3746,3.333,3.3079,3.293,3.2443,3.2186,3.2132,3.2672,3.3262,3.3888,3.4844,3.519,3.5302,0.0,0.0,0.0,0.0,0.0,0.0,0.0,0.0,2.3904,2.3904,2.3421,2.3108,2.3108,2.3108,2.3108,2.3108,2.3108,0.0,2.3108,2.3158,2.3684,2.4754,2.5425,2.6315,2.7499,2.7566,2.7645,2.7721,2.7261,2.7103,2.7208,2.7221,2.73,2.7401,2.7441,2.7764,2.834,2.8976,2.9651,3.0343,3.0965,3.0887,3.0387,3.0313,2.9535,2.8562,2.9159,2.9413,2.9488,2.9488,2.9533,2.9683,3.0223,3.0402,3.0268,2.97,0.0,2.9136,2.7939,2.7601,2.7614,2.761,2.7556,2.749,0.0,0.0,2.749,2.749,2.749,2.749,2.749,2.749,2.7676,2.822,2.8808,2.9397,2.9936,3.0529,3.0927,3.0992,3.1024,3.1024,3.1024,3.1005,3.1252,3.1859,3.195,3.2316,3.3173,3.3267,3.3417,3.3619,3.3605,3.356,3.3457,3.3457,3.3399,3.3302,3.3302,3.3302,3.3321,3.3321,3.3341,3.336,3.3313,3.2966,3.2459,3.2425,3.2105,3.1669,3.1762,3.1822,3.2119,3.3802,3.443,3.4531,0.0,0.0,0.0,0.0,0.0,0.0,0.0,0.0,0.0,2.4465,2.4252,2.4086,2.4086,2.4086,2.4086,2.4086,2.4086,0.0,2.4086,2.4377,2.4766,2.5231,2.6239,2.7025,2.7555,2.7962,2.8204,2.824,2.8018,2.7923,2.7993,2.7993,2.8019,2.8087,2.8155,2.8301,2.8539,2.9337,2.9892,3.0243,3.1011,3.0977,3.0552,3.0927,3.0452,2.9591,2.9596,2.9571,0.0,0.0,3.012,3.0233,3.0888,3.0804,3.0441,3.0167,2.9534,0.0,2.8238,2.7792,2.759,2.7973,2.7792,2.749,2.749,2.749,2.749,2.749,2.749,2.749,2.749,2.749,2.7702,0.0,2.89,2.9501,3.0022,3.062,3.1005,3.1005,3.1005,3.1005,3.1005,3.1287,3.1568,3.1784,3.2457,3.304,3.3496,3.3866,3.4151,3.4333,3.4353,3.4293,3.4172,3.4172,3.4091,3.3936,3.3936,3.403,3.4172,3.4172,3.406,3.3827,3.3827,3.3475,3.2916,3.2916,3.2783,3.2543,3.2203,3.2145,3.2339,3.3178,3.3478,3.3599,0.0,0.0,0.0,0.0,0.0,0.0,0.0,0.0,0.0,0.0,2.4892,2.4804,2.4804,2.4804,2.4804,2.4804,0.0,0.0,0.0,2.5155,2.5448,2.5586,2.6482,2.7082,2.7287,2.7779,2.8138,2.8396,2.8211,2.8326,2.8695,2.8482,2.8511,2.8695,2.8793,2.8793,2.8767,2.9592,3.0,3.013,3.0924,3.101,3.0724,3.1259,3.0923,3.0205,3.0101,2.9924,0.0,0.0,3.0353,3.0314,3.0807,3.0614,3.0193,3.001,2.9125,2.8222,2.8222,2.7875,2.7623,2.8105,2.7858,2.749,2.749,2.749,2.749,2.749,2.749,2.749,2.749,2.765,2.7954,2.8547,2.9148,2.9706,3.0275,3.0725,3.1005,3.1005,3.1117,3.1222,3.1222,3.1562,3.1941,3.2267,3.3117,3.3734,3.4021,3.4449,3.4756,3.4908,3.4908,3.4839,3.4694,3.4694,3.4577,3.4397,3.4397,3.4501,3.4694,3.4694,3.4539,3.4264,3.4264,3.3913,3.3377,3.3377,3.3291,3.3092,3.2655,3.2566,3.2722,3.2881,3.2826,3.2836,0.0,0.0,0.0,0.0,0.0,0.0,0.0,0.0,0.0,0.0,0.0,0.0,0.0,2.4804,2.4804,0.0,0.0,0.0,0.0,2.4829,2.5055,2.5573,2.5644,2.5925,2.6517,2.6558,2.691,2.7623,2.6981,2.7369,2.8666,2.7982,2.8011,2.8695,2.8695,2.8695,2.8738,2.9348,2.9726,2.9972,3.0793,3.1102,3.1102,3.1248,3.0763,3.0119,3.094,0.0,0.0,3.0298,2.9964,2.9535,2.9551,2.9551,0.0,2.8757,2.8072,2.7523,2.7523,2.7523,2.749,2.7523,2.7523,2.749,2.749,2.749,2.749,2.749,2.749,2.749,2.749,2.7981,2.8573,2.9174,2.9714,3.0288,3.0882,3.0992,3.1005,3.1005,3.1451,3.1784,0.0,3.1797,3.23,3.3456,3.3574,3.3843,3.4366,3.4405,3.4418,3.4418,3.4418,3.4418,3.4418,3.4418,3.4418,3.4397,3.4397,3.4397,3.4418,3.4418,3.4418,3.4392,3.4392,3.4091,3.3581,3.3581,3.3241,3.2705,3.2692,3.2679,3.2719,3.2929,3.2674,3.2314,0.0,0.0,0.0,0.0,0.0,0.0,0.0,0.0,0.0,0.0,0.0,0.0,0.0,0.0,0.0,0.0,0.0,0.0,0.0,2.5929,2.6005,2.6197,2.7051,2.7623,2.7822,2.8744,2.9345,2.9588,2.936,2.95,2.9973,2.9708,2.9723,2.9973,2.9973,2.9973,2.9973,3.0176,3.0352,3.0529,3.0778,3.0984,3.1043,3.0613,3.0207,2.984,0.0,0.0,0.0,2.9498,2.928,2.8919,2.9348,2.919,2.8696,2.8026,2.7689,2.749,2.749,2.749,2.749,2.749,2.749,2.749,2.749,2.749,2.749,2.749,2.749,2.749,2.749,2.7994,2.8599,2.9201,2.974,3.0315,3.0927,3.1005,3.1005,3.1005,3.1464,0.0,0.0,0.0,0.0,3.3561,3.3927,3.4201,3.4384,3.4397,3.4397,3.4397,3.4397,3.4397,3.4397,3.4397,3.4397,3.4397,3.4397,3.4397,3.4397,3.4397,3.4397,3.4397,3.4397,3.4293,3.4123,3.4123,3.4005,3.3783,3.343,3.3387,3.3455,3.3126,3.2977,3.2974,0.0,0.0,0.0,0.0,0.0,0.0,0.0,0.0,0.0,0.0,0.0,0.0,0.0,0.0,0.0,0.0,0.0,0.0,0.0,0.0,2.6499,2.6499,2.7334,2.7802,2.7802,2.8666,2.9251,2.9485,2.9485,2.9748,3.0236,3.0236,3.0372,3.0598,3.0598,3.0477,3.0236,3.0236,3.0145,2.9979,3.0054,3.0129,3.013,2.9718,2.947,0.0,0.0,0.0,2.8254,2.8691,2.853,2.8222,2.8648,2.85,2.8072,2.7623,2.749,2.749,2.749,2.749,2.749,2.749,2.749,2.749,2.749,2.749,2.749,2.749,2.7676,2.782,2.782,2.8477,2.9131,2.9523,3.0072,3.055,3.0953,3.1005,3.1065,3.1261,3.1777,3.2352,0.0,0.0,0.0,3.3875,3.4201,3.4397,3.4397,3.4397,3.4397,3.4397,3.4397,3.4397,3.4397,3.4397,3.4397,3.4397,3.4397,3.4397,3.4397,3.4397,3.4397,3.4397,3.4397,3.4397,3.4397,3.4397,3.4397,3.4358,3.4018,3.3957,3.4027,3.3632,3.3581,3.3668,0.0,0.0,0.0,0.0,0.0,0.0,0.0,0.0,0.0,0.0,0.0,0.0,0.0,0.0,0.0,0.0,0.0,0.0,0.0,0.0,0.0,2.6499,2.6521,2.6538,2.6538,2.6572,2.6922,2.7617,2.7617,2.8309,2.9654,2.9654,2.9962,3.0553,3.0553,3.0175,2.9531,2.9531,2.9141,2.8508,2.8744,2.8728,2.8572,2.8725,0.0,0.0,0.0,0.0,0.0,2.7957,2.7772,2.749,2.749,2.749,2.749,2.749,2.749,2.749,2.749,2.749,2.749,2.749,2.7516,2.7542,2.7542,2.7572,2.7581,2.7581,2.8046,2.8442,0.0,0.0,3.01,3.01,3.062,3.1005,3.1005,3.1005,3.1196,0.0,0.0,0.0,0.0,0.0,0.0,3.4397,0.0,3.4397,3.4397,3.4397,3.4397,3.4397,3.4397,3.4397,3.4397,3.4397,3.4397,3.4397,3.4397,3.4397,3.4397,3.4397,3.4397,3.4397,3.4397,3.4397,3.4397,3.4397,3.4397,3.4397,3.4397,3.4397,3.4397,3.4397,3.4397,3.4316,0.0,0.0,0.0,0.0,0.0,0.0,0.0,0.0,0.0,0.0,0.0,0.0,0.0,0.0,0.0,0.0,0.0,0.0,0.0,0.0,0.0,0.0,0.0,0.0,0.0,0.0,0.0,0.0,0.0,2.95,3.0357,3.0357,3.0175,2.9839,2.9839,2.9453,2.8778,2.8778,2.8668,2.8556,0.0,2.9375,2.928,0.0,0.0,0.0,0.0,0.0,0.0,2.7436,2.749,2.749,2.749,2.749,2.749,2.749,2.749,2.749,2.749,2.749,2.749,2.749,2.7833,2.8164,2.8164,2.8516,2.883,2.883,2.8965,2.907,0.0,0.0,0.0,3.01,3.062,0.0,3.1005,3.1005,0.0,3.1732,0.0,3.2954,3.3535,3.4084,0.0,0.0,3.4397,3.4397,3.4397,3.4397,3.4397,3.4397,3.4397,3.4397,3.4397,3.4397,3.4397,3.4397,3.4397,3.4397,3.4397,3.4397,3.4397,3.4397,3.4397,3.4397,3.4397,3.4397,3.4397,3.4397,3.4397,3.4397,3.4397,3.4397,3.4397,3.4483,0.0,0.0,0.0,0.0,0.0,0.0,0.0,0.0,0.0,0.0,0.0,0.0,0.0,0.0,0.0,0.0,0.0,0.0,0.0,0.0,0.0,0.0,0.0,0.0,0.0,0.0,0.0,0.0,0.0,0.0,0.0,2.987,2.9947,2.9607,2.9901,2.9655,2.8969,2.8969,0.0,0.0,0.0,0.0,0.0,0.0,0.0,0.0,0.0,0.0,0.0,0.0,0.0,2.754,2.7842,2.7739,2.7542,2.782,2.7902,2.7937,2.8229,2.8294,2.8294,2.8294,2.8543,2.8795,2.8795,2.9057,2.9292,2.9292,2.9501,2.9653,2.9653,3.0106,3.0484,0.0,0.0,0.0,3.1005,3.1005,3.13,0.0,3.2489,0.0,3.3862,3.4214,3.4397,0.0,3.4397,3.4397,3.4397,3.4397,3.4397,3.4397,3.4397,3.4397,3.4397,3.4397,3.4397,3.4397,3.4397,3.4397,3.4397,3.4397,3.4397,3.4397,3.4397,3.4397,3.4397,3.4397,3.4397,3.4397,3.4397,3.4397,3.4397,3.4397,3.4634,3.5032,0.0,0.0,0.0,0.0,0.0,0.0,0.0,0.0,0.0,0.0,0.0,0.0,0.0,0.0,0.0,0.0,0.0,0.0,0.0,0.0,0.0,0.0,0.0,0.0,0.0,0.0,0.0,0.0,0.0,0.0,0.0,0.0,0.0,0.0,0.0,0.0,0.0,0.0,0.0,0.0,0.0,0.0,0.0,0.0,0.0,0.0,0.0,0.0,0.0,0.0,2.8612,2.7724,2.8404,2.8213,2.7833,2.8377,2.8521,2.8625,2.9161,2.9292,2.9292,2.9292,2.9358,2.941,2.941,2.9462,2.9528,2.9528,2.9902,3.0218,3.0218,3.066,3.1005,3.1005,0.0,3.1005,3.1005,3.1005,3.1424,3.2555,3.2685,3.3143,3.4293,3.4397,3.4397,3.4397,3.4397,3.4397,3.4397,3.4397,3.4397,3.4397,3.4397,3.4397,3.4397,3.4397,3.4397,3.4397,3.4397,3.4397,3.4397,3.4397,3.4397,3.4397,3.4397,3.4397,3.4397,3.4397,3.4397,3.4397,3.4397,3.4481,3.4571,3.4571,3.5114,3.5876,0.0,0.0,0.0,0.0,0.0,0.0,0.0,0.0,0.0,0.0,0.0,0.0,0.0,0.0,0.0,0.0,0.0,0.0,0.0,0.0,0.0,0.0,0.0,0.0,0.0,0.0,0.0,0.0,0.0,0.0,0.0,0.0,0.0,0.0,0.0,0.0,0.0,0.0,0.0,0.0,0.0,0.0,0.0,0.0,0.0,0.0,0.0,0.0,0.0,0.0,2.9293,2.8355,2.8974,2.9079,2.9018,2.9109,2.9135,2.9161,2.9266,2.9292,2.9292,2.9292,2.964,2.9957,2.9957,3.0346,0.0,3.0704,3.0783,3.083,3.083,3.094,3.1005,3.1005,3.1005,3.1005,3.1005,3.1005,3.1424,0.0,3.2685,3.3143,3.4293,3.4397,0.0,0.0,3.4397,3.4397,3.4397,3.4397,3.4397,3.4397,3.4397,3.4397,3.4397,3.4397,3.4397,3.4397,3.4397,3.4397,3.4397,3.4397,3.4397,3.4397,3.4397,3.4397,3.4397,3.4397,3.4397,3.4397,3.4397,3.484,3.5467,3.5467,3.5983,3.6797,0.0,0.0,0.0,0.0,0.0,0.0,0.0,0.0,0.0,0.0,2.6499,2.6499,0.0,0.0,0.0,0.0,0.0,0.0,0.0,0.0,0.0,0.0,0.0,0.0,0.0,0.0,2.6658,2.6973,0.0,0.0,0.0,2.8182,2.833,0.0,0.0,0.0,0.0,0.0,0.0,0.0,0.0,0.0,0.0,0.0,0.0,0.0,0.0,0.0,0.0,0.0,3.0058,2.9341,2.9702,2.9579,2.9358,2.964,2.9732,2.9784,3.0103,3.0181,3.0181,3.0181,3.0372,3.0581,3.0581,0.0,0.0,3.1005,3.1005,3.1005,3.1005,3.1005,0.0,3.1005,3.1005,3.1005,3.1005,3.1005,3.13,3.213,3.2515,3.3038,3.3901,3.4241,3.4397,3.4397,3.4397,3.4397,3.4397,3.4397,3.4397,3.4397,3.4397,3.4397,3.4397,3.4397,3.4397,3.4397,3.4397,3.4397,3.4397,3.4397,3.4397,3.4397,3.4397,3.4397,3.4397,3.4397,3.4397,3.4397,3.4397,3.4654,3.5073,3.5528,3.6201,3.7016,0.0,0.0,0.0,0.0,0.0,0.0,0.0,2.6499,2.6499,2.6499,2.6499,2.6499,2.6499,2.6499,0.0,0.0,0.0,0.0,0.0,0.0,0.0,0.0,0.0,0.0,0.0,0.0,0.0,2.6499,2.6499,0.0,0.0,0.0,0.0,0.0,2.9046,2.9429,0.0,0.0,0.0,0.0,0.0,0.0,0.0,0.0,0.0,0.0,0.0,0.0,0.0,0.0,3.0686,3.0302,3.0419,3.0091,2.975,3.0171,3.0302,3.0406,3.0869,3.1005,3.1005,3.1005,3.1005,3.1005,3.1005,3.1005,3.1005,3.1005,3.1005,3.1005,3.1005,3.1005,3.1005,0.0,3.1005,3.1005,3.1005,3.1005,3.1196,3.1732,3.2222,0.0,3.3339,3.3921,0.0,3.4228,3.4332,3.4397,3.4397,3.4397,3.4397,3.4397,3.4397,3.4397,3.4397,3.4397,3.4397,3.4397,3.4397,3.4397,3.4397,3.4397,3.4397,3.4397,3.4397,3.4397,3.4418,3.4592,3.4675,3.4696,3.4868,3.5053,3.5305,3.599,3.6752,3.7529,0.0,0.0,0.0,0.0,0.0,0.0,0.0,2.6499,2.6499,2.6499,2.6499,2.6499,2.6499,2.6499,0.0,0.0,0.0,0.0,0.0,0.0,0.0,0.0,0.0,0.0,0.0,0.0,0.0,2.6499,2.6499,0.0,0.0,0.0,0.0,0.0,0.0,2.8947,2.9462,0.0,0.0,0.0,0.0,0.0,0.0,0.0,0.0,0.0,0.0,0.0,0.0,0.0,0.0,3.0914,3.0936,3.0886,3.0861,3.0895,0.0,0.0,3.0979,3.1005,3.1005,3.1005,3.1005,3.1005,3.1005,0.0,3.1005,3.1005,3.1005,3.1005,3.1005,3.1005,3.1005,0.0,0.0,3.1005,3.1005,3.1005,3.1196,3.1732,0.0,0.0,3.2712,3.3313,3.3666,3.3666,3.4123,3.4397,3.4397,3.4397,3.4397,3.4397,3.4397,3.4397,3.4397,3.4397,3.4397,3.4397,3.4397,3.4397,3.4397,3.4397,3.4397,3.4397,3.4397,3.4397,3.446,3.5257,3.5588,3.5635,3.6385,3.7141,3.7867,3.7943,3.8482,3.9177,0.0,0.0,0.0,0.0,0.0,0.0,0.0,2.6499,2.6499,2.6499,2.6499,2.6499,2.6499,2.6499,2.6499,0.0,0.0,0.0,0.0,0.0,0.0,0.0,0.0,0.0,0.0,0.0,2.6499,2.6499,2.6499,0.0,0.0,0.0,0.0,0.0,0.0,2.805,2.8302,0.0,0.0,0.0,0.0,0.0,0.0,0.0,0.0,0.0,0.0,0.0,3.1781,0.0,0.0,0.0,3.1005,3.1005,0.0,0.0,3.1005,3.1005,3.1005,3.1005,3.1005,3.1005,3.1005,3.1005,3.1005,0.0,3.1005,3.1005,3.1005,3.1005,3.1005,3.1005,3.1005,0.0,0.0,0.0,3.1005,3.1005,3.1065,3.13,3.1608,0.0,0.0,0.0,3.3051,3.3051,3.3247,3.3378,3.3378,3.4018,3.4397,3.4397,3.4397,3.4397,3.4397,3.4397,3.4397,3.4397,3.4397,3.4397,3.4397,3.4397,3.4397,3.4397,3.4397,3.4397,3.4439,3.4778,3.4909,3.495,3.5271,3.5936,3.6747,3.7251,3.7952,3.8756,0.0,0.0,0.0,0.0,0.0,0.0,2.6499,2.6499,2.6499,2.6499,2.6499,2.6499,2.6499,2.6499,2.6499,2.6499,0.0,0.0,0.0,0.0,0.0,0.0,0.0,0.0,0.0,0.0,0.0,2.6499,2.6499,2.6499,0.0,0.0,2.7501,2.7534,0.0,0.0,0.0,0.0,0.0,0.0,0.0,0.0,0.0,0.0,0.0,0.0,0.0,0.0,0.0,0.0,0.0,0.0,0.0,0.0,0.0,0.0,3.1005,3.1005,3.1005,3.1005,3.1005,3.1005,3.1005,3.1005,0.0,0.0,3.1005,3.1005,3.1005,3.1005,3.1005,3.1005,3.1005,0.0,0.0,3.1005,3.1005,3.1005,3.1005,3.1005,0.0,3.1568,3.1568,3.2091,3.2515,3.2685,3.2685,3.2777,3.2947,3.3731,3.4162,3.4162,3.4162,3.4241,3.4397,3.4397,3.4397,3.4397,3.4397,3.4397,3.4397,3.4397,3.4397,3.4397,3.4397,3.4551,3.4799,3.5032,3.5284,3.5548,3.5796,3.6241,3.685,3.7429,3.8027,3.8645,0.0,0.0,0.0,0.0,0.0,0.0,0.0,2.6499,2.6499,2.6499,2.6499,2.6499,2.6499,2.6499,2.6499,2.6499,0.0,0.0,0.0,0.0,0.0,0.0,0.0,0.0,0.0,0.0,0.0,2.6499,2.6499,2.6499,2.6516,2.7196,2.7501,2.7554,0.0,0.0,0.0,0.0,0.0,0.0,0.0,0.0,0.0,0.0,0.0,0.0,0.0,0.0,0.0,0.0,0.0,0.0,0.0,3.1005,3.1005,0.0,3.1005,3.1005,3.1005,3.1005,3.1005,3.1005,3.1005,3.1005,3.1005,3.1005,3.1005,3.1005,3.1005,3.1005,3.1005,3.1005,3.1005,3.1005,3.1005,0.0,3.1005,3.1005,3.1005,0.0,3.1005,3.1018,3.1018,3.149,3.2065,3.2659,3.2685,3.2947,3.3568,3.3587,3.36,3.36,3.36,3.3862,3.4384,3.4397,3.4397,3.4397,3.4397,3.4397,3.4397,3.4397,3.4397,3.4397,3.4397,3.4889,3.5749,3.6551,3.7395,3.824,3.9046,3.9337,3.9355,3.9355,3.9388,3.9388,0.0,0.0,0.0,0.0,0.0,0.0,0.0,2.6499,2.6499,2.6499,2.6499,2.6499,2.6499,2.6499,2.6336,2.5917,0.0,0.0,0.0,0.0,0.0,0.0,0.0,0.0,0.0,0.0,0.0,0.0,0.0,2.6499,2.6516,2.7196,2.7501,2.7534,2.8111,2.8397,0.0,0.0,0.0,0.0,0.0,0.0,0.0,0.0,0.0,0.0,0.0,0.0,0.0,0.0,0.0,0.0,0.0,0.0,0.0,3.1005,3.1005,3.1005,3.1005,3.1005,3.1005,3.1005,3.1005,3.1005,3.1005,3.1005,3.1005,3.1005,3.1005,3.1005,3.1005,3.1005,3.1005,3.1005,3.1005,0.0,0.0,0.0,0.0,3.1005,3.1326,3.1712,0.0,0.0,3.2489,3.2685,3.2685,3.2777,3.2973,3.2973,3.3339,3.4123,3.4149,3.4228,3.4397,3.4397,3.4397,3.4397,3.4397,3.4397,3.4418,3.5012,3.5284,3.5325,3.5883,3.5963,3.5756,3.6576,3.6733,3.657,3.7372,3.8065,3.859,3.859,3.8922,3.9406,0.0,0.0,0.0,0.0,0.0,0.0,0.0,2.6499,2.6499,2.6499,2.6499,2.6499,2.6499,2.6298,2.6005,2.5624,0.0,0.0,0.0,0.0,0.0,0.0,0.0,0.0,0.0,0.0,0.0,0.0,0.0,0.0,0.0,2.7007,2.7196,2.7213,2.7627,0.0,0.0,0.0,0.0,0.0,0.0,0.0,3.308,0.0,0.0,0.0,0.0,0.0,0.0,0.0,0.0,0.0,0.0,0.0,0.0,0.0,3.1005,3.1005,3.1005,3.1005,3.1005,3.1005,3.1005,0.0,3.1005,3.1005,3.1005,3.1005,3.1005,3.1005,3.1005,3.1005,3.1005,3.1005,3.1005,3.1005,0.0,0.0,0.0,3.1287,3.179,0.0,0.0,3.2685,3.2685,3.2685,3.2685,3.279,3.3032,3.3038,3.3456,3.4371,3.4201,3.4188,3.4397,3.4397,3.4397,3.4397,3.4397,3.4397,3.4418,3.495,3.5386,3.5729,3.6221,3.6517,0.0,3.7179,3.7276,3.7155,3.7639,3.8159,3.8664,3.8664,3.8958,3.9406,0.0,0.0,0.0,0.0,0.0,0.0,0.0,0.0,0.0,0.0,2.6499,2.6499,2.6499,2.5992,2.5624,0.0,0.0,0.0,0.0,0.0,0.0,0.0,0.0,0.0,0.0,0.0,0.0,2.6731,2.6726,2.6726,2.6714,0.0,2.6816,2.6888,2.7593,2.8254,2.8942,3.0307,3.1183,3.174,3.275,3.3516,0.0,0.0,0.0,0.0,0.0,0.0,0.0,0.0,0.0,0.0,0.0,0.0,0.0,0.0,0.0,0.0,0.0,3.1005,3.1005,3.1005,3.1005,3.1005,3.1005,0.0,0.0,3.1005,3.1005,3.1005,3.1005,3.1005,3.1005,3.1005,3.1005,3.1018,0.0,3.1059,0.0,0.0,3.2417,3.2777,3.2836,3.2816,3.2816,3.2816,3.2816,3.3064,3.3626,3.3673,3.3875,3.4384,3.3914,3.3888,3.4397,3.4397,3.4397,3.4397,3.4397,3.4439,3.4501,3.4551,3.5053,3.589,3.595,3.6805,3.8202,3.8258,3.8701,3.9334,3.9388,3.9406,3.9406,3.9406,3.9406,3.9406,0.0,0.0,0.0,0.0,0.0,0.0,0.0,0.0,0.0,0.0,0.0,2.6499,2.6499,2.6373,0.0,0.0,0.0,0.0,0.0,0.0,0.0,0.0,0.0,0.0,0.0,0.0,0.0,2.715,2.7011,2.6926,2.6943,2.7443,0.0,0.0,2.8792,2.9077,2.9347,2.9607,3.0307,3.1318,3.2213,3.3161,0.0,0.0,0.0,0.0,3.4555,3.3555,0.0,0.0,0.0,0.0,0.0,0.0,0.0,0.0,3.1431,3.1005,3.1005,0.0,3.1005,3.1005,3.1005,3.1005,0.0,0.0,0.0,0.0,0.0,3.1005,3.1005,3.1005,3.1005,3.1005,3.1005,3.1087,3.1338,3.1779,0.0,3.2809,3.3186,3.3548,3.3953,3.3992,3.3992,3.3992,3.3992,3.4058,3.4201,3.4201,3.4267,3.4397,3.428,3.4267,3.4397,3.4397,3.4397,3.4397,3.4397,3.4758,3.5426,3.6016,3.68,3.7644,3.8248,3.8393,3.824,3.8867,3.8867,3.8538,3.9156,3.9406,3.9406,3.9406,3.9406,3.9406,0.0,0.0,0.0,0.0,0.0,0.0,0.0,0.0,0.0,0.0,0.0,0.0,0.0,0.0,0.0,0.0,0.0,0.0,0.0,0.0,0.0,0.0,0.0,0.0,0.0,0.0,0.0,0.0,0.0,2.7045,0.0,0.0,0.0,0.0,2.8661,2.8998,2.9254,2.903,2.9967,3.1669,3.1892,0.0,0.0,0.0,0.0,0.0,3.4789,3.4153,0.0,3.3234,3.272,3.2028,0.0,0.0,0.0,0.0,3.1315,3.1005,3.1005,3.1005,3.1005,3.1005,3.1005,3.1005,3.1005,0.0,0.0,0.0,0.0,3.1005,3.1005,3.0911,3.0965,3.132,3.1207,3.1287,0.0,0.0,3.2865,3.3168,3.3467,3.376,3.4045,3.4084,3.4126,3.4251,3.4264,3.4293,3.4397,3.4397,3.4397,3.4397,3.4397,3.4397,3.4397,3.4397,3.4397,3.4397,3.4397,3.4847,3.5709,3.6136,3.7033,3.8221,3.8664,3.8811,3.8775,3.9228,3.9137,3.8793,3.9228,3.9406,3.9406,3.9406,3.9406,3.9406,0.0,0.0,0.0,0.0,0.0,0.0,0.0,0.0,0.0,0.0,0.0,0.0,0.0,0.0,0.0,0.0,0.0,0.0,0.0,0.0,0.0,0.0,0.0,0.0,0.0,0.0,0.0,0.0,0.0,0.0,0.0,0.0,2.7464,2.7506,2.8088,2.8677,2.9207,2.8823,3.0141,3.245,3.1984,0.0,0.0,0.0,0.0,0.0,0.0,0.0,0.0,3.3143,3.272,3.2698,3.1786,0.0,0.0,0.0,0.0,0.0,3.1005,3.1005,3.1005,3.1005,3.1005,3.1005,3.1005,0.0,0.0,0.0,0.0,0.0,3.0968,3.0914,0.0,3.1623,3.1532,0.0,3.2325,3.2879,3.322,3.322,3.3515,3.3691,3.3691,3.3691,3.3789,3.4013,3.4034,3.4105,3.4293,3.4293,3.4293,3.4293,3.4293,3.4356,3.4501,3.4439,3.4481,3.4592,3.4592,3.5094,3.6036,3.6056,3.6917,3.8333,3.8371,3.8775,3.9406,3.9406,3.9406,3.9406,3.9406,3.9406,3.9406,3.9406,3.9406,3.9406,0.0,0.0,0.0,0.0,0.0,0.0,0.0,0.0,0.0,0.0,0.0,0.0,0.0,0.0,0.0,0.0,0.0,0.0,0.0,0.0,0.0,0.0,0.0,0.0,0.0,0.0,0.0,0.0,0.0,0.0,2.7993,2.8152,2.8267,2.832,2.8417,2.9141,3.0238,2.9611,3.0883,3.3319,3.3224,0.0,0.0,0.0,0.0,0.0,0.0,0.0,0.0,3.4455,3.3364,3.1634,3.3269,0.0,0.0,0.0,0.0,0.0,3.1005,3.1005,3.1005,3.1005,3.1005,3.1005,3.1005,0.0,0.0,0.0,0.0,0.0,0.0,3.1239,3.1571,0.0,0.0,3.2345,0.0,0.0,3.3378,3.3378,3.3568,3.3691,3.3691,3.3691,3.3725,3.3768,3.3755,3.3776,3.3797,3.3797,3.3797,3.3797,3.3797,3.4155,3.4889,3.4571,3.4778,3.5507,3.5507,3.6215,3.7567,3.7739,3.8244,3.8962,3.9141,3.9283,3.9406,3.9406,3.9406,3.9406,3.9406,3.9406,3.9406,3.9406,3.9406,3.9406,0.0,0.0,0.0,0.0,0.0,0.0,0.0,0.0,0.0,0.0,0.0,0.0,0.0,0.0,0.0,0.0,0.0,0.0,0.0,0.0,0.0,0.0,0.0,0.0,0.0,0.0,0.0,0.0,0.0,2.8571,2.8571,2.846,2.8431,2.8481,2.8121,2.8696,2.9919,2.9237,3.0304,3.2443,0.0,0.0,0.0,0.0,0.0,0.0,0.0,0.0,0.0,0.0,3.3936,3.2826,3.3041,0.0,0.0,0.0,0.0,0.0,3.1005,3.1005,3.1005,3.1005,3.1005,3.1005,3.1005,3.1005,0.0,0.0,0.0,0.0,0.0,0.0,3.1917,3.1757,0.0,3.311,3.2997,3.3225,3.3398,3.3398,3.3398,3.3377,3.3377,3.3377,3.342,3.3535,3.3535,3.3598,3.3691,3.3691,3.3691,3.3691,3.3691,3.3903,3.4288,3.4592,3.5155,3.6016,3.6016,3.6643,3.7739,3.7829,3.8263,3.8943,3.905,3.9086,3.9086,3.9086,3.9086,3.9086,3.9086,3.9086,3.9086,3.9086,3.9086,3.9086,0.0,0.0,0.0,0.0,0.0,0.0,0.0,0.0,0.0,0.0,0.0,0.0,0.0,0.0,0.0,0.0,0.0,0.0,0.0,0.0,0.0,0.0,0.0,0.0,0.0,0.0,2.8065,2.8229,2.872,2.9039,2.9166,2.8603,2.8358,2.839,2.7908,2.8354,2.9461,2.9251,3.024,3.1992,0.0,0.0,0.0,0.0,0.0,0.0,0.0,0.0,0.0,0.0,0.0,0.0,0.0,0.0,0.0,3.1259,3.1123,3.1222,3.1061,3.1123,3.1243,3.12,3.1182,3.1182,3.1182,3.1306,0.0,0.0,0.0,0.0,0.0,3.2175,0.0,3.2454,3.3085,3.3513,3.3356,3.3334,3.3334,3.3334,3.3197,3.3102,3.3102,3.3102,3.3154,3.3313,3.3334,3.3398,3.3556,3.3556,3.3556,3.3556,3.3768,3.3966,3.4163,3.5019,3.5615,3.5996,3.6413,3.6922,3.7515,3.7777,3.8188,3.8741,3.8778,3.88,3.88,3.88,3.88,3.88,3.88,3.88,3.88,3.88,3.88,3.88,0.0,0.0,0.0,0.0,0.0,0.0,0.0,0.0,0.0,0.0,0.0,0.0,0.0,0.0,0.0,0.0,0.0,0.0,0.0,0.0,0.0,0.0,0.0,0.0,0.0,2.728,2.7967,2.8662,2.9372,2.9735,2.9727,2.8627,2.8131,2.8135,2.8213,2.8681,2.9476,3.0625,3.1944,3.3331,3.4067,0.0,0.0,0.0,0.0,0.0,0.0,0.0,0.0,0.0,0.0,0.0,0.0,0.0,3.284,3.1426,3.1487,3.1882,3.1198,3.1492,3.1967,3.178,3.1745,0.0,3.1745,3.2169,0.0,3.2375,0.0,0.0,0.0,3.1991,3.2445,3.3182,3.3215,3.3133,3.3124,3.3124,3.3124,3.3124,3.3124,3.3102,3.3102,3.3102,3.3124,3.3124,3.3124,3.3133,3.3133,3.3133,3.3133,3.3133,3.3915,3.4724,3.5548,3.6354,3.6201,3.5102,3.6727,3.7419,3.7261,3.8252,3.8649,3.8534,3.8723,3.88,3.88,3.88,3.88,3.88,3.88,3.88,3.88,3.88,3.88,3.88,0.0,0.0,0.0,0.0,0.0,0.0,0.0,0.0,0.0,0.0,0.0,0.0,0.0,0.0,0.0,0.0,0.0,0.0,0.0,0.0,0.0,0.0,0.0,2.6636,2.6499,2.7921,2.8663,2.869,2.9692,2.9981,2.9602,2.8962,0.0,2.9434,2.8564,2.9094,3.0654,3.0668,3.1489,3.2837,3.3543,3.4185,0.0,0.0,0.0,0.0,0.0,0.0,0.0,0.0,3.4773,3.3874,3.3874,3.3252,3.2501,3.2394,3.2232,3.2033,3.1755,3.2165,3.2651,3.2619,3.2762,0.0,0.0,3.2443,3.2624,3.3061,3.2904,0.0,0.0,0.0,3.286,3.3159,3.3422,3.3605,3.3605,3.3884,3.3972,3.3633,3.3605,3.3479,3.3128,3.3102,3.3102,3.3102,3.3102,3.3347,3.3886,3.339,3.3577,3.4622,3.3966,3.4246,3.5608,3.5929,3.5849,3.5406,3.7136,3.7924,3.7853,3.8244,3.8389,3.8315,3.8389,3.8427,3.8427,3.8427,3.8427,3.8427,3.8427,3.8427,3.8427,3.8427,3.8427,3.8427,0.0,0.0,0.0,0.0,0.0,0.0,0.0,0.0,0.0,0.0,0.0,0.0,0.0,0.0,0.0,0.0,0.0,0.0,0.0,0.0,0.0,0.0,0.0,2.6688,2.6743,2.8372,2.9043,2.869,2.9911,3.0214,2.9679,0.0,0.0,2.9927,2.907,2.9522,3.0908,3.1089,3.1622,3.2406,3.352,3.4097,0.0,0.0,0.0,0.0,0.0,0.0,0.0,0.0,3.4806,3.3993,3.4228,3.3443,3.2541,3.3038,3.2684,3.2146,3.2336,3.2873,3.337,3.3289,0.0,0.0,3.3394,3.3133,3.3129,3.347,3.337,3.3297,3.3515,0.0,0.0,3.3617,3.3909,3.4161,3.4161,3.4465,3.4552,3.4211,3.4161,3.401,3.3633,3.3617,3.3617,3.3617,3.3617,3.3866,3.4457,3.4221,3.4567,3.5712,3.521,3.5368,3.6317,3.6597,3.6619,3.6444,3.763,3.8056,3.781,3.8071,3.8202,3.8202,3.8202,3.8202,3.8202,3.8202,3.8202,3.8202,3.8202,3.8202,3.8202,3.8202,3.8202,3.8202,0.0,0.0,0.0,0.0,0.0,0.0,0.0,0.0,0.0,0.0,0.0,0.0,0.0,0.0,0.0,0.0,0.0,0.0,0.0,2.6499,2.6555,0.0,0.0,2.7109,2.7298,2.842,2.8908,2.8733,3.0048,3.0489,3.0113,2.9891,0.0,0.0,2.9755,2.994,2.9952,3.216,3.27,3.2272,3.4339,3.4822,3.4363,0.0,0.0,0.0,0.0,0.0,0.0,0.0,3.4471,3.3335,3.4058,3.3785,3.3196,3.3196,3.2684,3.2241,3.2847,3.3592,3.4103,3.3714,0.0,0.0,3.4633,3.4397,3.4209,3.3547,3.366,3.3897,3.3909,3.4327,0.0,3.4703,3.4703,3.4703,3.4703,3.4703,3.4715,3.4703,3.4703,3.4703,3.4703,3.4703,3.4703,3.4703,3.4703,3.4726,3.4748,3.5622,3.6123,3.6144,3.793,3.8571,3.7923,3.8768,3.8865,3.8217,3.8217,3.7753,3.6936,3.781,3.8202,3.8202,3.8202,3.8202,3.8202,3.8202,3.8202,3.8202,3.8202,3.8202,3.8202,3.8202,3.8202,3.8202,0.0,0.0,0.0,0.0,0.0,0.0,0.0,0.0,0.0,0.0,0.0,0.0,0.0,0.0,0.0,0.0,0.0,0.0,0.0,0.0,2.6521,2.6555,2.6985,2.7322,2.7506,2.8721,2.954,2.9887,3.0139,3.0286,0.0,0.0,0.0,3.0049,0.0,0.0,3.1024,3.1427,3.1734,3.1996,3.3171,3.3589,3.3647,0.0,0.0,0.0,0.0,0.0,0.0,0.0,0.0,0.0,3.3449,3.3255,3.3196,3.3196,3.3038,3.3018,3.3666,3.3891,3.4152,3.5121,0.0,0.0,0.0,3.4496,0.0,0.0,3.4056,3.4186,3.4421,3.459,0.0,3.4703,3.5029,3.5257,3.5257,3.5629,3.573,3.5318,3.5257,3.5107,3.4741,3.4703,3.497,3.5644,3.5675,3.6266,3.7573,3.7327,3.7693,3.8871,3.8311,3.8454,3.9445,3.9142,3.9175,3.9538,3.9538,3.8924,3.7829,3.8089,3.8202,3.8202,3.8202,3.8202,3.8202,3.8202,3.8202,3.8202,3.8202,3.8202,3.8202,3.8202,3.8202,3.8202,0.0,0.0,0.0,0.0,0.0,0.0,0.0,0.0,0.0,0.0,0.0,0.0,0.0,0.0,0.0,0.0,0.0,0.0,0.0,0.0,2.7153,2.7153,2.7533,2.7887,2.8234,2.898,2.9673,3.0273,3.0247,0.0,0.0,0.0,2.9972,3.0158,0.0,3.0392,3.0966,3.1129,3.1265,3.1437,3.2358,3.2875,3.3241,0.0,0.0,0.0,0.0,0.0,0.0,0.0,0.0,0.0,3.3182,3.3094,3.3178,3.3094,3.3014,3.3109,3.3739,3.3927,3.4146,3.5076,3.4874,3.452,3.4785,0.0,0.0,0.0,3.4546,3.4773,3.4989,3.5205,3.5378,3.5378,3.5655,3.5845,3.5845,3.618,3.6268,3.5906,3.5845,3.5742,3.5403,3.5378,3.5605,3.618,3.6549,3.7281,3.8388,3.8673,3.9264,4.0269,3.9708,3.974,4.0495,4.0015,3.9871,4.0104,4.0104,3.9697,3.8942,3.871,3.8449,3.8202,3.8202,3.8202,3.8202,3.8202,3.8202,3.8202,3.8202,3.8202,3.8202,3.8202,3.8202,3.8202,0.0,0.0,0.0,0.0,0.0,0.0,0.0,0.0,0.0,0.0,0.0,0.0,0.0,0.0,0.0,0.0,0.0,0.0,0.0,0.0,2.8109,2.8109,2.8355,2.8725,2.9276,2.9289,2.9542,3.0056,3.0254,0.0,0.0,0.0,3.019,2.985,0.0,3.0273,3.0133,3.1084,3.1172,3.0742,3.186,3.2577,3.3027,3.3572,0.0,0.0,0.0,0.0,0.0,0.0,0.0,0.0,3.2964,3.3038,3.314,3.2854,3.2705,3.2761,3.3425,3.3792,3.4012,3.415,3.4556,3.488,3.4684,3.434,3.418,3.462,0.0,3.552,3.5558,3.6031,3.6405,3.6405,3.6405,3.6405,3.6405,3.6405,3.6405,3.6405,3.6405,3.6405,3.6405,3.6476,3.657,3.6651,3.7533,3.8092,3.8183,3.9804,4.0731,4.0731,4.1619,4.1802,4.1192,4.1192,4.0887,4.0278,4.0278,4.0249,4.0162,3.9567,3.8942,3.8376,3.8318,3.8289,3.8289,3.8231,3.8202,3.8202,3.8202,3.8202,3.8202,3.8202,3.8202,3.8202,0.0,0.0,0.0,0.0,0.0,0.0,0.0,0.0,0.0,0.0,0.0,0.0,0.0,0.0,0.0,0.0,0.0,0.0,0.0,0.0,2.8109,2.8109,2.8696,2.9301,2.9891,2.9904,2.9903,2.9869,2.9895,0.0,0.0,0.0,0.0,3.0049,0.0,3.0209,2.9934,3.1028,3.1009,3.0362,3.1805,3.2529,3.2814,3.3364,3.4053,0.0,0.0,0.0,0.0,0.0,0.0,0.0,3.1423,3.1887,3.3012,3.2086,3.218,3.2855,3.3987,3.3733,3.3413,3.4545,3.4593,3.4489,3.4892,3.507,3.5236,3.5545,3.5552,3.5644,3.613,3.6306,3.6405,3.6405,3.6405,3.6405,3.6405,3.6405,3.6405,3.6405,3.6405,3.6405,3.6405,3.7059,3.7795,3.8541,3.9461,4.0338,4.1135,4.1549,4.1773,4.1773,4.1989,4.2034,4.1889,4.1874,4.1802,4.1671,4.1671,4.1381,4.0858,4.0205,3.9828,3.9654,3.9189,3.8986,3.8942,3.842,3.8202,3.8202,3.8202,3.8202,3.8202,3.8202,3.8202,3.8202,0.0,0.0,0.0,0.0,0.0,0.0,0.0,0.0,0.0,0.0,0.0,0.0,0.0,0.0,0.0,0.0,0.0,0.0,0.0,0.0,0.0,0.0,2.9271,2.9631,2.9953,2.9953,2.9895,0.0,0.0,0.0,0.0,0.0,0.0,2.9953,0.0,3.0011,2.985,3.0444,3.0451,3.0152,3.0866,3.1726,3.2583,3.2826,3.3489,3.4269,3.4238,0.0,0.0,0.0,0.0,0.0,0.0,0.0,3.3009,3.1628,3.213,3.3198,3.3513,3.3292,3.3233,3.4224,0.0,3.4593,3.5161,3.5611,3.5954,3.6107,3.6037,3.6031,3.6331,3.6405,3.6405,3.6405,3.6405,3.6405,3.6405,3.6405,3.6405,3.6405,3.6792,3.7059,3.7059,3.7933,3.8653,3.9166,4.0073,4.0831,4.1339,4.1835,4.2092,4.2092,4.2092,4.2092,4.2092,4.2092,4.2092,4.2092,4.2092,4.1918,4.1541,4.0554,4.0104,4.0075,3.977,3.9625,3.9596,3.9247,3.9102,3.9102,3.9102,3.8928,3.8681,3.8681,3.8478,3.8202,0.0,0.0,0.0,0.0,0.0,0.0,0.0,0.0,0.0,0.0,0.0,0.0,0.0,0.0,0.0,0.0,0.0,0.0,0.0,0.0,0.0,0.0,2.9811,2.9811,2.985,2.9811,2.9792,0.0,0.0,0.0,0.0,0.0,0.0,2.985,0.0,2.9792,2.9811,2.9934,2.9998,3.0037,2.9998,3.0928,3.2349,3.2295,3.2879,3.3719,3.352,3.3555,3.351,3.2009,0.0,0.0,0.0,0.0,3.2898,3.1583,3.229,3.3379,3.2883,3.2929,3.3253,3.3884,3.4364,0.0,3.5518,3.6031,3.6405,3.6405,3.6405,3.6405,3.6405,3.6405,3.6405,3.6405,3.6405,3.6405,3.6405,3.6405,3.6405,3.6405,3.7083,3.7556,3.7556,3.8541,3.921,3.921,4.0238,4.0852,4.0852,4.1654,4.2092,4.2092,4.2092,4.2092,4.2092,4.2092,4.2092,4.2092,4.2092,4.2092,4.2063,4.0945,4.0437,4.0437,4.0321,4.0263,4.0263,4.0147,4.0104,4.0104,4.0104,3.9784,3.9363,3.9363,3.8942,3.8376,0.0,0.0,0.0,0.0,0.0,0.0,0.0,0.0,0.0,0.0,0.0,0.0,0.0,0.0,0.0,0.0,0.0,0.0,2.9679,0.0,0.0,3.0049,2.9888,2.9888,3.0068,2.9888,2.9792,0.0,0.0,0.0,0.0,0.0,0.0,3.0049,0.0,0.0,2.9837,3.0482,3.04,2.9895,3.052,3.1304,3.2141,0.0,0.0,0.0,0.0,3.369,3.4131,3.3106,3.2977,0.0,0.0,0.0,3.2209,3.2337,3.2509,3.2746,3.3178,3.3198,3.3341,3.4327,3.464,3.4989,3.6042,3.6331,3.6405,3.6405,3.6405,3.6405,3.6405,3.6405,3.6405,3.6405,3.6405,3.6405,3.6405,3.6405,3.6405,3.6405,3.6499,3.6593,3.6593,3.8157,3.921,3.921,4.0873,4.1912,4.1912,4.203,4.2092,4.2092,4.2092,4.2092,4.2092,4.2092,4.2092,4.2092,4.2092,4.2092,4.2092,4.1903,4.1831,4.1802,4.1221,4.096,4.0916,4.0336,4.0104,4.0104,4.0104,4.0046,3.9973,3.9973,3.9596,3.9073,0.0,0.0,0.0,0.0,0.0,0.0,0.0,0.0,0.0,0.0,0.0,0.0,0.0,0.0,0.0,2.9792,2.9792,2.9792,2.9792,2.9792,2.985,2.9934,2.985,2.985,2.9934,2.985,0.0,0.0,0.0,0.0,0.0,2.9792,2.985,0.0,0.0,0.0,0.0,0.0,3.0608,3.1084,3.0945,3.1623,0.0,0.0,0.0,0.0,0.0,0.0,3.4543,3.3263,3.2842,3.276,3.2171,0.0,0.0,0.0,3.2601,3.2882,3.3155,3.3176,3.3366,3.4427,3.4703,3.5014,3.613,3.6405,3.6405,3.6405,3.6405,3.6405,3.6405,3.6405,3.6405,3.6405,3.6405,3.6405,3.6405,3.6405,3.6405,3.6405,3.6862,3.7394,3.7919,3.9197,4.0216,4.0774,4.1627,4.2092,4.2092,4.2092,4.2092,4.2092,4.2092,4.2092,4.2092,4.2092,4.2092,4.2092,4.2092,4.2092,4.2092,4.2092,4.2092,4.2078,4.1787,4.1657,4.1628,4.1337,4.1221,4.1221,4.1221,4.0989,4.0655,4.0655,4.0249,3.9697,0.0,0.0,0.0,0.0,0.0,0.0,0.0,0.0,0.0,0.0,0.0,0.0,0.0,0.0,0.0,0.0,2.9792,2.9792,2.9792,2.9792,2.9792,2.9792,2.9792,2.9792,2.9792,2.9792,0.0,0.0,0.0,0.0,2.9792,2.9792,2.9792,0.0,2.9792,0.0,0.0,0.0,0.0,0.0,0.0,0.0,0.0,0.0,0.0,0.0,0.0,0.0,0.0,0.0,3.3034,3.2735,3.2304,3.2276,0.0,0.0,0.0,3.3102,3.3102,3.3102,3.3366,3.4427,3.4703,3.5014,3.613,3.6405,3.6405,3.6405,3.6405,3.6405,3.6405,3.6405,3.6405,3.6405,3.6405,3.6405,3.6405,3.6405,3.6499,3.6722,3.7384,3.8183,3.9121,4.0051,4.0894,4.1654,4.1953,4.2092,4.2092,4.2092,4.2092,4.2092,4.2092,4.2092,4.2092,4.2092,4.2092,4.2092,4.2092,4.2092,4.2092,4.2092,4.2092,4.2092,4.2092,4.2092,4.2092,4.2092,4.2092,4.2092,4.2092,4.1787,4.1352,4.1352,4.0931,4.035,0.0,0.0,0.0,0.0,0.0,0.0,0.0,0.0,0.0,0.0,0.0,0.0,0.0,2.9792,2.9792,2.9792,2.9792,2.9792,2.9792,2.9792,2.9792,2.9792,2.9792,0.0,2.9792,0.0,0.0,0.0,0.0,0.0,2.9792,2.9792,2.9792,2.9792,2.9792,2.9811,2.9837,0.0,0.0,0.0,0.0,0.0,0.0,0.0,0.0,0.0,0.0,0.0,0.0,0.0,0.0,0.0,0.0,3.3695,3.3052,0.0,0.0,0.0,3.3102,3.3102,3.3366,3.4427,3.4703,3.5014,3.613,3.6405,3.6405,3.6405,3.6405,3.6405,3.6405,3.6405,3.6405,3.6405,3.6405,3.6405,3.6405,3.6405,3.6722,3.7625,3.7763,3.8183,3.9121,4.0051,4.0625,4.0667,4.1556,4.2092,4.2092,4.2092,4.2092,4.2092,4.2092,4.2092,4.2092,4.2092,4.2092,4.2092,4.2092,4.2092,4.2092,4.2092,4.2092,4.2092,4.2092,4.2092,4.2092,4.2092,4.2092,4.2092,4.2092,4.2078,4.2049,4.2049,4.1613,4.1047,0.0,0.0,0.0,0.0,0.0,0.0,0.0,0.0,0.0,0.0,0.0,0.0,0.0,2.9792,2.9792,2.9792,2.9792,2.9792,2.9792,2.9792,2.9792,2.9792,2.9792,2.9792,2.9792,0.0,0.0,0.0,0.0,2.9792,2.9792,2.9792,2.998,3.0319,3.0319,3.0588,3.101,3.0877,0.0,0.0,0.0,0.0,0.0,0.0,0.0,0.0,0.0,0.0,0.0,0.0,0.0,0.0,0.0,0.0,0.0,0.0,0.0,3.3102,0.0,0.0,3.3366,3.4427,3.4703,3.5014,3.613,3.6405,3.6405,3.6405,3.6405,3.6405,3.6405,3.6405,3.6405,3.6405,3.6405,3.6405,3.6405,3.6405,3.6523,3.6862,3.7417,3.8183,3.9121,4.0051,4.0873,4.1514,4.1912,4.2092,4.2092,4.2092,4.2092,4.2092,4.2092,4.2092,4.2092,4.2092,4.2092,4.2092,4.2092,4.2092,4.2092,4.2092,4.2092,4.2092,4.2092,4.2092,4.2092,4.2092,4.2092,4.2092,4.2092,4.2092,4.2092,4.2092,4.1947,4.1744,0.0,0.0,0.0,0.0,0.0,0.0,0.0,0.0,0.0,0.0,0.0,0.0,0.0,0.0,2.9792,2.9792,2.9792,2.9792,2.9792,2.9792,2.9792,2.9792,2.9792,2.9792,2.9792,0.0,0.0,0.0,0.0,0.0,0.0,3.0244,3.0532,3.0884,3.1052,3.1323,0.0,0.0,0.0,3.4476,0.0,0.0,3.6548,0.0,0.0,0.0,0.0,0.0,0.0,0.0,0.0,0.0,0.0,0.0,0.0,0.0,0.0,0.0,3.3102,0.0,0.0,3.4477,3.4841,3.5217,3.618,3.6405,3.6405,3.6405,3.6405,3.6405,3.6405,3.6405,3.6405,3.6405,3.6405,3.6405,3.6405,3.6405,3.6523,3.6839,3.7417,3.8183,3.9121,4.0051,4.0873,4.1556,4.1912,4.2092,4.2092,4.2092,4.2092,4.2092,4.2092,4.2092,4.2092,4.2092,4.2092,4.2092,4.2092,4.2092,4.2092,4.2092,4.2092,4.2092,4.2092,4.2092,4.2092,4.2092,4.2092,4.2092,4.2092,4.2092,4.2092,4.2092,4.2092,4.2092,0.0,0.0,0.0,0.0,0.0,0.0,0.0,0.0,0.0,0.0,0.0,0.0,0.0,0.0,0.0,2.9792,2.9792,2.9792,2.9792,2.9792,2.9792,2.9792,2.9792,2.9792,2.9792,0.0,0.0,0.0,0.0,0.0,0.0,0.0,3.1419,3.1436,3.1976,3.1926,3.1498,0.0,3.3032,3.3603,0.0,3.5644,3.6878,0.0,0.0,0.0,3.6861,3.5844,0.0,3.4429,0.0,0.0,0.0,0.0,0.0,0.0,0.0,0.0,0.0,0.0,0.0,3.4552,3.5082,3.5644,3.6256,3.6405,3.6405,3.6405,3.6405,3.6405,3.6405,3.6405,3.6405,3.6405,3.6405,3.6405,3.6405,3.6405,3.6745,3.7648,3.7785,3.8183,3.9121,4.0029,4.0568,4.0646,4.1535,4.2071,4.2092,4.2092,4.2092,4.2092,4.2092,4.2092,4.2092,4.2092,4.2092,4.2092,4.2092,4.2092,4.2092,4.2092,4.2092,4.2092,4.2092,4.2092,4.2092,4.2092,4.2092,4.2092,4.2092,4.2092,4.2092,4.2092,4.2092,4.2092,0.0,0.0,0.0,0.0,0.0,0.0,0.0,0.0,0.0,0.0,0.0,0.0,0.0,0.0,0.0,2.9792,2.9792,2.9792,2.9792,2.9792,2.9792,2.9792,2.9792,2.9792,2.9792,0.0,0.0,0.0,0.0,0.0,0.0,0.0,0.0,0.0,3.2118,3.2365,3.2659,3.29,0.0,3.4232,3.509,3.5653,0.0,0.0,0.0,0.0,0.0,3.5952,3.5449,0.0,3.4617,3.4431,0.0,0.0,0.0,0.0,0.0,0.0,3.3102,0.0,0.0,0.0,0.0,0.0,3.6168,3.6405,3.6405,3.6405,3.6405,3.6405,3.6405,3.6405,3.6405,3.6405,3.6405,3.6405,3.6405,3.6405,3.6499,3.6745,3.7384,3.8183,3.9121,3.9417,4.0165,4.1577,4.1275,4.1318,4.2071,4.2092,4.2092,4.2092,4.2092,4.2092,4.2092,4.2092,4.2092,4.2092,4.2092,4.2092,4.2092,4.2092,4.2092,4.2092,4.2092,4.2092,4.2092,4.2092,4.2092,4.2092,4.2092,4.2092,4.2092,4.2092,4.2092,4.2092,0.0,0.0,0.0,0.0,0.0,0.0,0.0,0.0,0.0,0.0,0.0,0.0,0.0,0.0,0.0,0.0,2.9792,2.9792,2.9792,2.9792,2.9792,2.9792,2.9792,2.9892,3.0131,0.0,0.0,0.0,0.0,0.0,0.0,0.0,0.0,0.0,0.0,0.0,0.0,0.0,0.0,0.0,3.5203,0.0,0.0,3.6769,3.6645,0.0,0.0,0.0,3.5873,3.4993,3.4844,0.0,0.0,0.0,0.0,0.0,0.0,0.0,0.0,0.0,0.0,0.0,0.0,0.0,3.6243,3.6405,3.6405,3.6405,3.6405,3.6405,3.6405,3.6405,3.6405,3.6405,3.6405,3.6405,3.6405,3.6405,3.6405,3.6405,3.6886,3.7441,3.7988,3.8396,3.9091,4.0215,4.0489,4.1036,4.2051,4.2092,4.2092,4.2092,4.2092,4.2092,4.2092,4.2092,4.2092,4.2092,4.2092,4.2092,4.2092,4.2092,4.2092,4.2092,4.2092,4.2092,4.2092,4.2092,4.2092,4.2092,4.2092,4.2092,4.2092,4.2092,4.2092,4.2092,0.0,0.0,0.0,0.0,0.0,0.0,0.0,0.0,0.0,0.0,0.0,0.0,0.0,0.0,0.0,0.0,2.9842,2.988,2.988,2.993,2.9967,2.9967,2.9967,3.0193,3.0676,0.0,0.0,0.0,0.0,0.0,0.0,0.0,0.0,0.0,0.0,0.0,0.0,0.0,0.0,3.4528,3.5012,3.5611,0.0,0.0,3.6498,3.7008,3.6293,3.6033,3.5923,3.5062,3.4791,0.0,0.0,0.0,0.0,0.0,3.3646,0.0,0.0,0.0,0.0,0.0,3.5906,0.0,3.6392,3.6405,3.6405,3.6405,3.6405,3.6405,3.6405,3.6405,3.6405,3.6405,3.6405,3.6405,3.6405,3.6405,3.6405,3.6405,3.6405,3.6428,3.6546,3.7222,3.774,3.7946,3.9593,4.0951,4.1731,4.1989,4.2051,4.1933,4.2051,4.2092,4.2092,4.2092,4.2092,4.2092,4.2092,4.2051,4.1933,4.1933,4.1933,4.1933,4.1933,4.2009,4.2092,4.2092,4.2092,4.2092,4.2092,4.2092,4.2092,4.2092,4.2092,4.2092,0.0,0.0,0.0,0.0,0.0,0.0,0.0,0.0,0.0,0.0,0.0,0.0,0.0,0.0,0.0,0.0,0.0,3.0437,3.0437,3.0846,3.1105,3.1105,3.1105,3.1155,3.1235,3.1235,0.0,0.0,0.0,0.0,0.0,0.0,0.0,0.0,0.0,0.0,0.0,0.0,0.0,3.5051,3.5155,3.4878,3.4565,3.6084,3.6315,3.5897,3.6204,3.6322,3.6212,3.5552,3.5332,3.5257,0.0,0.0,0.0,3.454,0.0,0.0,0.0,0.0,0.0,0.0,3.5583,0.0,3.6281,3.6405,3.6405,3.6405,3.6405,3.6405,3.6405,3.6405,3.6405,3.6405,3.6405,3.6405,3.6405,3.6405,3.6405,3.6405,3.6405,3.6698,3.7441,3.7013,3.7302,3.881,3.9964,4.0367,3.9796,4.1262,4.1717,4.0916,4.1675,4.2092,4.2092,4.2092,4.2092,4.2092,4.2092,4.1675,4.0894,4.0894,4.0894,4.0894,4.0894,4.1339,4.2092,4.2092,4.2092,4.2092,4.2092,4.2092,4.2092,4.2092,4.2092,4.2092,0.0,0.0,0.0,0.0,0.0,0.0,0.0,0.0,0.0,0.0,0.0,0.0,0.0,0.0,0.0,0.0,0.0,0.0,0.0,0.0,3.1406,3.1406,3.1406,3.1524,3.1788,3.18,0.0,0.0,0.0,0.0,0.0,0.0,0.0,0.0,0.0,0.0,0.0,0.0,3.3917,3.4584,3.4831,0.0,3.5436,3.6281,3.6326,3.5994,3.6281,3.6405,3.6344,3.6044,3.5956,0.0,3.5629,3.533,3.5117,0.0,3.4916,3.4753,0.0,0.0,0.0,3.5818,3.5956,0.0,0.0,3.6405,3.6405,3.6405,3.6405,3.6405,3.6405,3.6405,3.6405,3.6405,3.6405,3.6405,3.6405,3.6405,3.6405,3.6405,3.6405,3.6593,3.7059,3.6675,3.6989,3.8396,3.8944,3.921,3.921,4.0122,4.0417,3.9921,4.0845,4.1339,4.1339,4.1835,4.2092,4.2092,4.1598,4.1092,4.0568,4.0116,3.9899,3.9921,4.0396,4.0894,4.1339,4.1339,4.1339,4.1339,4.1339,4.1339,4.1339,4.1339,4.1675,4.203,0.0,0.0,0.0,0.0,0.0,0.0,0.0,0.0,0.0,0.0,0.0,0.0,0.0,0.0,0.0,0.0,0.0,0.0,0.0,0.0,0.0,3.1733,3.1733,3.1926,3.2365,3.2378,3.2604,0.0,0.0,0.0,0.0,0.0,0.0,0.0,0.0,0.0,0.0,0.0,0.0,3.4261,0.0,3.5524,3.6548,3.6436,3.6405,3.6405,3.6405,3.6405,3.6405,3.6405,3.6405,3.6405,3.6405,3.6056,0.0,0.0,0.0,0.0,0.0,0.0,0.0,0.0,0.0,3.6405,0.0,0.0,0.0,3.6405,3.6405,3.6405,3.6405,3.6405,3.6367,3.6243,3.6306,3.6367,3.6243,3.6318,3.6405,3.6405,3.6405,3.6405,3.6405,3.657,3.6909,3.75,3.7877,3.8238,3.8653,3.8997,3.9121,3.8944,3.9834,4.0418,4.0603,4.1416,4.1912,4.2092,4.1078,4.0504,4.0289,3.9351,3.8921,3.8966,3.9724,4.0159,4.0332,4.0332,4.0224,4.0073,4.0267,4.0332,4.0332,4.0332,4.0845,4.143,2.9792,2.9792,0.0,0.0,0.0,0.0,0.0,0.0,0.0,0.0,0.0,0.0,0.0,0.0,0.0,0.0,0.0,0.0,3.2106,0.0,0.0,3.2901,3.2901,3.2939,3.3002,3.3002,3.3027,3.3102,0.0,0.0,0.0,0.0,0.0,0.0,3.3605,0.0,0.0,0.0,3.4891,0.0,3.5382,3.5502,0.0,3.6215,3.6405,3.6405,3.6405,3.6405,3.6405,3.6405,3.6405,3.6405,0.0,3.6344,3.6293,3.6293,0.0,0.0,0.0,0.0,0.0,0.0,3.6405,3.6405,3.6405,0.0,3.6405,3.6405,0.0,3.6405,3.6405,0.0,0.0,3.5694,3.6044,3.6218,3.5682,3.6056,3.6405,3.6405,3.6405,3.6405,3.6405,3.7152,3.7338,3.6604,3.8102,3.836,3.6803,3.8292,3.881,3.7978,3.8877,3.9768,4.0603,4.071,4.1219,4.2092,4.1078,4.0159,3.9329,3.8396,3.7955,3.7955,3.8069,3.8599,3.9351,3.9351,3.8877,3.8206,3.9033,3.9351,3.9351,3.9351,3.9431,3.9519,2.9792,2.9792,0.0,0.0,0.0,0.0,0.0,0.0,0.0,0.0,0.0,0.0,0.0,0.0,0.0,0.0,0.0,3.3649,0.0,0.0,0.0,0.0,3.3278,3.3102,3.3102,3.3102,3.3102,3.3102,3.3102,0.0,0.0,0.0,0.0,0.0,3.3796,0.0,3.4389,0.0,3.5282,0.0,0.0,3.6019,3.6044,3.6293,3.6405,3.6405,3.6405,3.6405,3.6405,3.6405,3.6405,3.6405,0.0,0.0,0.0,3.6405,0.0,0.0,0.0,0.0,0.0,0.0,0.0,3.6405,3.6405,3.6405,3.6405,3.6405,0.0,0.0,0.0,0.0,0.0,0.0,3.623,3.6306,3.6056,3.6243,3.6405,3.6405,3.6405,3.6405,3.6405,3.6745,3.6815,3.6428,3.7116,3.7232,3.6428,3.714,3.7381,3.6989,3.791,3.8576,3.8966,3.9527,4.0,4.0409,3.9431,3.8765,3.8351,3.7417,3.6989,3.7026,3.7556,3.8024,3.8396,3.8396,3.816,3.7785,3.7635,3.791,3.8396,3.8396,3.872,3.9121,0.0,0.0,0.0,0.0,0.0,0.0,0.0,0.0,0.0,0.0,0.0,0.0,3.4022,3.4123,0.0,0.0,3.4703,3.4703,0.0,0.0,3.4123,0.0,0.0,0.0,0.0,3.3533,3.3479,3.3329,0.0,0.0,0.0,0.0,0.0,0.0,0.0,3.4552,3.4966,0.0,3.5744,3.5782,3.6218,3.6405,3.6405,3.6405,3.6405,3.6405,3.6405,3.6405,3.6405,3.6405,3.6405,3.6405,3.6405,3.6405,3.6405,0.0,0.0,0.0,3.6405,3.6405,3.6405,3.6405,3.6405,3.6405,3.6405,3.6405,3.6405,3.6405,3.6405,0.0,0.0,0.0,0.0,0.0,0.0,3.6331,3.618,3.6293,3.6405,3.6405,3.6405,3.6405,3.6405,3.6628,3.6675,3.6428,3.664,3.6675,3.6405,3.6405,3.6405,3.6405,3.7059,3.7533,3.7808,3.8486,3.8944,3.9188,3.8251,3.7808,3.7763,3.6839,3.6405,3.6428,3.7129,3.743,3.743,3.743,3.743,3.7361,3.6675,3.6815,3.743,3.743,3.7841,3.8351,3.1356,3.0934,0.0,0.0,0.0,0.0,0.0,0.0,0.0,0.0,0.0,0.0,0.0,0.0,0.0,0.0,0.0,3.4703,3.4703,0.0,3.4678,0.0,0.0,3.4653,0.0,3.4653,3.4389,3.3872,0.0,0.0,0.0,0.0,0.0,0.0,3.5207,3.5458,3.5508,3.613,3.638,3.638,3.6405,3.6405,3.6405,3.6405,3.6405,3.6405,3.6405,3.6405,3.6405,3.6405,3.6405,3.6405,3.6405,3.6405,3.6405,3.6405,3.6405,3.6405,3.6405,3.6405,3.6405,3.6405,3.6405,3.6405,3.6405,3.6405,3.6405,3.6405,3.6405,3.6405,3.6405,0.0,0.0,0.0,0.0,0.0,0.0,3.6031,3.6405,3.6405,3.6405,3.6405,3.6405,3.7222,3.7384,3.6476,3.7245,3.7361,3.6452,3.6405,3.6405,3.6405,3.6428,3.6886,3.7785,3.7831,3.8306,3.9188,3.8251,3.7808,3.7763,3.6839,3.6405,3.6405,3.6428,3.6428,3.6428,3.6428,3.6428,3.6428,3.6405,3.6428,3.6428,3.6428,3.6452,3.6499,0.0,0.0,0.0,0.0,0.0,0.0,0.0,3.3093,0.0,0.0,3.4223,0.0,0.0,3.5219,3.5393,0.0,0.0,3.5828,3.5828,3.5443,0.0,0.0,0.0,3.4703,0.0,0.0,0.0,0.0,0.0,0.0,0.0,0.0,0.0,0.0,0.0,3.5719,0.0,3.6306,3.6405,3.6405,3.6405,3.6405,3.6405,3.6405,3.6405,3.6405,3.6405,3.6405,3.6405,3.6405,3.6405,3.6405,3.6405,3.6405,3.6405,3.6405,3.6405,3.6405,3.6405,3.6405,3.6405,3.6405,3.6405,3.6405,3.6405,3.6405,3.6405,3.6405,3.6405,3.6405,3.6405,0.0,0.0,0.0,0.0,0.0,0.0,3.6268,3.6405,3.6405,3.6405,3.6405,3.6405,3.6675,3.6745,3.6428,3.6675,3.6722,3.6428,3.6405,3.6405,3.6405,3.6405,3.6546,3.6886,3.6886,3.7036,3.7335,3.7036,3.6886,3.6862,3.6546,3.6405,3.6405,3.6405,3.6405,3.6405,3.6405,3.6405,3.6405,3.6405,3.6405,3.6405,3.6405,3.6405,3.6405,3.2453,0.0,0.0,0.0,0.0,0.0,0.0,0.0,0.0,0.0,3.4778,0.0,3.5757,0.0,3.5981,0.0,3.6405,3.6405,3.6405,3.6031,0.0,3.5807,3.5491,3.5303,0.0,0.0,0.0,0.0,0.0,3.4969,0.0,0.0,0.0,0.0,0.0,3.6031,3.6405,3.6405,3.6405,3.643,3.6595,3.6796,3.6972,3.6972,3.6733,3.6405,3.6405,3.6405,3.6405,3.6405,3.6405,3.6405,3.6405,3.6405,3.6405,3.6405,3.6405,3.6405,3.6405,3.6405,3.6405,3.6405,3.6405,3.6405,3.6405,3.6405,3.6405,3.6405,3.6405,3.6405,3.6405,0.0,0.0,0.0,0.0,0.0,0.0,3.6405,3.6405,3.6405,3.6405,3.6405,3.6405,3.6405,3.6405,3.6405,3.6405,3.6405,3.6405,3.6405,3.6405,3.6405,3.6405,3.6405,3.6405,3.6405,3.6405,3.6405,3.6405,3.6405,3.6405,3.6405,3.6405,3.6405,3.6405,3.6405,3.6405,3.6405,3.6405,3.6405,3.6405,3.6405,3.6405,3.6405,3.6405,3.6405,3.3178,3.3178,0.0,0.0,3.3596,0.0,0.0,0.0,3.4929,0.0,3.552,3.5757,3.6331,3.6405,3.6405,3.6405,3.6405,3.6405,3.6405,3.6405,0.0,0.0,3.6405,3.6405,3.6405,0.0,0.0,0.0,0.0,0.0,0.0,0.0,0.0,0.0,3.6405,0.0,3.6405,3.6405,3.643,3.6505,3.7022,3.7538,3.8002,3.8002,3.7386,3.6493,3.6493,3.6493,3.6493,3.6493,3.6493,3.6493,3.6493,3.6493,3.6493,3.6493,3.6444,3.6455,3.6455,3.643,3.6405,3.6405,3.6405,3.6405,3.6405,3.6405,3.6405,3.6405,3.6405,3.6405,3.6405,0.0,0.0,0.0,0.0,0.0,0.0,0.0,3.6405,3.6405,3.6405,3.6405,3.6405,3.6405,3.6405,3.6405,3.6405,3.6405,3.6405,3.6405,3.6405,3.6405,3.6405,3.6405,3.6405,3.6405,3.6405,3.6405,3.6405,3.6405,3.6405,3.6405,3.6405,3.6405,3.6405,3.6405,3.6405,3.6405,3.6405,3.6405,3.6405,3.6405,3.6405,3.6405,3.6405,3.6405,3.4276,3.4276,3.4276,3.4276,3.4389,3.449,3.449,3.4954,0.0,0.0,3.5893,3.623,3.6392,3.6405,3.6405,3.6405,3.6405,0.0,0.0,0.0,0.0,3.6405,3.6405,3.6405,3.6405,3.6405,3.6306,3.618,0.0,0.0,3.618,0.0,0.0,0.0,0.0,3.6405,3.6405,3.6405,3.662,3.7047,3.7575,3.7889,3.8002,3.8002,3.7839,3.7588,3.7588,3.7588,3.7588,3.7588,3.7588,3.7588,3.7588,3.7588,3.7588,3.7588,3.7323,3.6997,3.6997,3.6695,3.6405,3.6405,3.6405,3.6405,3.6405,3.6405,3.6405,3.6405,3.6405,3.6405,3.6405,3.6405,0.0,0.0,0.0,0.0,0.0,0.0,3.6405,3.6405,3.6405,3.6405,3.6405,3.6405,3.6405,3.6405,3.6405,3.6405,3.6405,3.6405,3.6405,3.6405,3.6405,3.6405,3.6405,3.6405,3.6405,3.6405,3.6405,3.6405,3.6405,3.6405,3.6405,3.6405,3.6405,3.6405,3.6405,3.6405,3.6405,3.6405,3.6405,3.6405,3.6405,3.6405,3.6405,3.6405,3.4703,3.4891,3.5067,3.5067,3.5255,3.5353,3.5092,3.5531,3.5893,3.5893,3.6193,0.0,3.672,3.6746,3.6846,3.7085,3.7097,0.0,3.7097,0.0,0.0,3.7097,3.7097,3.6997,3.6746,3.6746,0.0,3.6405,0.0,0.0,3.6405,0.0,0.0,0.0,0.0,3.6405,3.643,3.6645,3.721,3.7977,3.8266,3.853,0.0,3.8743,3.8743,3.8743,3.8743,3.8429,3.8002,3.8002,3.8002,3.8002,3.8002,3.8002,3.8002,3.8002,3.7789,3.755,3.755,3.7336,3.7097,3.7097,3.7097,3.7097,3.7097,3.7097,3.7097,3.7097,3.7097,3.7034,3.6783,3.6746,0.0,0.0,0.0,0.0,0.0,0.0,3.6405,3.6405,3.6405,3.6405,3.6405,3.6405,3.6405,3.6405,3.6405,3.6405,3.6405,3.6405,3.6405,3.6405,3.6405,3.6405,3.6405,3.6405,3.6405,3.6405,3.6405,3.6405,3.6405,3.6405,3.6405,3.6405,3.6405,3.6405,3.6405,3.6405,3.6405,3.6405,3.6405,3.6405,3.6405,3.6405,3.6405,3.6405,3.4916,3.5305,3.5631,3.5631,3.6044,3.6243,3.5794,3.6107,3.643,3.6505,3.6494,3.6708,3.7261,3.7287,3.7487,3.7965,3.8002,3.8002,3.8002,3.8002,3.8002,3.8002,3.8002,3.7789,3.7299,3.7287,3.7047,0.0,0.0,0.0,0.0,0.0,0.0,0.0,3.648,3.6532,3.6645,3.7198,3.7989,3.8906,3.8982,3.9296,3.9697,3.9697,3.9697,3.9697,3.9697,3.9057,3.8228,3.8228,3.8228,3.8228,3.8228,3.8228,3.8228,3.8228,3.8178,3.8115,3.8115,3.8065,3.8002,3.8002,3.8002,3.8002,3.8002,3.8002,3.8002,3.8002,3.8002,3.7864,3.7374,3.7261,3.7047,0.0,0.0,0.0,0.0,0.0,0.0,0.0,3.6405,0.0,3.6405,3.6405,3.6405,3.6405,3.6405,3.6405,3.6405,3.6405,3.6405,3.6405,3.6405,3.6405,3.6405,3.6405,3.6405,3.6405,3.6405,3.6405,3.6405,3.6405,3.6405,3.6405,3.6405,3.6405,3.6405,3.6405,3.6405,3.6405,3.6405,3.6405,3.6405,3.6405,3.6405,3.6405,3.6092,3.618,0.0,3.6243,3.6318,3.6507,3.6847,3.662,3.6545,3.6997,3.706,3.7273,3.7801,3.7864,3.7902,3.8002,3.8002,3.8002,3.8002,3.8002,3.8002,3.8002,3.8002,3.7965,3.7864,3.7864,3.76,0.0,0.0,0.0,0.0,0.0,0.0,0.0,3.6859,3.7323,3.7751,3.8354,3.8718,3.8931,3.9396,3.9609,3.9697,3.9697,3.9697,3.9697,3.9697,3.9572,3.9396,3.9396,3.9396,3.9396,3.9396,3.9396,3.9396,3.9396,3.9082,3.8743,3.8743,3.8366,3.8002,3.8002,3.8002,3.8002,3.8002,3.8002,3.8002,3.8002,3.8002,3.7977,3.7889,3.7487,3.7173,3.7085,3.6683,3.6405,3.6405,0.0,0.0,0.0,3.6405,3.6405,3.6405,3.6405,3.6405,3.6405,3.6405,3.6405,3.6405,3.6405,3.6405,3.6405,3.6405,3.6405,3.6405,3.6405,3.6405,3.6405,3.6405,3.6405,3.6405,3.6405,3.6405,3.6405,3.6405,3.6405,3.6405,3.6405,3.6405,3.6405,3.6405,3.6405,3.6405,3.6405,3.6405,3.6405,3.6405,0.0,0.0,0.0,3.7047,3.7336,3.7575,3.7411,3.7336,3.7575,3.7613,3.7826,3.8391,3.8479,3.8567,3.8856,3.8881,3.8881,3.8881,3.8881,3.8881,3.8881,3.8881,3.8743,3.8467,3.8479,3.8178,3.7613,3.7613,0.0,0.0,0.0,0.0,3.7248,3.7487,3.7927,3.8504,3.8781,3.9057,3.9346,3.9584,3.9697,3.9697,3.9697,3.9697,3.9697,3.9697,3.9697,3.9697,3.9697,3.9697,3.9697,3.9697,3.9697,3.9697,3.9697,3.9534,3.9321,3.9321,3.9094,3.8881,3.8881,3.8881,3.8881,3.8881,3.8881,3.8881,3.8881,3.8881,3.8793,3.8529,3.799,3.7513,3.7261,3.6984,3.6708,3.6455,3.6405,3.6405,0.0,0.0,0.0,3.6405,3.6405,3.6405,3.6405,3.6405,3.6405,3.6405,3.6405,3.6405,3.6405,3.6405,3.6405,3.6405,3.6405,3.6405,3.6405,3.6405,3.6405,3.6405,3.6405,3.6405,3.6405,3.6405,3.6405,3.6405,3.6405,3.6405,3.6405,3.6405,3.6405,3.6405,3.6405,3.6405,3.6405,3.6733,3.7085,3.7386,3.7386,3.7713,3.8052,3.8165,3.8191,3.8191,3.8191,3.8191,3.8417,3.9007,3.907,3.9245,3.9647,3.9697,3.9697,3.9697,3.9697,3.9697,3.9697,3.9697,3.9484,3.9082,3.907,3.8793,3.8191,3.8191,3.8128,3.8002,0.0,0.0,3.8191,3.8191,3.8529,3.907,3.907,3.9321,3.9697,3.9697,3.9697,3.9697,3.9697,3.9697,3.9697,3.9697,3.9697,3.9697,3.9697,3.9697,3.9697,3.9697,3.9697,3.9697,3.9697,3.9697,3.9697,3.9697,3.9697,3.9697,3.9697,3.9697,3.9697,3.9697,3.9697,3.9697,3.9697,3.9697,3.9559,3.9158,3.8605,3.8052,3.7637,3.7374,3.706,3.662,3.648,3.6405,0.0,0.0,0.0,3.6405,3.6405,3.6405,3.6405,3.6405,3.6405,3.6405,3.6405,3.6405,3.6405,3.6405,3.6405,3.6405,3.6405,3.6405,3.6405,3.6405,3.6405,3.6405,3.6405,3.6405,3.6405,3.6405,3.6405,3.6405,3.6405,3.6405,3.6405,3.6405,3.6405,3.6405,3.6405,3.6405,3.6405,3.7852,3.7889,3.7939,3.7939,3.7977,3.8178,3.873,3.8818,3.8818,3.8818,3.8818,3.9019,3.9585,3.9622,3.9634,3.9685,3.9697,3.9697,3.9697,3.9697,3.9697,3.9697,3.9697,3.9672,3.9622,3.9622,3.9371,3.8818,3.8818,3.8555,3.8002,3.8002,3.8278,3.8818,3.8818,3.912,3.9622,3.9622,3.9647,3.9697,3.9697,3.9697,3.9697,3.9697,3.9697,3.9697,3.9697,3.9697,3.9697,3.9697,3.9697,3.9697,3.9697,3.9697,3.9697,3.9697,3.9697,3.9697,3.9697,3.9697,3.9697,3.9697,3.9697,3.9697,3.9697,3.9697,3.9697,3.9697,3.9697,3.9672,3.9622,3.9195,3.8806,3.8743,3.7876,3.7185,3.7135,3.6695,3.6405,3.6405,0.0,0.0,3.6405,3.6405,3.6405,3.6405,3.6405,3.6405,3.6405,3.6405,3.6405,3.6405,3.6405,3.6405,3.6405,3.6405,3.6405,3.6405,3.6405,3.6405,3.6405,3.6405,3.6405,3.6405,3.6405,3.6405,3.6405,3.6405,3.6405,3.6405,3.6405,3.6405,3.6405,3.6405,3.6405,3.6405,3.8002,3.8278,3.8555,3.8555,3.8793,3.9094,3.9333,3.9396,3.9396,3.9396,3.9396,3.9472,3.9672,3.9697,3.9697,3.9697,3.9697,3.9697,3.9697,3.9697,3.9697,3.9697,3.9697,3.9697,3.9697,3.9697,3.9584,3.9396,3.9396,3.9271,3.9019,3.9019,3.9145,3.9396,3.9396,3.9484,3.9697,3.9697,3.9697,3.9697,3.9697,3.9697,3.9697,3.9697,3.9697,3.9697,3.9697,3.9697,3.9697,3.9697,3.9697,3.9697,3.9697,3.9697,3.9697,3.9697,3.9697,3.9697,3.9697,3.9697,3.9697,3.9697,3.9697,3.9697,3.9697,3.9697,3.9697,3.9697,3.9697,3.9697,3.9697,3.9509,3.9283,3.8957,3.8517,3.8102,3.7726,3.7223,3.6884,3.6884,0.0,3.6405,3.6405,3.6405,3.6405,3.6405,3.6405,3.6405,3.6405,3.6405,3.6405,3.6405,3.6405,3.6405,3.6405,3.6405,3.6405,3.6405,3.6405,3.6405,3.6405,3.6405,3.6405,3.6405,3.6405,3.6405,3.6405,3.6405,3.6405,3.6405,3.6405,3.6405,3.6405,3.6405,3.6405,3.6405,3.8504,3.8831,3.9132,3.9132,3.9433,3.9697,3.9697,3.9697,3.9697,3.9697,3.9697,3.9697,3.9697,3.9697,3.9697,3.9697,3.9697,3.9697,3.9697,3.9697,3.9697,3.9697,3.9697,3.9697,3.9697,3.9697,3.9697,3.9697,3.9697,3.9697,3.9697,3.9697,3.9697,3.9697,3.9697,3.9697,3.9697,3.9697,3.9697,3.9697,3.9697,3.9697,3.9697,3.9697,3.9697,3.9697,3.9697,3.9697,3.9697,3.9697,3.9697,3.9697,3.9697,3.9697,3.9697,3.9697,3.9697,3.9697,3.9697,3.9697,3.9697,3.9697,3.9697,3.9697,3.9697,3.9697,3.9697,3.9697,3.9697,3.9697,3.9697,3.9697,3.9572,3.9208,3.9007,3.8756,3.8316,3.7776,3.7386,3.7223,3.6859,3.6557,3.643,3.6405,3.6405,3.6405,3.6405,3.6405,3.6405,3.6405,3.6405,3.6405,3.6405,3.6405,3.6405,3.6405,3.6405,3.6405,3.6405,3.6405,3.6405,3.6405,3.6405,3.6405,3.6405,3.6405,3.6405,3.6405,3.6405,3.6405,3.6405,3.6405,3.6405,3.6405,3.6405,3.6405,3.9672,3.9685,3.9685,3.9685,3.9685,3.9697,3.9697,3.9697,3.9697,3.9697,3.9697,3.9697,3.9697,3.9697,3.9697,3.9697,3.9697,3.9697,3.9697,3.9697,3.9697,3.9697,3.9697,3.9697,3.9697,3.9697,3.9697,3.9697,3.9697,3.9697,3.9697,3.9697,3.9697,3.9697,3.9697,3.9697,3.9697,3.9697,3.9697,3.9697,3.9697,3.9697,3.9697,3.9697,3.9697,3.9697,3.9697,3.9697,3.9697,3.9697,3.9697,3.9697,3.9697,3.9697,3.9697,3.9697,3.9697,3.9697,3.9697,3.9697,3.9697,3.9697,3.9697,3.9697,3.9697,3.9697,3.9697,3.9697,3.9697,3.9697,3.9697,3.9697,3.9697,3.9685,3.9258,3.8894,3.8881,3.8366,3.7789,3.7273,3.7198,3.6984,3.6455,3.6405,3.6405,3.6405,3.6405,3.6405,3.6405,3.6405,3.6405,3.6405,3.6405,3.6405,3.6405,3.6405,3.6405,3.6405,3.6405,3.6405,3.6405,3.6405,3.6405,3.6405,3.6405,3.6405,3.6405,3.6405,3.6405,3.6405,3.6405,3.6405,3.6405,3.6405,3.6405,3.6405,3.9697,3.9697,3.9697,3.9697,3.9697,3.9697,3.9697,3.9697,3.9697,3.9697,3.9697,3.9697,3.9697,3.9697,3.9697,3.9697,3.9697,3.9697,3.9697,3.9697,3.9697,3.9697,3.9697,3.9697,3.9697,3.9697,3.9697,3.9697,3.9697,3.9697,3.9697,3.9697,3.9697,3.9697,3.9697,3.9697,3.9697,3.9697,3.9697,3.9697,3.9697,3.9697,3.9697,3.9697,3.9697,3.9697,3.9697,3.9697,3.9697,3.9697,3.9697,3.9697,3.9697,3.9697,3.9697,3.9697,3.9697,3.9697,3.9697,3.9697,3.9697,3.9697,3.9697,3.9697,3.9697,3.9697,3.9697,3.9697,3.9697,3.9697,3.9697,3.9697,3.9697,3.9697,3.9546,3.9459,3.9459,3.8969,3.8555,3.8379,3.7675,3.7135,3.6959,3.6607,3.6405,3.6405,3.6405,3.6405,3.6405,3.6405,3.6405,3.6405,3.6405,3.6405,3.6405,3.6405,3.6405,3.6405,3.6405,3.6405,3.6405,3.6405,3.6405,3.6405,3.6405,3.6405,3.6405,3.6405,3.6405,3.6405,3.6405,3.6405,3.6405,3.6405,3.6405,3.6405,3.9697,3.9697,3.9697,3.9697,3.9697,3.9697,3.9697,3.9697,3.9697,3.9697,3.9697,3.9697,3.9697,3.9697,3.9697,3.9697,3.9697,3.9697,3.9697,3.9697,3.9697,3.9697,3.9697,3.9697,3.9697,3.9697,3.9697,3.9697,3.9697,3.9697,3.9697,3.9697,3.9697,3.9697,3.9697,3.9697,3.9697,3.9697,3.9697,3.9697,3.9697,3.9697,3.9697,3.9697,3.9697,3.9697,3.9697,3.9697,3.9697,3.9697,3.9697,3.9697,3.9697,3.9697,3.9697,3.9697,3.9697,3.9697,3.9697,3.9697,3.9697,3.9697,3.9697,3.9697,3.9697,3.9697,3.9697,3.9697,3.9697,3.9697,3.9697,3.9697,3.9697,3.9697,3.9697,3.9697,3.9697,3.9421,3.9132,3.8919,3.8266,3.7675,3.7248,3.6896,3.6607,3.643,3.6405,3.6405,3.6405,3.6405,3.6405,3.6405,3.6405,3.6405,3.6405,3.6405,3.6405,3.6405,3.6405,3.6405,3.6405,3.6405,3.6405,3.6405,3.6405,3.6405,3.6405,3.6405,3.6405,3.6405,3.6405,3.6405,3.6405,3.6405,3.6405,3.6405,3.9697,3.9697,3.9697,3.9697,3.9697,3.9697,3.9697,3.9697,3.9697,3.9697,3.9697,3.9697,3.9697,3.9697,3.9697,3.9697,3.9697,3.9697,3.9697,3.9697,3.9697,3.9697,3.9697,3.9697,3.9697,3.9697,3.9697,3.9697,3.9697,3.9697,3.9697,3.9697,3.9697,3.9697,3.9697,3.9697,3.9697,3.9697,3.9697,3.9697,3.9697,3.9697,3.9697,3.9697,3.9697,3.9697,3.9697,3.9697,3.9697,3.9697,3.9697,3.9697,3.9697,3.9697,3.9697,3.9697,3.9697,3.9697,3.9697,3.9697,3.9697,3.9697,3.9697,3.9697,3.9697,3.9697,3.9697,3.9697,3.9697,3.9697,3.9697,3.9697,3.9697,3.9697,3.9697,3.9697,3.9697,3.9697,3.9496,3.9007,3.8919,3.8479,3.7424,3.7286,3.7047,3.6545,3.6493,3.6468,3.6468,3.643,3.6405,3.6405,3.6405,3.6405,3.6405,3.6405,3.6405,3.6405,3.6405,3.6405,3.6405,3.6405,3.6405,3.6405,3.6405,3.6405,3.6405,3.6405,3.6405,3.6405,3.6405,3.6405,3.6405,3.6405,3.6405,3.6405,3.9697,3.9697,3.9697,3.9697,3.9697,3.9697,3.9697,3.9697,3.9697,3.9697,3.9697,3.9697,3.9697,3.9697,3.9697,3.9697,3.9697,3.9697,3.9697,3.9697,3.9697,3.9697,3.9697,3.9697,3.9697,3.9697,3.9697,3.9697,3.9697,3.9697,3.9697,3.9697,3.9697,3.9697,3.9697,3.9697,3.9697,3.9697,3.9697,3.9697,3.9697,3.9697,3.9697,3.9697,3.9697,3.9697,3.9697,3.9697,3.9697,3.9697,3.9697,3.9697,3.9697,3.9697,3.9697,3.9697,3.9697,3.9697,3.9697,3.9697,3.9697,3.9697,3.9697,3.9697,3.9697,3.9697,3.9697,3.9697,3.9697,3.9697,3.9697,3.9697,3.9697,3.9697,3.9697,3.9697,3.9697,3.9697,3.9647,3.9547,3.9158,3.8793,3.8517,3.8065,3.7764,3.7626,3.7248,3.7009,3.7009,3.6607,3.6405,3.6405,3.6405,3.6405,3.6405,3.6405,3.6405,3.6405,3.6405,3.6405,3.6405,3.6405,3.6405,3.6405,3.6405,3.6405,3.6405,3.6405,3.6405,3.6405,3.6405,3.6405,3.6405,3.6405,3.6405,3.6405,3.9697,3.9697,3.9697,3.9697,3.9697,3.9697,3.9697,3.9697,3.9697,3.9697,3.9697,3.9697,3.9697,3.9697,3.9697,3.9697,3.9697,3.9697,3.9697,3.9697,3.9697,3.9697,3.9697,3.9697,3.9697,3.9697,3.9697,3.9697,3.9697,3.9697,3.9697,3.9697,3.9697,3.9697,3.9697,3.9697,3.9697,3.9697,3.9697,3.9697,3.9697,3.9697,3.9697,3.9697,3.9697,3.9697,3.9697,3.9697,3.9697,3.9697,3.9697,3.9697,3.9697,3.9697,3.9697,3.9697,3.9697,3.9697,3.9697,3.9697,3.9697,3.9697,3.9697,3.9697,3.9697,3.9697,3.9697,3.9697,3.9697,3.9697,3.9697,3.9697,3.9697,3.9697,3.9697,3.9697,3.9697,3.9697,3.9697,3.9697,3.9433,3.917,3.8919,3.8605,3.8291,3.8027,3.7726,3.7563,3.7563,3.706,3.6645,3.6417,3.6405,3.6405,3.6405,3.6405,3.6405,3.6405,3.6405,3.6405,3.6405,3.6405,3.6405,3.6405,3.6405,3.6405,3.6405,3.6405,3.6405,3.6405,3.6405,3.6405,3.6405,3.6405,3.6405,3.6405,3.9697,3.9697,3.9697,3.9697,3.9697,3.9697,3.9697,3.9697,3.9697,3.9697,3.9697,3.9697,3.9697,3.9697,3.9697,3.9697,3.9697,3.9697,3.9697,3.9697,3.9697,3.9697,3.9697,3.9697,3.9697,3.9697,3.9697,3.9697,3.9697,3.9697,3.9697,3.9697,3.9697,3.9697,3.9697,3.9697,3.9697,3.9697,3.9697,3.9697,3.9697,3.9697,3.9697,3.9697,3.9697,3.9697,3.9697,3.9697,3.9697,3.9697,3.9697,3.9697,3.9697,3.9697,3.9697,3.9697,3.9697,3.9697,3.9697,3.9697,3.9697,3.9697,3.9697,3.9697,3.9697,3.9697,3.9697,3.9697,3.9697,3.9697,3.9697,3.9697,3.9697,3.9697,3.9697,3.9697,3.9697,3.9697,3.9697,3.9697,3.9697,3.9509,3.907,3.9019,3.8818,3.8304,3.8191,3.814,3.814,3.7613,3.7122,3.6645,3.6469,3.6455,3.6531,3.6531,3.6545,3.6632,3.6632,3.6632,3.6632,3.6545,3.6531,3.6531,3.6443,3.6405,3.6405,3.6405,3.6405,3.6405,3.6405,3.6405,3.6405,3.6405,3.6405,3.6405,3.9697,3.9697,3.9697,3.9697,3.9697,3.9697,3.9697,3.9697,3.9697,3.9697,3.9697,3.9697,3.9697,3.9697,3.9697,3.9697,3.9697,3.9697,3.9697,3.9697,3.9697,3.9697,3.9697,3.9697,3.9697,3.9697,3.9697,3.9697,3.9697,3.9697,3.9697,3.9697,3.9697,3.9697,3.9697,3.9697,3.9697,3.9697,3.9697,3.9697,3.9697,3.9697,3.9697,3.9697,3.9697,3.9697,3.9697,3.9697,3.9697,3.9697,3.9697,3.9697,3.9697,3.9697,3.9697,3.9697,3.9697,3.9697,3.9697,3.9697,3.9697,3.9697,3.9697,3.9697,3.9697,3.9697,3.9697,3.9697,3.9697,3.9697,3.9697,3.9697,3.9697,3.9697,3.9697,3.9697,3.9697,3.9697,3.9697,3.9697,3.9697,3.9659,3.9572,3.9597,3.9534,3.9433,3.9019,3.8756,3.8756,3.8191,3.7839,3.7751,3.6871,3.6607,3.7072,3.7085,3.7287,3.7751,3.7751,3.7751,3.7739,3.7286,3.7085,3.7047,3.6595,3.6405,3.6405,3.6405,3.6405,3.6405,3.6405,3.6405,3.6405,3.6405,3.6405,3.6405,3.9697,3.9697,3.9697,3.9697,3.9697,3.9697,3.9697,3.9697,3.9697,3.9697,3.9697,3.9697,3.9697,3.9697,3.9697,3.9697,3.9697,3.9697,3.9697,3.9697,3.9697,3.9697,3.9697,3.9697,3.9697,3.9697,3.9697,3.9697,3.9697,3.9697,3.9697,3.9697,3.9697,3.9697,3.9697,3.9697,3.9697,3.9697,3.9697,3.9697,3.9697,3.9697,3.9697,3.9697,3.9697,3.9697,3.9697,3.9697,3.9697,3.9697,3.9697,3.9697,3.9697,3.9697,3.9697,3.9697,3.9697,3.9697,3.9697,3.9697,3.9697,3.9697,3.9697,3.9697,3.9697,3.9697,3.9697,3.9697,3.9697,3.9697,3.9697,3.9697,3.9697,3.9697,3.9697,3.9697,3.9697,3.9697,3.9697,3.9697,3.9697,3.9697,3.9697,3.9697,3.9633,3.9504,3.9407,3.9269,3.9129,3.8718,3.8467,3.8467,3.77,3.7374,3.7626,3.7626,3.7751,3.8002,3.8002,3.8002,3.8002,3.7739,3.7626,3.76,3.7072,3.6833,3.6808,3.6531,3.6405,3.6405,3.6405,3.6405,3.6405,3.6405,3.6405,3.6405,3.9697,3.9697,3.9697,3.9697,3.9697,3.9697,3.9697,3.9697,3.9697,3.9697,3.9697,3.9697,3.9697,3.9697,3.9697,3.9697,3.9697,3.9697,3.9697,3.9697,3.9697,3.9697,3.9697,3.9697,3.9697,3.9697,3.9697,3.9697,3.9697,3.9697,3.9697,3.9697,3.9697,3.9697,3.9697,3.9697,3.9697,3.9697,3.9697,3.9697,3.9697,3.9697,3.9697,3.9697,3.9697,3.9697,3.9697,3.9697,3.9697,3.9697,3.9697,3.9697,3.9697,3.9697,3.9697,3.9697,3.9697,3.9697,3.9697,3.9697,3.9697,3.9697,3.9697,3.9697,3.9697,3.9697,3.9697,3.9697,3.9697,3.9697,3.9697,3.9697,3.9697,3.9697,3.9697,3.9697,3.9697,3.9697,3.9697,3.9697,3.9697,3.9697,3.9697,3.9697,3.9607,3.94,3.9581,3.962,3.94,3.9193,3.9057,3.8981,3.8354,3.8065,3.8203,3.8203,3.8266,3.8404,3.8404,3.8404,3.8391,3.8266,3.8203,3.8165,3.7475,3.721,3.7173,3.6607,3.6405,3.6405,3.6405,3.6405,3.6405,3.6405,3.6405,3.6405,3.9697,3.9697,3.9697,3.9697,3.9697,3.9697,3.9697,3.9697,3.9697,3.9697,3.9697,3.9697,3.9697,3.9697,3.9697,3.9697,3.9697,3.9697,3.9697,3.9697,3.9697,3.9697,3.9697,3.9697,3.9697,3.9697,3.9697,3.9697,3.9697,3.9697,3.9697,3.9697,3.9697,3.9697,3.9697,3.9697,3.9697,3.9697,3.9697,3.9697,3.9697,3.9697,3.9697,3.9697,3.9697,3.9697,3.9697,3.9697,3.9697,3.9697,3.9697,3.9697,3.9697,3.9697,3.9697,3.9697,3.9697,3.9697,3.9697,3.9697,3.9697,3.9697,3.9697,3.9697,3.9697,3.9697,3.9697,3.9697,3.9697,3.9697,3.9697,3.9697,3.9697,3.9697,3.9697,3.9697,3.9697,3.9697,3.9697,3.9697,3.9697,3.9697,3.9697,3.9697,3.9697,3.9671,3.9697,3.9697,3.9671,3.9659,3.9531,3.9286,3.8442,3.8266,3.8831,3.8831,3.9095,3.9572,3.9572,3.9572,3.9546,3.907,3.8831,3.8768,3.7688,3.721,3.7173,3.6607,3.6405,3.6405,3.6405,3.6405,3.6405,3.6405,3.6405,3.6405,3.9697,3.9697,3.9697,3.9697,3.9697,3.9697,3.9697,3.9697,3.9697,3.9697,3.9697,3.9697,3.9697,3.9697,3.9697,3.9697,3.9697,3.9633,3.9452,3.9452,3.953,3.9697,3.9697,3.9697,3.9697,3.9697,3.9697,3.9697,3.9697,3.9697,3.9697,3.9697,3.9697,3.9697,3.9697,3.9697,3.9697,3.9697,3.9697,3.9697,3.9697,3.9697,3.9697,3.9697,3.9697,3.9697,3.9697,3.9697,3.9697,3.9697,3.9697,3.9697,3.9697,3.9697,3.9697,3.9697,3.9697,3.9697,3.9697,3.9697,3.9697,3.9697,3.9697,3.9697,3.9697,3.9697,3.9697,3.9697,3.9697,3.9697,3.9697,3.9697,3.9697,3.9697,3.9697,3.9697,3.9697,3.9697,3.9697,3.9697,3.9555,3.9504,3.9685,3.9555,3.9452,3.9452,3.962,3.9633,3.9452,3.9452,3.94,3.9284,3.8771,3.8608,3.8856,3.9037,3.924,3.9452,3.9607,3.9697,3.9685,3.9484,3.9409,3.9333,3.8592,3.8052,3.7651,3.7122,3.6695,3.6405,3.6405,3.6405,3.6405,3.6405,3.6405,3.6405,3.9697,3.9697,3.9697,3.9697,3.9697,3.9697,3.9697,3.9697,3.9697,3.9697,3.9697,3.9697,3.9697,3.9697,3.9671,3.9581,3.9581,3.9452,3.9154,3.9128,3.927,3.9555,3.9671,3.9697,3.9697,3.9697,3.9697,3.9697,3.9697,3.9697,3.9697,3.9697,3.9697,3.9697,3.9697,3.9697,3.9697,3.9697,3.9697,3.9697,3.9697,3.9697,3.9697,3.9697,3.9697,3.9697,3.9697,3.9697,3.9697,3.9697,3.9697,3.9697,3.9697,3.9697,3.9697,3.9697,3.9697,3.9697,3.9697,3.9697,3.9697,3.9697,3.9697,3.9697,3.9697,3.9697,3.9697,3.9697,3.9697,3.9697,3.9697,3.9697,3.9697,3.9697,3.9697,3.9697,3.9697,3.9633,3.9581,3.9581,3.9322,3.9218,3.94,3.9258,3.9128,3.9128,3.9322,3.9348,3.9154,3.9128,3.9102,3.9024,3.8788,3.8619,3.8552,3.8945,3.9206,3.9284,3.9374,3.9504,3.9697,3.962,3.9581,3.9556,3.9107,3.8617,3.8079,3.7353,3.6912,3.6632,3.6362,3.6275,3.6275,3.6275,3.6228,3.6157,3.9697,3.9697,3.9697,3.9697,3.9697,3.9697,3.9697,3.9697,3.9697,3.9697,3.9697,3.9697,3.9697,3.9685,3.9594,3.9322,3.9284,3.9154,3.8815,3.8788,3.8945,3.9296,3.9555,3.9697,3.9697,3.9697,3.9697,3.9697,3.9697,3.9697,3.9697,3.9697,3.9697,3.9697,3.9697,3.9697,3.9697,3.9697,3.9697,3.9697,3.9697,3.9697,3.9697,3.9697,3.9697,3.9697,3.9697,3.9697,3.9697,3.9697,3.9697,3.9697,3.9697,3.9697,3.9697,3.9697,3.9697,3.9697,3.9697,3.9697,3.9697,3.9697,3.9697,3.9697,3.9697,3.9697,3.9697,3.9697,3.9697,3.9697,3.9697,3.9697,3.9697,3.9697,3.9697,3.9697,3.9697,3.9478,3.9284,3.9284,3.8998,3.8788,3.8788,3.8788,3.8788,3.8788,3.8788,3.8788,3.8788,3.8788,3.8684,3.8409,3.8409,3.8277,3.8012,3.8514,3.8971,3.9296,3.8971,3.9114,3.9685,3.9426,3.9284,3.9285,3.9005,3.8704,3.8301,3.7233,3.6956,3.7112,3.631,3.5992,3.5992,3.5992,3.5824,3.5596,3.9697,3.9697,3.9697,3.9697,3.9697,3.9697,3.9697,3.9697,3.9697,3.9697,3.953,3.9426,3.9426,3.9218,3.9036,3.8945,3.8945,3.8841,3.8552,3.8514,3.8566,3.8645,3.9154,3.9504,3.9697,3.9697,3.9697,3.9697,3.9697,3.9697,3.9697,3.9697,3.9697,3.9697,3.9697,3.9697,3.9697,3.9697,3.9697,3.9697,3.9697,3.9697,3.9697,3.9697,3.9697,3.9697,3.9697,3.9697,3.9697,3.9697,3.9697,3.9697,3.9697,3.9697,3.9697,3.9697,3.9697,3.9697,3.9697,3.9697,3.9697,3.9697,3.9697,3.9697,3.9697,3.9697,3.9697,3.9697,3.9697,3.9697,3.9697,3.9697,3.9697,3.9697,3.9697,3.9697,3.9697,3.9478,3.9284,3.9284,3.8841,3.8605,3.8788,3.8631,3.8605,3.8788,3.8788,3.8788,3.8788,3.8631,3.8488,3.8409,3.8224,3.8092,3.8012,3.8356,3.8566,3.8684,3.8762,3.8893,3.9076,3.8998,3.8945,3.8933,3.8863,3.8567,3.807,3.7368,3.6912,3.6578,3.595,3.5716,3.5716,3.5716,3.5668,3.5596,3.9348,3.9452,3.9504,3.9374,3.9452,3.9504,3.9374,3.9348,3.9348,3.9348,3.9206,3.9102,3.9102,3.8919,3.8762,3.8657,3.854,3.8409,3.825,3.825,3.8303,3.8409,3.8762,3.9128,3.953,3.953,3.9581,3.9697,3.9697,3.9697,3.9697,3.9697,3.9697,3.9697,3.9697,3.9697,3.9697,3.9697,3.9697,3.9697,3.9697,3.9697,3.9697,3.9697,3.9697,3.9697,3.9697,3.9697,3.9697,3.9697,3.9697,3.9697,3.9697,3.9697,3.9697,3.9697,3.9697,3.9697,3.9697,3.9697,3.9697,3.9697,3.9697,3.9697,3.9697,3.9697,3.9697,3.9697,3.9697,3.9697,3.9697,3.9697,3.9697,3.9697,3.9697,3.9671,3.9555,3.9296,3.905,3.8971,3.8514,3.8303,3.8473,3.833,3.8303,3.8473,3.8488,3.8488,3.8488,3.833,3.825,3.825,3.8092,3.8012,3.8012,3.8171,3.8303,3.8409,3.8473,3.8593,3.8788,3.8684,3.8631,3.8657,3.8762,3.8552,3.8107,3.7361,3.6909,3.6641,3.5794,3.544,3.544,3.544,3.5368,3.5271,3.8788,3.905,3.9154,3.8841,3.905,3.9154,3.8841,3.8788,3.8788,3.8788,3.8788,3.8762,3.8762,3.8736,3.8631,3.8382,3.8145,3.8012,3.8012,3.8012,3.8118,3.8356,3.8356,3.8619,3.9206,3.9258,3.9426,3.9697,3.9697,3.9697,3.9697,3.9697,3.9697,3.9697,3.9697,3.9697,3.9697,3.9697,3.9697,3.9697,3.9697,3.9697,3.9697,3.9697,3.9697,3.9697,3.9697,3.9697,3.9697,3.9697,3.9697,3.9697,3.9697,3.9697,3.9697,3.9697,3.9697,3.9685,3.9671,3.9671,3.9671,3.9645,3.9633,3.9671,3.9685,3.9697,3.9697,3.9697,3.9697,3.9697,3.9697,3.9697,3.9697,3.9697,3.9697,3.962,3.9348,3.8998,3.871,3.8435,3.8171,3.8012,3.8012,3.8012,3.8012,3.8012,3.8012,3.8012,3.8012,3.8012,3.8012,3.8012,3.8012,3.8012,3.8012,3.8012,3.8118,3.8356,3.8118,3.825,3.871,3.8488,3.8356,3.8382,3.8631,3.8605,3.8283,3.7251,3.6965,3.6995,3.5746,3.5223,3.5151,3.5151,3.5005,3.4799,3.8788,3.8867,3.8893,3.8815,3.8867,3.8893,3.8815,3.8788,3.8788,3.8788,3.8631,3.8488,3.8488,3.8303,3.8145,3.8092,3.8027,3.8012,3.8012,3.8012,3.8039,3.8092,3.8092,3.825,3.8593,3.905,3.9426,3.9697,3.9697,3.9697,3.9697,3.9697,3.9697,3.9697,3.9697,3.9697,3.9697,3.9697,3.9697,3.9697,3.9697,3.9697,3.9697,3.9697,3.9697,3.9697,3.9697,3.9697,3.9697,3.9697,3.9697,3.9697,3.9697,3.9697,3.9697,3.9697,3.9697,3.9659,3.9452,3.94,3.9322,3.9062,3.918,3.9452,3.9645,3.9697,3.9697,3.9697,3.9697,3.9697,3.9697,3.9697,3.9697,3.9697,3.9697,3.962,3.9348,3.8998,3.871,3.8435,3.8171,3.8012,3.8012,3.8012,3.8012,3.8012,3.8012,3.8012,3.8012,3.8012,3.8012,3.8012,3.8012,3.8012,3.8012,3.8012,3.8039,3.8092,3.8039,3.8065,3.8171,3.8118,3.8092,3.8092,3.8145,3.8145,3.8043,3.7392,3.6912,3.649,3.5801,3.527,3.4896,3.4896,3.4848,3.4799,3.8421,3.8514,3.8566,3.8435,3.8514,3.8579,3.8435,3.8421,3.8421,3.8421,3.8303,3.8224,3.8224,3.8092,3.8012,3.8012,3.8012,3.8012,3.8012,3.8012,3.8012,3.8012,3.8012,3.8118,3.8382,3.871,3.9076,3.9504,3.9504,3.9581,3.9697,3.9697,3.9697,3.9697,3.9697,3.9697,3.9697,3.9697,3.9697,3.9697,3.9697,3.9607,3.953,3.9645,3.9504,3.9296,3.9452,3.9504,3.953,3.9671,3.9607,3.953,3.9671,3.9504,3.9296,3.9452,3.94,3.9244,3.9102,3.905,3.9024,3.8841,3.8919,3.9128,3.9452,3.962,3.9671,3.953,3.9504,3.9452,3.9296,3.927,3.9322,3.9478,3.9374,3.9218,3.9076,3.8815,3.8526,3.825,3.8092,3.8012,3.8012,3.8012,3.8012,3.8012,3.8012,3.8012,3.8012,3.8012,3.8012,3.8012,3.8012,3.8012,3.8012,3.8012,3.8012,3.8012,3.8012,3.8012,3.8012,3.8012,3.8012,3.8012,3.8012,3.8012,3.7964,3.7409,3.7024,3.6699,3.5892,3.5424,3.5147,3.4895,3.4799,3.4799,3.8012,3.8171,3.825,3.8039,3.8171,3.825,3.8027,3.8012,3.8012,3.8012,3.8012,3.8012,3.8012,3.8012,3.8012,3.8012,3.8012,3.8012,3.8012,3.8012,3.8012,3.8012,3.8012,3.8092,3.833,3.833,3.8631,3.9206,3.9206,3.9322,3.9568,3.9607,3.9633,3.9633,3.9671,3.9697,3.9697,3.9697,3.9671,3.9633,3.9633,3.9452,3.9232,3.9452,3.9244,3.8841,3.9102,3.9206,3.9258,3.9478,3.94,3.9258,3.9478,3.9192,3.8841,3.9128,3.9024,3.8788,3.8736,3.8736,3.871,3.8684,3.871,3.8815,3.9076,3.9336,3.9478,3.9258,3.9206,3.9128,3.8841,3.8788,3.8893,3.918,3.8971,3.8788,3.8736,3.854,3.8303,3.8039,3.8012,3.8012,3.8012,3.8012,3.8012,3.8012,3.8012,3.8012,3.8012,3.8012,3.8012,3.8012,3.8012,3.8012,3.8012,3.8012,3.8012,3.8012,3.8012,3.8012,3.8012,3.8012,3.8012,3.8012,3.8012,3.8012,3.7976,3.7505,3.7276,3.7108,3.623,3.5648,3.5246,3.4513,3.425,3.425,3.8012,3.8039,3.8039,3.8012,3.8039,3.8039,3.8012,3.8012,3.8012,3.8012,3.8012,3.8012,3.8012,3.8012,3.8012,3.8012,3.8012,3.8012,3.8012,3.8012,3.8012,3.8012,3.8012,3.8012,3.8065,3.8065,3.833,3.8867,3.8867,3.8893,3.8919,3.9218,3.9336,3.9362,3.9594,3.9697,3.9697,3.9697,3.9555,3.9336,3.9336,3.9154,3.8867,3.8893,3.8867,3.8815,3.8841,3.8867,3.8867,3.8919,3.8893,3.8867,3.8919,3.8867,3.8815,3.8841,3.8841,3.8736,3.8514,3.8435,3.8409,3.8171,3.8277,3.8473,3.8514,3.8736,3.8919,3.8867,3.8867,3.8841,3.8815,3.8788,3.8815,3.8867,3.8815,3.871,3.8488,3.8409,3.8303,3.8039,3.8012,3.8012,3.8012,3.8012,3.8012,3.8012,3.8012,3.8012,3.8012,3.8012,3.8012,3.8012,3.8012,3.8012,3.8012,3.8012,3.8012,3.8012,3.8012,3.8012,3.8012,3.8012,3.8012,3.8012,3.8012,3.8012,3.8,3.7928,3.7627,3.718,3.7036,3.5863,3.4053,3.2566,3.2033,3.2033,3.8443,3.8202,3.8012,3.8012,3.8012,3.8012,3.8012,3.8012,3.8012,3.8012,3.8012,3.8012,3.8012,3.8012,3.8012,3.8012,3.8012,3.8012,3.8012,3.8012,3.8012,3.8012,3.8286,3.8443,3.8443,3.8743,3.8996,3.9252,3.9097,3.9257,3.9684,3.9537,3.9481,3.9468,3.9485,3.9478,3.9478,3.9478,3.94,3.9284,3.9102,3.8841,3.8605,3.8736,3.8605,3.8356,3.8514,3.8579,3.8605,3.8736,3.871,3.8605,3.8736,3.8593,3.8382,3.8514,3.8473,3.833,3.8224,3.8171,3.8145,3.8039,3.8092,3.8171,3.8171,3.8277,3.8409,3.8552,3.8579,3.8514,3.8382,3.8356,3.8409,3.8552,3.8435,3.8356,3.8409,3.8277,3.8145,3.8012,3.8012,3.8012,3.8012,3.8012,3.8012,3.8012,3.8012,3.8012,3.8012,3.8012,3.8012,3.8012,3.8012,3.8012,3.8012,3.8012,3.8012,3.8012,3.8012,3.8012,3.8012,3.8012,3.8012,3.8012,3.8012,3.8012,3.8012,3.8012,3.7459,3.6599,3.6321,3.4883,3.2901,3.22,3.1804,3.16]},{"header":{"parameterUnit":"m.s-1","parameterCategory":1,"la1":30.6,"la2":28.766,"lo1":-90.7593,"lo2":-88.6598,"dy":0.0162,"dx":0.0183,"nx":116,"ny":114,"refTime":"2023-11-21T06:00:00:Z","depth":0,"parameterNumber":3,"parameterNumberName":"V-component_of_WINDS"},"data":[0.0,0.0,0.0,0.0,0.0,0.0,0.0,0.0,0.0,0.0,0.0,0.0,0.0,0.0,0.0,0.0,0.0,0.0,0.0,0.0,0.0,0.0,0.0,0.0,0.0,0.0,0.0,0.0,0.0,0.0,0.0,0.0,0.0,0.0,0.0,0.0,0.0,0.0,0.0,0.0,0.0,0.0,0.0,0.0,0.0,0.0,0.0,0.0,0.0,0.0,0.0,0.0,0.0,0.0,0.0,0.0,0.0,0.0,0.0,0.0,0.0,0.0,0.0,0.0,0.0,0.0,0.0,0.0,0.0,0.0,0.0,0.0,0.0,0.0,0.0,0.0,0.0,0.0,0.0,0.0,0.0,0.0,0.0,0.0,0.0,0.0,0.0,0.0,0.0,0.0,0.0,0.0,0.0,0.0,0.0,0.0,0.0,0.0,0.0,0.0,0.0,0.0,0.0,0.0,0.0,0.0,0.0,0.0,0.0,0.0,0.0,0.0,0.0,0.0,0.0,0.0,0.0,0.0,0.0,0.0,0.0,0.0,0.0,0.0,0.0,0.0,0.0,0.0,0.0,0.0,0.0,0.0,0.0,0.0,0.0,0.0,0.0,0.0,0.0,0.0,0.0,0.0,0.0,0.0,0.0,0.0,0.0,0.0,0.0,0.0,0.0,0.0,0.0,0.0,0.0,0.0,0.0,0.0,0.0,0.0,0.0,0.0,0.0,0.0,0.0,0.0,0.0,0.0,0.0,0.0,0.0,0.0,0.0,0.0,0.0,0.0,0.0,0.0,0.0,0.0,0.0,0.0,0.0,0.0,0.0,0.0,0.0,0.0,0.0,0.0,0.0,0.0,0.0,0.0,0.0,0.0,0.0,0.0,0.0,0.0,0.0,0.0,0.0,0.0,0.0,0.0,0.0,0.0,0.0,0.0,0.0,0.0,0.0,0.0,0.0,0.0,0.0,0.0,0.0,0.0,0.0,0.0,0.0,0.0,0.0,0.0,0.0,0.0,0.0,0.0,0.0,0.0,0.0,0.0,0.0,0.0,0.0,0.0,0.0,0.0,0.0,0.0,0.0,0.0,0.0,0.0,0.0,0.0,0.0,0.0,0.0,0.0,0.0,0.0,0.0,0.0,0.0,0.0,0.0,0.0,0.0,0.0,0.0,0.0,0.0,0.0,0.0,0.0,0.0,0.0,0.0,0.0,0.0,0.0,0.0,0.0,0.0,0.0,0.0,0.0,0.0,0.0,0.0,0.0,0.0,0.0,0.0,0.0,0.0,0.0,0.0,0.0,0.0,0.0,0.0,0.0,0.0,0.0,0.0,0.0,0.0,0.0,0.0,0.0,0.0,0.0,0.0,0.0,0.0,0.0,0.0,0.0,0.0,0.0,0.0,0.0,0.0,0.0,0.0,0.0,0.0,0.0,0.0,0.0,0.0,0.0,0.0,0.0,0.0,0.0,0.0,0.0,0.0,0.0,0.0,0.0,0.0,0.0,0.0,0.0,0.0,0.0,0.0,0.0,0.0,0.0,0.0,0.0,0.0,0.0,0.0,0.0,0.0,0.0,0.0,0.0,0.0,0.0,0.0,0.0,0.0,0.0,0.0,0.0,0.0,0.0,0.0,0.0,0.0,0.0,0.0,0.0,0.0,0.0,0.0,0.0,0.0,0.0,0.0,0.0,0.0,0.0,0.0,0.0,0.0,0.0,0.0,0.0,0.0,0.0,0.0,0.0,0.0,0.0,0.0,0.0,0.0,0.0,0.0,0.0,0.0,0.0,0.0,0.0,0.0,0.0,0.0,0.0,0.0,0.0,0.0,0.0,0.0,0.0,0.0,0.0,0.0,0.0,0.0,0.0,0.0,0.0,0.0,0.0,0.0,0.0,0.0,0.0,0.0,0.0,0.0,0.0,0.0,0.0,0.0,0.0,0.0,0.0,0.0,0.0,0.0,0.0,0.0,0.0,0.0,0.0,0.0,0.0,0.0,0.0,0.0,0.0,0.0,0.0,0.0,0.0,0.0,0.0,0.0,0.0,0.0,0.0,0.0,0.0,0.0,0.0,0.0,0.0,0.0,0.0,0.0,0.0,0.0,0.0,0.0,0.0,0.0,0.0,0.0,0.0,0.0,0.0,0.0,0.0,0.0,0.0,0.0,0.0,0.0,0.0,0.0,0.0,0.0,0.0,0.0,0.0,0.0,0.0,0.0,0.0,0.0,0.0,0.0,0.0,0.0,0.0,0.0,0.0,0.0,0.0,0.0,0.0,0.0,0.0,0.0,0.0,0.0,0.0,0.0,0.0,0.0,0.0,0.0,0.0,0.0,0.0,0.0,0.0,0.0,0.0,0.0,0.0,0.0,0.0,0.0,0.0,0.0,0.0,0.0,0.0,0.0,0.0,0.0,0.0,0.0,0.0,0.0,0.0,0.0,0.0,0.0,0.0,0.0,0.0,0.0,0.0,0.0,0.0,0.0,0.0,0.0,0.0,0.0,0.0,0.0,0.0,0.0,0.0,0.0,0.0,0.0,0.0,0.0,0.0,0.0,0.0,0.0,0.0,0.0,0.0,0.0,0.0,0.0,0.0,0.0,0.0,0.0,0.0,0.0,0.0,0.0,0.0,0.0,0.0,0.0,0.0,0.0,0.0,0.0,0.0,0.0,0.0,0.0,0.0,0.0,0.0,0.0,0.0,0.0,0.0,0.0,0.0,0.0,0.0,0.0,0.0,0.0,0.0,0.0,0.0,0.0,0.0,0.0,0.0,0.0,0.0,0.0,0.0,0.0,0.0,0.0,0.0,0.0,0.0,0.0,0.0,0.0,0.0,0.0,0.0,0.0,0.0,0.0,0.0,0.0,0.0,0.0,0.0,0.0,0.0,0.0,0.0,0.0,0.0,0.0,0.0,0.0,0.0,0.0,0.0,0.0,0.0,0.0,0.0,0.0,0.0,0.0,0.0,0.0,0.0,0.0,0.0,0.0,0.0,0.0,0.0,0.0,0.0,0.0,0.0,0.0,0.0,0.0,0.0,0.0,0.0,0.0,0.0,0.0,0.0,0.0,0.0,0.0,0.0,0.0,0.0,0.0,0.0,0.0,0.0,0.0,0.0,0.0,0.0,0.0,0.0,0.0,0.0,0.0,0.0,0.0,0.0,0.0,0.0,0.0,0.0,0.0,0.0,0.0,0.0,0.0,0.0,0.0,0.0,0.0,0.0,0.0,0.0,0.0,0.0,0.0,0.0,0.0,0.0,0.0,0.0,0.0,0.0,0.0,0.0,0.0,0.0,0.0,0.0,0.0,0.0,0.0,0.0,0.0,0.0,0.0,0.0,0.0,0.0,0.0,0.0,0.0,0.0,0.0,0.0,0.0,0.0,0.0,0.0,0.0,0.0,0.0,0.0,0.0,0.0,0.0,0.0,0.0,0.0,0.0,0.0,0.0,0.0,0.0,0.0,0.0,0.0,0.0,0.0,0.0,0.0,0.0,0.0,0.0,0.0,0.0,0.0,0.0,0.0,0.0,0.0,0.0,0.0,0.0,0.0,0.0,0.0,0.0,0.0,0.0,0.0,0.0,0.0,0.0,0.0,0.0,0.0,0.0,0.0,0.0,0.0,0.0,0.0,0.0,0.0,0.0,0.0,0.0,0.0,0.0,0.0,0.0,0.0,0.0,0.0,0.0,0.0,0.0,0.0,0.0,0.0,0.0,0.0,0.0,0.0,0.0,0.0,0.0,0.0,0.0,0.0,0.0,0.0,0.0,0.0,0.0,0.0,0.0,0.0,0.0,0.0,0.0,0.0,0.0,0.0,0.0,0.0,0.0,0.0,0.0,0.0,0.0,0.0,0.0,0.0,0.0,0.0,0.0,0.0,0.0,0.0,0.0,0.0,0.0,0.0,0.0,0.0,0.0,0.0,0.0,0.0,0.0,0.0,0.0,0.0,0.0,0.0,0.0,0.0,0.0,0.0,0.0,0.0,0.0,0.0,0.0,0.0,0.0,0.0,0.0,0.0,0.0,0.0,0.0,0.0,0.0,0.0,0.0,0.0,0.0,0.0,0.0,0.0,0.0,0.0,0.0,0.0,0.0,0.0,0.0,0.0,0.0,0.0,0.0,0.0,0.0,0.0,0.0,0.0,0.0,0.0,0.0,0.0,0.0,0.0,0.0,0.0,0.0,0.0,0.0,0.0,0.0,0.0,0.0,0.0,0.0,0.0,0.0,0.0,0.0,0.0,0.0,0.0,0.0,0.0,0.0,0.0,0.0,0.0,0.0,0.0,0.0,0.0,0.0,0.0,0.0,0.0,0.0,0.0,0.0,0.0,0.0,0.0,0.0,0.0,0.0,0.0,0.0,0.0,0.0,0.0,0.0,0.0,0.0,0.0,0.0,0.0,0.0,0.0,0.0,0.0,0.0,0.0,0.0,0.0,0.0,0.0,0.0,0.0,0.0,0.0,0.0,0.0,0.0,0.0,0.0,0.0,0.0,0.0,0.0,0.0,0.0,0.0,0.0,0.0,0.0,0.0,0.0,0.0,0.0,0.0,0.0,0.0,0.0,0.0,0.0,0.0,0.0,0.0,0.0,0.0,0.0,0.0,0.0,0.0,0.0,0.0,0.0,0.0,0.0,0.0,0.0,0.0,0.0,0.0,0.0,0.0,0.0,0.0,0.0,0.0,0.0,0.0,0.0,0.0,0.0,0.0,0.0,0.0,0.0,0.0,0.0,0.0,0.0,0.0,0.0,0.0,0.0,0.0,0.0,0.0,0.0,0.0,0.0,0.0,0.0,0.0,0.0,0.0,0.0,0.0,0.0,0.0,0.0,0.0,0.0,0.0,0.0,0.0,0.0,0.0,0.0,0.0,0.0,0.0,0.0,0.0,0.0,0.0,0.0,0.0,0.0,0.0,0.0,0.0,0.0,0.0,0.0,0.0,0.0,0.0,0.0,0.0,0.0,0.0,0.0,0.0,0.0,0.0,0.0,0.0,0.0,0.0,0.0,0.0,0.0,0.0,0.0,0.0,0.0,0.0,0.0,0.0,0.0,0.0,0.0,0.0,0.0,0.0,0.0,0.0,0.0,0.0,0.0,0.0,0.0,0.0,0.0,0.0,0.0,0.0,0.0,0.0,0.0,0.0,0.0,0.0,0.0,0.0,0.0,0.0,0.0,0.0,0.0,0.0,0.0,0.0,0.0,0.0,0.0,0.0,0.0,0.0,0.0,0.0,0.0,0.0,0.0,0.0,0.0,0.0,0.0,0.0,0.0,0.0,0.0,0.0,0.0,0.0,0.0,0.0,0.0,0.0,0.0,0.0,0.0,0.0,0.0,0.0,0.0,0.0,0.0,0.0,0.0,0.0,0.0,0.0,0.0,0.0,0.0,0.0,0.0,0.0,0.0,0.0,0.0,0.0,0.0,0.0,0.0,0.0,0.0,0.0,0.0,0.0,0.0,0.0,0.0,0.0,0.0,0.0,0.0,0.0,0.0,0.0,0.0,0.0,0.0,0.0,0.0,0.0,0.0,0.0,0.0,0.0,0.0,0.0,0.0,0.0,0.0,0.0,0.0,0.0,0.0,0.0,0.0,0.0,0.0,0.0,0.0,0.0,0.0,0.0,0.0,0.0,0.0,0.0,0.0,0.0,0.0,0.0,0.0,0.0,0.0,0.0,0.0,0.0,0.0,0.0,0.0,0.0,0.0,0.0,0.0,0.0,0.0,0.0,0.0,0.0,0.0,0.0,0.0,0.0,0.0,0.0,0.0,0.0,0.0,0.0,0.0,0.0,0.0,0.0,0.0,0.0,0.0,0.0,0.0,0.0,0.0,0.0,0.0,0.0,0.0,0.0,0.0,0.0,0.0,0.0,0.0,0.0,0.0,0.0,0.0,0.0,0.0,0.0,0.0,0.0,0.0,0.0,0.0,0.0,0.0,0.0,0.0,0.0,0.0,0.0,0.0,0.0,0.0,0.0,0.0,0.0,0.0,0.0,0.0,0.0,0.0,0.0,0.0,0.0,0.0,0.0,0.0,0.0,0.0,0.0,0.0,0.0,0.0,0.0,0.0,0.0,0.0,0.0,0.0,0.0,0.0,0.0,0.0,0.0,0.0,0.0,1.7613,1.7314,0.0,0.0,0.0,0.0,0.0,0.0,0.0,0.0,0.0,0.0,0.0,0.0,0.0,0.0,0.0,0.0,0.0,0.0,0.0,0.0,0.0,0.0,0.0,0.0,0.0,0.0,0.0,0.0,0.0,0.0,0.0,0.0,0.0,0.0,0.0,0.0,0.0,0.0,0.0,0.0,0.0,0.0,0.0,0.0,0.0,0.0,0.0,0.0,0.0,0.0,0.0,0.0,0.0,0.0,0.0,0.0,0.0,0.0,0.0,0.0,0.0,0.0,0.0,0.0,0.0,0.0,0.0,0.0,0.0,0.0,0.0,0.0,0.0,0.0,0.0,0.0,0.0,0.0,0.0,0.0,0.0,0.0,0.0,0.0,0.0,0.0,0.0,0.0,0.0,0.0,0.0,0.0,0.0,0.0,0.0,0.0,0.0,0.0,0.0,0.0,0.0,0.0,0.0,0.0,0.0,0.0,0.0,0.0,0.0,0.0,0.0,0.0,0.0,0.0,1.8127,1.7868,0.0,0.0,0.0,0.0,0.0,0.0,0.0,0.0,0.0,0.0,0.0,0.0,0.0,0.0,0.0,0.0,0.0,0.0,0.0,0.0,0.0,0.0,0.0,2.3469,2.3153,2.3153,2.2723,2.2447,2.2489,2.2076,2.1838,2.1838,2.136,2.0803,2.0228,2.0196,1.9902,1.9294,0.0,0.0,0.0,0.0,0.0,0.0,0.0,0.0,0.0,0.0,0.0,0.0,0.0,0.0,0.0,0.0,0.0,0.0,0.0,0.0,0.0,0.0,0.0,0.0,0.0,0.0,0.0,0.0,0.0,0.0,0.0,0.0,0.0,0.0,0.0,0.0,0.0,0.0,0.0,0.0,0.0,0.0,0.0,0.0,0.0,0.0,0.0,0.0,0.0,0.0,0.0,0.0,0.0,0.0,0.0,0.0,0.0,0.0,0.0,0.0,0.0,0.0,0.0,0.0,0.0,0.0,0.0,0.0,0.0,0.0,1.9281,1.9274,1.9259,1.9259,1.937,1.9563,1.9026,1.8763,1.8685,1.8151,0.0,0.0,0.0,0.0,0.0,0.0,0.0,0.0,0.0,0.0,0.0,0.0,0.0,0.0,0.0,0.0,0.0,0.0,0.0,0.0,0.0,2.3405,2.3358,2.3358,2.3135,2.3067,2.3244,2.3183,2.3145,2.3145,2.3058,2.2909,2.2643,2.2092,2.1744,2.1651,0.0,0.0,2.1822,2.1144,2.0885,2.0933,2.0274,0.0,0.0,0.0,0.0,0.0,0.0,0.0,0.0,0.0,0.0,0.0,0.0,0.0,0.0,0.0,0.0,0.0,0.0,0.0,0.0,0.0,0.0,0.0,0.0,0.0,0.0,0.0,0.0,0.0,0.0,0.0,0.0,0.0,0.0,0.0,0.0,0.0,0.0,0.0,0.0,0.0,0.0,0.0,2.1655,2.0145,0.0,0.0,0.0,0.0,0.0,0.0,0.0,0.0,0.0,0.0,0.0,0.0,0.0,1.9247,1.9305,1.9305,1.9658,2.0381,2.0381,2.0781,2.1482,2.1482,2.164,2.1889,2.0788,0.0,1.9181,1.8933,0.0,0.0,0.0,0.0,0.0,0.0,0.0,0.0,0.0,0.0,0.0,0.0,0.0,0.0,0.0,0.0,0.0,0.0,0.0,0.0,0.0,2.4609,2.4379,2.4307,2.3972,2.378,2.3793,2.3554,2.3403,2.3403,2.3403,2.3225,2.2829,2.272,2.2659,2.2659,2.2283,2.2101,2.2098,2.1412,2.1298,2.1632,2.0953,2.0613,2.0516,2.0226,0.0,0.0,0.0,0.0,0.0,0.0,0.0,0.0,0.0,0.0,0.0,0.0,0.0,0.0,0.0,0.0,0.0,0.0,0.0,0.0,0.0,0.0,0.0,0.0,0.0,0.0,0.0,0.0,0.0,0.0,0.0,0.0,0.0,0.0,0.0,0.0,0.0,0.0,0.0,2.1714,2.104,2.0853,2.1264,2.1321,0.0,0.0,0.0,0.0,0.0,0.0,0.0,0.0,0.0,2.0609,2.0454,2.0498,2.0772,2.1249,2.1674,2.2078,2.2552,2.2996,2.3364,2.3364,2.3439,2.3554,2.3028,2.2576,2.2058,2.0011,1.9151,1.9214,0.0,0.0,0.0,0.0,1.9679,1.8975,0.0,0.0,0.0,0.0,0.0,0.0,0.0,0.0,0.0,0.0,0.0,0.0,2.5851,2.5495,2.5203,2.5105,2.478,2.4552,2.4481,2.4015,2.3734,2.3734,2.3611,2.3318,2.2874,2.3065,2.3168,2.3168,2.2631,2.2359,2.2344,2.1663,2.1616,2.207,2.1408,2.0917,2.0602,2.0436,2.0355,0.0,0.0,0.0,0.0,0.0,0.0,0.0,0.0,0.0,0.0,0.0,0.0,0.0,0.0,0.0,0.0,0.0,0.0,0.0,0.0,0.0,0.0,0.0,0.0,0.0,0.0,0.0,0.0,0.0,0.0,0.0,0.0,0.0,0.0,0.0,0.0,0.0,0.0,2.1617,2.1091,2.1663,2.212,2.2308,0.0,0.0,0.0,0.0,0.0,0.0,2.2099,2.2156,2.2247,2.2337,2.2145,2.2211,2.2574,2.3203,2.3598,2.3714,2.4366,2.4719,2.484,2.484,2.4904,2.4981,2.4763,2.4737,2.4573,2.1641,2.035,2.0285,2.109,2.086,2.0114,2.0958,2.0755,2.0052,0.0,0.0,0.0,0.0,0.0,0.0,0.0,0.0,0.0,0.0,0.0,2.5384,2.5259,2.5328,2.5384,2.5384,2.5356,2.5398,2.5522,2.4965,2.4624,2.4624,2.4157,2.376,2.3541,2.3435,2.3388,2.3388,2.3153,2.3047,2.3047,2.2359,2.2067,2.207,2.1408,2.1428,2.1947,2.1329,2.1056,2.1056,0.0,0.0,0.0,0.0,0.0,0.0,0.0,0.0,0.0,0.0,0.0,0.0,0.0,0.0,0.0,0.0,0.0,0.0,0.0,0.0,0.0,0.0,0.0,0.0,0.0,0.0,0.0,0.0,0.0,0.0,0.0,0.0,0.0,0.0,0.0,0.0,0.0,0.0,0.0,2.267,2.3261,0.0,0.0,0.0,0.0,2.3727,2.4588,2.4761,2.4003,2.4929,2.5131,2.4382,2.4344,2.4358,2.4379,2.4419,2.4648,2.5107,2.5148,2.5357,2.5733,2.5733,2.5945,2.6262,2.5491,2.5356,2.5535,2.4083,2.3468,2.3482,2.3792,2.3458,2.2845,2.321,2.2835,2.2092,0.0,0.0,0.0,0.0,0.0,0.0,0.0,0.0,2.6629,2.6669,2.6458,2.6378,2.659,2.6498,2.6458,2.655,2.6203,2.6001,2.6055,2.5563,2.5273,2.5273,2.4723,2.416,2.3613,2.3465,2.3403,2.3403,2.3198,2.3296,2.3675,2.3418,2.3325,2.3294,2.2611,2.2234,2.207,2.1838,2.1491,2.1139,2.1569,2.1239,0.0,0.0,0.0,0.0,0.0,0.0,0.0,0.0,0.0,0.0,0.0,0.0,0.0,0.0,0.0,0.0,0.0,0.0,0.0,0.0,0.0,0.0,0.0,0.0,0.0,0.0,0.0,0.0,0.0,0.0,0.0,0.0,0.0,0.0,0.0,0.0,0.0,2.3741,2.4049,0.0,2.4381,2.4454,2.4651,2.5001,2.4875,2.466,2.4374,2.5001,2.5249,2.4969,2.5193,2.5337,2.5337,2.5938,2.6323,2.6493,2.7051,2.7397,2.7539,2.7539,2.7619,2.7735,2.7444,2.7398,2.7435,2.662,2.5446,2.429,2.4892,2.4653,2.4037,2.4687,2.4412,2.3653,0.0,0.0,0.0,0.0,0.0,0.0,0.0,0.0,2.7321,2.7323,2.7144,2.7067,2.7248,2.7198,2.717,2.7258,2.6945,2.6747,2.6747,2.6256,2.5973,2.5973,2.5147,2.4408,2.3776,2.3569,2.3567,2.3742,2.3563,2.3746,2.4264,2.4264,2.4264,2.4249,2.3799,2.3273,2.2744,2.2744,2.2247,2.1502,2.216,2.1912,2.116,0.0,0.0,0.0,0.0,0.0,0.0,0.0,0.0,0.0,0.0,0.0,0.0,0.0,0.0,0.0,0.0,0.0,0.0,0.0,0.0,0.0,0.0,0.0,0.0,0.0,0.0,0.0,0.0,0.0,0.0,0.0,0.0,0.0,0.0,0.0,2.4527,2.4961,2.5097,2.5329,2.5787,2.5676,2.5725,2.6068,2.578,2.5579,2.5579,2.6055,2.6307,2.6307,2.6583,2.67,2.67,2.7328,2.7644,2.7664,2.8219,2.849,2.849,2.849,2.849,2.849,2.849,2.849,2.8466,2.8118,2.7129,2.5873,2.6039,2.5785,2.5368,2.59,2.5766,2.5231,0.0,0.0,0.0,0.0,0.0,0.0,0.0,2.76,2.7499,2.7258,2.731,2.7299,2.7042,2.7235,2.7401,2.7414,2.7526,2.76,2.76,2.7049,2.6723,2.6709,2.5425,2.455,2.4153,2.3802,2.3878,2.4425,2.4299,2.4435,2.4813,2.4813,2.4813,2.4813,2.4813,2.4528,2.4017,2.4017,2.3294,2.2214,2.2854,2.3093,2.3078,0.0,0.0,0.0,0.0,0.0,0.0,0.0,0.0,0.0,0.0,0.0,0.0,0.0,0.0,0.0,0.0,0.0,0.0,0.0,0.0,0.0,0.0,0.0,0.0,0.0,0.0,0.0,0.0,0.0,0.0,0.0,0.0,0.0,2.5503,2.5254,2.549,2.6359,2.6438,2.656,2.6899,2.6922,2.6922,2.6946,2.7433,2.7721,2.7721,2.8214,2.849,2.849,2.849,2.849,2.849,2.849,2.849,2.849,2.849,2.851,2.853,2.853,2.855,2.8558,2.8558,2.8558,2.8558,2.8558,2.8558,2.8422,2.7361,2.6946,2.6946,2.6946,2.6934,2.6837,0.0,0.0,0.0,0.0,0.0,0.0,2.76,2.7526,2.7463,2.7486,2.7361,2.7297,2.7425,2.7335,2.7335,2.7524,2.7488,2.7501,2.76,2.7433,2.7165,2.6723,2.5824,2.5338,2.5326,2.4612,2.4528,2.5048,2.4919,2.5022,2.5385,2.5385,2.5385,2.5385,2.5385,2.508,2.4578,2.4578,2.4157,2.3455,2.3195,2.2811,2.2433,0.0,0.0,0.0,0.0,0.0,0.0,0.0,0.0,0.0,0.0,0.0,0.0,0.0,0.0,0.0,0.0,0.0,0.0,0.0,0.0,0.0,0.0,0.0,0.0,0.0,0.0,0.0,0.0,0.0,0.0,0.0,0.0,2.8354,2.7083,2.6661,2.6746,2.7467,2.7216,2.718,2.7638,2.7577,2.7649,2.8022,2.819,2.8274,2.8274,2.8406,2.849,2.849,2.849,2.849,2.849,2.849,2.849,2.849,2.849,2.8816,2.9367,2.9367,2.9684,3.0234,3.0234,3.0234,3.0234,3.0234,2.9903,2.9284,2.839,2.8058,2.8058,2.8058,2.7818,2.7469,0.0,0.0,0.0,0.0,0.0,0.0,2.76,2.7524,2.7488,2.7514,2.7423,2.7412,2.7514,2.7423,2.7435,2.7587,2.7539,2.7526,2.76,2.76,2.7465,2.7126,2.6641,2.6343,2.6214,2.5673,2.5501,2.5762,2.5601,2.5703,2.6051,2.6001,2.5979,2.5979,2.5979,2.5649,2.513,2.513,2.4829,2.4277,2.3712,2.3095,2.2555,2.2959,2.3108,2.3108,2.3108,2.3108,2.3108,2.3108,0.0,0.0,0.0,0.0,0.0,0.0,0.0,0.0,0.0,0.0,0.0,0.0,0.0,0.0,0.0,0.0,0.0,0.0,0.0,0.0,0.0,0.0,0.0,0.0,2.9607,2.9395,2.8842,2.8264,2.8239,2.9118,2.888,2.8834,2.9296,2.9309,2.9199,2.9023,2.9086,2.8941,2.853,2.849,2.849,2.849,2.849,2.8657,2.8988,2.8988,2.9184,2.9523,2.9523,2.9762,3.0209,3.0209,3.0462,3.0895,3.0895,3.0895,3.0895,3.0895,3.0632,3.0133,0.0,0.0,0.0,0.0,2.8298,2.7998,0.0,0.0,0.0,0.0,0.0,0.0,2.76,2.76,2.7562,2.7437,2.7539,2.7549,2.744,2.7539,2.76,2.76,2.76,2.76,2.76,2.76,2.7667,2.78,2.7542,2.7287,2.7006,2.6678,2.6467,2.6394,2.6141,2.6207,2.6519,2.6396,2.6328,2.6311,2.6311,2.603,2.5598,2.5598,2.5335,2.4854,2.4368,2.3788,2.3195,2.3133,2.3108,2.3108,2.3108,2.3108,2.3108,2.3108,0.0,0.0,0.0,0.0,0.0,0.0,0.0,0.0,0.0,0.0,0.0,0.0,0.0,0.0,0.0,0.0,0.0,0.0,0.0,0.0,0.0,0.0,0.0,0.0,2.9772,3.004,3.0646,3.0105,2.9994,3.0941,3.0927,3.0948,3.1238,3.1407,3.1055,2.998,3.0063,2.9768,2.8843,0.0,0.0,0.0,0.0,2.9106,2.9826,2.9839,3.019,3.0895,3.0895,3.0951,3.1044,3.1044,3.1068,3.1175,3.1175,3.1175,3.1175,3.1175,3.1119,3.0951,3.0056,2.925,2.8618,2.853,2.849,2.8418,0.0,0.0,0.0,0.0,0.0,0.0,2.76,2.76,2.76,2.7562,2.7587,2.76,2.7562,2.7587,2.76,2.76,2.76,2.76,2.76,2.76,2.7848,2.839,2.7419,2.727,2.814,2.6722,2.6099,2.6394,2.5871,2.5512,2.5333,2.5301,2.5232,2.513,2.513,2.5293,2.5598,2.5598,2.5536,2.5435,2.5322,2.4707,2.3763,2.3283,2.3108,2.3108,2.3108,2.3108,2.3108,2.3108,2.3108,2.3183,2.3675,0.0,0.0,0.0,0.0,0.0,0.0,0.0,0.0,0.0,0.0,0.0,0.0,0.0,0.0,0.0,0.0,0.0,0.0,0.0,0.0,3.0432,3.0805,3.1352,3.2016,3.2291,3.2328,3.2067,3.1773,3.162,3.1691,3.1568,3.1407,3.1167,3.1185,3.1055,3.0694,3.0676,3.06,3.0443,3.0437,3.05,3.067,3.067,3.0745,3.0895,3.0895,0.0,3.1874,3.1874,3.2227,3.2838,3.2838,3.2838,3.2838,3.2838,3.2457,3.1728,3.0266,2.9607,2.9387,2.8736,2.849,2.8498,0.0,0.0,0.0,0.0,0.0,0.0,2.76,2.76,2.76,2.76,2.76,2.76,2.76,2.76,2.76,2.76,2.76,2.76,0.0,2.7914,2.8395,2.9071,2.8782,2.8598,2.8605,2.7705,2.6874,2.6096,2.5705,2.5421,2.5259,2.518,2.51,2.5049,2.4952,2.5091,2.5454,2.5568,2.5665,2.5744,2.5648,2.5121,2.434,2.3775,2.3358,2.3108,2.3108,2.3296,2.3549,2.3549,2.3738,2.3998,2.4302,2.439,2.452,0.0,0.0,0.0,0.0,0.0,0.0,0.0,0.0,0.0,0.0,0.0,0.0,0.0,0.0,3.0598,0.0,0.0,3.0598,3.0598,3.1105,3.1728,3.2409,3.2999,3.3357,3.3345,3.3111,3.2942,3.2942,3.2946,3.2702,3.2128,3.2459,3.2402,3.1696,3.1968,3.2064,3.1854,3.1834,3.2083,3.2595,3.2595,3.2838,3.3353,3.3353,3.3514,3.3802,3.3802,3.3962,3.4225,3.3898,3.374,3.3726,3.342,3.3051,3.2583,3.1378,3.067,3.0209,2.9406,2.9106,2.9047,0.0,0.0,0.0,0.0,0.0,0.0,0.0,2.7884,2.7794,2.7794,2.7675,2.76,2.76,2.76,2.76,2.76,2.76,2.76,0.0,2.8111,2.8757,2.9577,2.9933,2.9796,2.9072,2.8577,2.7565,2.5985,2.5483,2.5224,2.5192,2.5083,2.5005,2.4958,2.4798,2.488,2.5134,2.5422,2.5676,2.5889,2.5841,2.5481,2.4904,2.4481,2.3876,2.3283,2.3396,2.3735,2.4155,2.4155,2.444,2.4829,2.4929,2.4954,2.5028,2.5408,2.589,0.0,0.0,0.0,0.0,0.0,0.0,0.0,0.0,0.0,3.0598,3.0598,3.0598,3.0598,3.0598,3.0598,3.0641,3.0757,3.1293,3.1931,3.2598,3.3269,3.3864,3.4339,3.4247,3.4162,3.4162,3.4312,3.4068,3.3279,3.3834,3.3802,3.2917,3.3384,3.3576,3.3397,3.3377,3.3763,3.4588,3.4588,3.4994,3.579,3.579,3.5717,3.5571,3.5571,3.5479,3.529,3.4741,3.4442,3.4287,3.3779,3.3512,3.3347,3.2708,3.2051,3.136,3.0323,2.9922,2.9819,0.0,0.0,0.0,0.0,0.0,0.0,0.0,0.0,2.8487,2.8487,2.7974,2.76,2.76,2.76,2.76,2.76,2.76,0.0,2.76,2.766,2.8289,2.9533,2.9087,2.929,3.0274,2.8143,2.6902,2.6683,2.5063,2.419,2.4072,2.4057,2.3968,2.3793,2.3776,2.4029,2.4528,2.5106,2.5549,2.5944,2.6388,2.6148,2.5498,2.5435,2.4782,2.3966,2.444,2.4653,2.4716,2.4716,2.4754,2.4879,2.536,2.5511,2.5851,2.7575,0.0,2.8507,2.9895,3.0286,3.0301,3.0463,3.0538,3.0598,0.0,0.0,3.0598,3.0598,3.0598,3.0598,3.0598,3.0598,3.0771,3.1307,3.196,3.2613,3.3284,3.3906,3.431,3.4382,3.438,3.438,3.438,3.4397,3.4595,3.5074,3.5175,3.5344,3.5535,3.5635,3.5601,3.5465,3.5451,3.552,3.5644,3.5644,3.5699,3.579,3.579,3.579,3.5772,3.5772,3.5753,3.5735,3.5646,3.5275,3.4732,3.4658,3.4315,3.3813,3.3727,3.3643,3.3333,3.1452,3.0764,3.0651,0.0,0.0,0.0,0.0,0.0,0.0,0.0,0.0,0.0,2.9189,2.8934,2.8768,2.8768,2.8768,2.8768,2.8768,2.8768,0.0,2.8768,2.9084,2.9548,3.0102,2.9854,2.9622,2.9452,2.8054,2.697,2.6219,2.545,2.506,2.5012,2.5012,2.4953,2.4876,2.48,2.4929,2.5249,2.5643,2.5899,2.6059,2.6515,2.6253,2.5636,2.5979,2.5694,2.5079,2.4861,2.5284,0.0,0.0,2.5753,2.6339,2.6177,2.6396,2.6873,2.7673,2.8489,0.0,2.9855,3.0297,3.0507,3.0129,3.0297,3.0598,3.0598,3.0598,3.0598,3.0598,3.0598,3.0598,3.0598,3.0598,3.08,0.0,3.2061,3.2729,3.3416,3.4008,3.4397,3.4397,3.4397,3.4397,3.4397,3.4748,3.5099,3.5378,3.6086,3.6534,3.6594,3.6917,3.7026,3.6858,3.6839,3.6895,3.7007,3.7007,3.7082,3.7197,3.7197,3.7137,3.7007,3.7007,3.6765,3.6315,3.6315,3.5976,3.5375,3.5375,3.5232,3.4975,3.4571,3.4358,3.4041,3.2391,3.1769,3.1641,0.0,0.0,0.0,0.0,0.0,0.0,0.0,0.0,0.0,0.0,2.9698,2.9593,2.9593,2.9593,2.9593,2.9593,0.0,0.0,0.0,3.0012,3.0328,3.0492,3.0498,3.0176,2.9487,2.8672,2.7711,2.6596,2.6422,2.6155,2.5809,2.5985,2.5983,2.5809,2.5699,2.5699,2.5816,2.6181,2.628,2.622,2.6616,2.6456,2.6038,2.6404,2.6527,2.6372,2.5595,2.6041,0.0,0.0,2.6913,2.7687,2.7196,2.7384,2.7819,2.8016,2.8935,2.987,2.987,3.0221,3.0477,3.0007,3.0236,3.0598,3.0598,3.0598,3.0598,3.0598,3.0598,3.0598,3.0598,3.0742,3.1047,3.167,3.2337,3.2991,3.3661,3.4124,3.4397,3.4397,3.4559,3.4675,3.4675,3.5131,3.5552,3.5915,3.678,3.7301,3.7331,3.776,3.7929,3.7763,3.7763,3.7853,3.7986,3.7986,3.8066,3.8202,3.8202,3.8108,3.7986,3.7986,3.7651,3.7108,3.7108,3.6767,3.6226,3.6226,3.6093,3.5877,3.5404,3.5114,3.4861,3.379,3.3078,3.2515,0.0,0.0,0.0,0.0,0.0,0.0,0.0,0.0,0.0,0.0,0.0,0.0,0.0,2.9593,2.9593,0.0,0.0,0.0,0.0,2.9623,2.9892,3.0477,3.0494,3.0794,3.1393,3.025,2.9303,2.8605,2.8031,2.7072,2.5811,2.6467,2.6407,2.5809,2.5809,2.5809,2.5848,2.6425,2.656,2.643,2.6827,2.6977,2.6947,2.6748,2.7217,2.7812,2.6955,0.0,0.0,2.7733,2.8065,2.846,2.8443,2.8443,0.0,2.9328,3.0038,3.0568,3.0568,3.0568,3.0598,3.0568,3.0568,3.0598,3.0598,3.0598,3.0598,3.0598,3.0598,3.0598,3.0598,3.1076,3.1699,3.2366,3.3037,3.3676,3.4298,3.4382,3.4397,3.4397,3.4968,3.5378,0.0,3.5392,3.5912,3.7157,3.7288,3.7545,3.8125,3.8169,3.8183,3.8183,3.8183,3.8183,3.8183,3.8183,3.8183,3.8202,3.8202,3.8202,3.8183,3.8183,3.8183,3.8154,3.8154,3.7821,3.7255,3.7255,3.6878,3.6283,3.6268,3.6254,3.6218,3.5975,3.4772,3.3171,0.0,0.0,0.0,0.0,0.0,0.0,0.0,0.0,0.0,0.0,0.0,0.0,0.0,0.0,0.0,0.0,0.0,0.0,0.0,3.0867,3.0957,3.1152,3.0309,2.9948,3.0163,2.8901,2.8122,2.7895,2.771,2.7359,2.6929,2.7163,2.7146,2.6929,2.6929,2.6929,2.6929,2.7141,2.715,2.7009,2.714,2.7113,2.7045,2.7414,2.7832,2.8225,0.0,0.0,0.0,2.861,2.8805,2.9141,2.8652,2.8842,2.9361,3.0054,3.0417,3.0598,3.0598,3.0598,3.0598,3.0598,3.0598,3.0598,3.0598,3.0598,3.0598,3.0598,3.0598,3.0598,3.0598,3.109,3.1728,3.2395,3.3066,3.3705,3.431,3.4397,3.4397,3.4397,3.4983,0.0,0.0,0.0,0.0,3.7273,3.768,3.7984,3.8188,3.8202,3.8202,3.8202,3.8202,3.8202,3.8202,3.8202,3.8202,3.8202,3.8202,3.8202,3.8202,3.8202,3.8202,3.8202,3.8202,3.8086,3.7897,3.7897,3.7767,3.752,3.7128,3.6878,3.671,3.6191,3.5558,3.4785,0.0,0.0,0.0,0.0,0.0,0.0,0.0,0.0,0.0,0.0,0.0,0.0,0.0,0.0,0.0,0.0,0.0,0.0,0.0,0.0,3.1511,3.1511,3.0659,3.0208,3.0208,2.9362,2.8807,2.8567,2.8567,2.8322,2.7858,2.7858,2.7739,2.749,2.749,2.7623,2.7858,2.7858,2.7957,2.8078,2.8026,2.7973,2.7944,2.8325,2.8583,0.0,0.0,0.0,2.9839,2.942,2.9576,2.987,2.9407,2.9577,3.0038,3.0477,3.0598,3.0598,3.0598,3.0598,3.0598,3.0598,3.0598,3.0598,3.0598,3.0598,3.0598,3.0598,3.0771,3.0931,3.0931,3.1627,3.2353,3.2788,3.3398,3.3966,3.4339,3.4397,3.4501,3.4719,3.5331,3.597,0.0,0.0,0.0,3.7622,3.7984,3.8202,3.8202,3.8202,3.8202,3.8202,3.8202,3.8202,3.8202,3.8202,3.8202,3.8202,3.8202,3.8202,3.8202,3.8202,3.8202,3.8202,3.8202,3.8202,3.8202,3.8202,3.8202,3.8159,3.7781,3.7548,3.7379,3.6945,3.6728,3.6462,0.0,0.0,0.0,0.0,0.0,0.0,0.0,0.0,0.0,0.0,0.0,0.0,0.0,0.0,0.0,0.0,0.0,0.0,0.0,0.0,0.0,3.1511,3.1467,3.1452,3.1452,3.1423,3.1073,3.0404,3.0404,2.9734,2.8449,2.8449,2.8124,2.754,2.754,2.7924,2.8549,2.8549,2.8919,2.9489,2.9314,2.9329,2.9426,2.9359,0.0,0.0,0.0,0.0,0.0,3.0145,3.0341,3.0598,3.0598,3.0598,3.0598,3.0598,3.0598,3.0598,3.0598,3.0598,3.0598,3.0598,3.0627,3.0656,3.0656,3.0655,3.0699,3.0699,3.1148,3.1554,0.0,0.0,3.3503,3.3503,3.4008,3.4397,3.4397,3.4397,3.4646,0.0,0.0,0.0,0.0,0.0,0.0,3.8202,0.0,3.8202,3.8202,3.8202,3.8202,3.8202,3.8202,3.8202,3.8202,3.8202,3.8202,3.8202,3.8202,3.8202,3.8202,3.8202,3.8202,3.8202,3.8202,3.8202,3.8202,3.8202,3.8202,3.8202,3.8202,3.8202,3.8202,3.8202,3.8202,3.7986,0.0,0.0,0.0,0.0,0.0,0.0,0.0,0.0,0.0,0.0,0.0,0.0,0.0,0.0,0.0,0.0,0.0,0.0,0.0,0.0,0.0,0.0,0.0,0.0,0.0,0.0,0.0,0.0,0.0,2.8581,2.7756,2.7756,2.7924,2.8254,2.8254,2.8629,2.9253,2.9253,2.9333,2.9442,0.0,2.8709,2.8805,0.0,0.0,0.0,0.0,0.0,0.0,3.0672,3.0598,3.0598,3.0598,3.0598,3.0598,3.0598,3.0598,3.0598,3.0598,3.0598,3.0598,3.0598,3.0946,3.1279,3.1279,3.1671,3.2019,3.2019,3.2134,3.225,0.0,0.0,0.0,3.3503,3.4008,0.0,3.4397,3.4397,0.0,3.5319,0.0,3.6559,3.7244,3.7854,0.0,0.0,3.8202,3.8202,3.8202,3.8202,3.8202,3.8202,3.8202,3.8202,3.8202,3.8202,3.8202,3.8202,3.8202,3.8202,3.8202,3.8202,3.8202,3.8202,3.8202,3.8202,3.8202,3.8202,3.8202,3.8202,3.8202,3.8202,3.8202,3.8202,3.8202,3.8046,0.0,0.0,0.0,0.0,0.0,0.0,0.0,0.0,0.0,0.0,0.0,0.0,0.0,0.0,0.0,0.0,0.0,0.0,0.0,0.0,0.0,0.0,0.0,0.0,0.0,0.0,0.0,0.0,0.0,0.0,0.0,2.8222,2.814,2.8498,2.8189,2.8419,2.9064,2.9064,0.0,0.0,0.0,0.0,0.0,0.0,0.0,0.0,0.0,0.0,0.0,0.0,0.0,3.0553,3.0251,3.0372,3.0656,3.0931,3.0988,3.1062,3.1351,3.1424,3.1424,3.1424,3.17,3.1945,3.1945,3.2235,3.2497,3.2497,3.2729,3.2933,3.2933,3.3472,3.3894,0.0,0.0,0.0,3.4397,3.4397,3.4762,0.0,3.6083,0.0,3.7607,3.7999,3.8202,0.0,3.8202,3.8202,3.8202,3.8202,3.8202,3.8202,3.8202,3.8202,3.8202,3.8202,3.8202,3.8202,3.8202,3.8202,3.8202,3.8202,3.8202,3.8202,3.8202,3.8202,3.8202,3.8202,3.8202,3.8202,3.8202,3.8202,3.8202,3.8202,3.7962,3.7567,0.0,0.0,0.0,0.0,0.0,0.0,0.0,0.0,0.0,0.0,0.0,0.0,0.0,0.0,0.0,0.0,0.0,0.0,0.0,0.0,0.0,0.0,0.0,0.0,0.0,0.0,0.0,0.0,0.0,0.0,0.0,0.0,0.0,0.0,0.0,0.0,0.0,0.0,0.0,0.0,0.0,0.0,0.0,0.0,0.0,0.0,0.0,0.0,0.0,0.0,3.1637,3.0623,3.0128,3.0387,3.0946,3.1481,3.1641,3.1757,3.2351,3.2497,3.2497,3.2497,3.2569,3.2627,3.2627,3.2685,3.2758,3.2758,3.3209,3.3634,3.3634,3.4051,3.4397,3.4397,0.0,3.4397,3.4397,3.4397,3.4861,3.6156,3.6301,3.6809,3.8086,3.8202,3.8202,3.8202,3.8202,3.8202,3.8202,3.8202,3.8202,3.8202,3.8202,3.8202,3.8202,3.8202,3.8202,3.8202,3.8202,3.8202,3.8202,3.8202,3.8202,3.8202,3.8202,3.8202,3.8202,3.8202,3.8202,3.8202,3.8202,3.8127,3.8018,3.8018,3.7491,3.6708,0.0,0.0,0.0,0.0,0.0,0.0,0.0,0.0,0.0,0.0,0.0,0.0,0.0,0.0,0.0,0.0,0.0,0.0,0.0,0.0,0.0,0.0,0.0,0.0,0.0,0.0,0.0,0.0,0.0,0.0,0.0,0.0,0.0,0.0,0.0,0.0,0.0,0.0,0.0,0.0,0.0,0.0,0.0,0.0,0.0,0.0,0.0,0.0,0.0,0.0,3.1516,3.1422,3.1863,3.2084,3.2192,3.2293,3.2322,3.2351,3.2468,3.2497,3.2497,3.2497,3.2919,3.3344,3.3344,3.3703,0.0,3.4063,3.415,3.424,3.424,3.4324,3.4397,3.4397,3.4397,3.4397,3.4397,3.4397,3.4861,0.0,3.6301,3.6809,3.8086,3.8202,0.0,0.0,3.8202,3.8202,3.8202,3.8202,3.8202,3.8202,3.8202,3.8202,3.8202,3.8202,3.8202,3.8202,3.8202,3.8202,3.8202,3.8202,3.8202,3.8202,3.8202,3.8202,3.8202,3.8202,3.8202,3.8202,3.8202,3.7772,3.713,3.713,3.6576,3.5729,0.0,0.0,0.0,0.0,0.0,0.0,0.0,0.0,0.0,0.0,3.1511,3.1511,0.0,0.0,0.0,0.0,0.0,0.0,0.0,0.0,0.0,0.0,0.0,0.0,0.0,0.0,3.1351,3.1029,0.0,0.0,0.0,2.9827,2.9659,0.0,0.0,0.0,0.0,0.0,0.0,0.0,0.0,0.0,0.0,0.0,0.0,0.0,0.0,0.0,0.0,0.0,3.2803,3.2479,3.2096,3.2209,3.2569,3.2919,3.3021,3.3079,3.3396,3.3483,3.3483,3.3483,3.3732,3.3964,3.3964,0.0,0.0,3.4397,3.4397,3.4397,3.4397,3.4397,0.0,3.4397,3.4397,3.4397,3.4397,3.4397,3.4762,3.5723,3.6112,3.6693,3.7651,3.8028,3.8202,3.8202,3.8202,3.8202,3.8202,3.8202,3.8202,3.8202,3.8202,3.8202,3.8202,3.8202,3.8202,3.8202,3.8202,3.8202,3.8202,3.8202,3.8202,3.8202,3.8202,3.8202,3.8202,3.8202,3.8202,3.8202,3.8202,3.7943,3.7529,3.7072,3.636,3.5474,0.0,0.0,0.0,0.0,0.0,0.0,0.0,3.1511,3.1511,3.1511,3.1511,3.1511,3.1511,3.1511,0.0,0.0,0.0,0.0,0.0,0.0,0.0,0.0,0.0,0.0,0.0,0.0,0.0,3.1511,3.1511,0.0,0.0,0.0,0.0,0.0,2.9014,2.8794,0.0,0.0,0.0,0.0,0.0,0.0,0.0,0.0,0.0,0.0,0.0,0.0,0.0,0.0,3.408,3.3506,3.2442,3.2481,3.3004,3.3545,3.369,3.3806,3.4283,3.4397,3.4397,3.4397,3.4397,3.4397,3.4397,3.4397,3.4397,3.4397,3.4397,3.4397,3.4397,3.4397,3.4397,0.0,3.4397,3.4397,3.4397,3.4397,3.4646,3.5319,3.5825,0.0,3.7027,3.7632,0.0,3.8014,3.813,3.8202,3.8202,3.8202,3.8202,3.8202,3.8202,3.8202,3.8202,3.8202,3.8202,3.8202,3.8202,3.8202,3.8202,3.8202,3.8202,3.8202,3.8202,3.8202,3.8183,3.8,3.7924,3.7905,3.772,3.7548,3.7285,3.6624,3.5803,3.4959,0.0,0.0,0.0,0.0,0.0,0.0,0.0,3.1511,3.1511,3.1511,3.1511,3.1511,3.1511,3.1511,0.0,0.0,0.0,0.0,0.0,0.0,0.0,0.0,0.0,0.0,0.0,0.0,0.0,3.1511,3.1511,0.0,0.0,0.0,0.0,0.0,0.0,2.9715,3.0277,0.0,0.0,0.0,0.0,0.0,0.0,0.0,0.0,0.0,0.0,0.0,0.0,0.0,0.0,3.4295,3.417,3.4189,3.4237,3.4312,0.0,0.0,3.4368,3.4397,3.4397,3.4397,3.4397,3.4397,3.4397,0.0,3.4397,3.4397,3.4397,3.4397,3.4397,3.4397,3.4397,0.0,0.0,3.4397,3.4397,3.4397,3.4646,3.5319,0.0,0.0,3.633,3.6997,3.7389,3.7389,3.7897,3.8202,3.8202,3.8202,3.8202,3.8202,3.8202,3.8202,3.8202,3.8202,3.8202,3.8202,3.8202,3.8202,3.8202,3.8202,3.8202,3.8202,3.8202,3.8202,3.8146,3.7357,3.7014,3.6942,3.6148,3.54,3.4737,3.4654,3.4084,3.3313,0.0,0.0,0.0,0.0,0.0,0.0,0.0,3.1511,3.1511,3.1511,3.1511,3.1511,3.1511,3.1511,3.1511,0.0,0.0,0.0,0.0,0.0,0.0,0.0,0.0,0.0,0.0,0.0,3.1511,3.1511,3.1511,0.0,0.0,0.0,0.0,0.0,0.0,3.0245,3.0517,0.0,0.0,0.0,0.0,0.0,0.0,0.0,0.0,0.0,0.0,0.0,3.3601,0.0,0.0,0.0,3.4397,3.4397,0.0,0.0,3.4397,3.4397,3.4397,3.4397,3.4397,3.4397,3.4397,3.4397,3.4397,0.0,3.4397,3.4397,3.4397,3.4397,3.4397,3.4397,3.4397,0.0,0.0,0.0,3.4397,3.4397,3.4501,3.4762,3.5142,0.0,0.0,0.0,3.6707,3.6707,3.6925,3.707,3.707,3.7781,3.8202,3.8202,3.8202,3.8202,3.8202,3.8202,3.8202,3.8202,3.8202,3.8202,3.8202,3.8202,3.8202,3.8202,3.8202,3.8202,3.8165,3.7829,3.7682,3.7644,3.729,3.6649,3.5836,3.5312,3.4587,3.3802,0.0,0.0,0.0,0.0,0.0,0.0,3.1511,3.1511,3.1511,3.1511,3.1511,3.1511,3.1511,3.1511,3.1511,3.1511,0.0,0.0,0.0,0.0,0.0,0.0,0.0,0.0,0.0,0.0,0.0,3.1511,3.1511,3.1511,0.0,0.0,3.0509,3.0479,0.0,0.0,0.0,0.0,0.0,0.0,0.0,0.0,0.0,0.0,0.0,0.0,0.0,0.0,0.0,0.0,0.0,0.0,0.0,0.0,0.0,0.0,3.4397,3.4397,3.4397,3.4397,3.4397,3.4397,3.4397,3.4397,0.0,0.0,3.4397,3.4397,3.4397,3.4397,3.4397,3.4397,3.4397,0.0,0.0,3.4397,3.4397,3.4397,3.4397,3.4397,0.0,3.5099,3.5099,3.568,3.6112,3.6301,3.6301,3.6402,3.6591,3.7462,3.7941,3.7941,3.7941,3.8028,3.8202,3.8202,3.8202,3.8202,3.8202,3.8202,3.8202,3.8202,3.8202,3.8202,3.8202,3.8037,3.781,3.7567,3.7304,3.7053,3.6786,3.632,3.5702,3.5094,3.4504,3.3928,0.0,0.0,0.0,0.0,0.0,0.0,0.0,3.1511,3.1511,3.1511,3.1511,3.1511,3.1511,3.1511,3.1511,3.1511,0.0,0.0,0.0,0.0,0.0,0.0,0.0,0.0,0.0,0.0,0.0,3.1511,3.1511,3.1511,3.1496,3.0807,3.0509,3.0434,0.0,0.0,0.0,0.0,0.0,0.0,0.0,0.0,0.0,0.0,0.0,0.0,0.0,0.0,0.0,0.0,0.0,0.0,0.0,3.4397,3.4397,0.0,3.4397,3.4397,3.4397,3.4397,3.4397,3.4397,3.4397,3.4397,3.4397,3.4397,3.4397,3.4397,3.4397,3.4397,3.4397,3.4397,3.4397,3.4397,3.4397,0.0,3.4397,3.4397,3.4397,0.0,3.4397,3.4412,3.4412,3.5012,3.5651,3.6272,3.6301,3.6591,3.724,3.7302,3.7317,3.7317,3.7317,3.7607,3.8188,3.8202,3.8202,3.8202,3.8202,3.8202,3.8202,3.8202,3.8202,3.8202,3.8202,3.7701,3.6858,3.6036,3.5216,3.4356,3.3496,3.3154,3.3133,3.3133,3.3124,3.3124,0.0,0.0,0.0,0.0,0.0,0.0,0.0,3.1511,3.1511,3.1511,3.1511,3.1511,3.1511,3.1511,3.1316,3.0852,0.0,0.0,0.0,0.0,0.0,0.0,0.0,0.0,0.0,0.0,0.0,0.0,0.0,3.1511,3.1496,3.0807,3.0509,3.0479,2.9948,2.9892,0.0,0.0,0.0,0.0,0.0,0.0,0.0,0.0,0.0,0.0,0.0,0.0,0.0,0.0,0.0,0.0,0.0,0.0,0.0,3.4397,3.4397,3.4397,3.4397,3.4397,3.4397,3.4397,3.4397,3.4397,3.4397,3.4397,3.4397,3.4397,3.4397,3.4397,3.4397,3.4397,3.4397,3.4397,3.4397,0.0,0.0,0.0,0.0,3.4397,3.4791,3.5259,0.0,0.0,3.6083,3.6301,3.6301,3.6402,3.662,3.662,3.7027,3.7897,3.7926,3.8014,3.8202,3.8202,3.8202,3.8202,3.8202,3.8202,3.8183,3.7587,3.7304,3.7265,3.6674,3.6596,3.6825,3.5983,3.5823,3.6016,3.5156,3.4462,3.3992,3.3992,3.3611,3.3102,0.0,0.0,0.0,0.0,0.0,0.0,0.0,3.1511,3.1511,3.1511,3.1511,3.1511,3.1511,3.1271,3.0957,3.0537,0.0,0.0,0.0,0.0,0.0,0.0,0.0,0.0,0.0,0.0,0.0,0.0,0.0,0.0,0.0,3.0999,3.0807,3.0792,3.0448,0.0,0.0,0.0,0.0,0.0,0.0,0.0,3.2155,0.0,0.0,0.0,0.0,0.0,0.0,0.0,0.0,0.0,0.0,0.0,0.0,0.0,3.4397,3.4397,3.4397,3.4397,3.4397,3.4397,3.4397,0.0,3.4397,3.4397,3.4397,3.4397,3.4397,3.4397,3.4397,3.4397,3.4397,3.4397,3.4397,3.4397,0.0,0.0,0.0,3.4748,3.5346,0.0,0.0,3.6301,3.6301,3.6301,3.6301,3.6417,3.6646,3.6693,3.7157,3.8173,3.7984,3.797,3.8202,3.8202,3.8202,3.8202,3.8202,3.8202,3.8183,3.7644,3.7208,3.6878,3.634,3.6042,0.0,3.5359,3.5257,3.5413,3.4869,3.4358,3.3907,3.3907,3.3569,3.3102,0.0,0.0,0.0,0.0,0.0,0.0,0.0,0.0,0.0,0.0,3.1511,3.1511,3.1511,3.0942,3.0537,0.0,0.0,0.0,0.0,0.0,0.0,0.0,0.0,0.0,0.0,0.0,0.0,3.1263,3.1292,3.1292,3.1278,0.0,3.119,3.1102,3.0478,2.9839,2.9228,2.8981,2.9334,3.0054,3.0174,3.0611,0.0,0.0,0.0,0.0,0.0,0.0,0.0,0.0,0.0,0.0,0.0,0.0,0.0,0.0,0.0,0.0,0.0,3.4397,3.4397,3.4397,3.4397,3.4397,3.4397,0.0,0.0,3.4397,3.4397,3.4397,3.4397,3.4397,3.4397,3.4397,3.4397,3.4412,0.0,3.4532,0.0,0.0,3.6043,3.6402,3.6428,3.6446,3.6446,3.6446,3.6446,3.6722,3.7346,3.7357,3.7622,3.8188,3.7665,3.7636,3.8202,3.8202,3.8202,3.8202,3.8202,3.8165,3.8108,3.8037,3.7548,3.6722,3.6663,3.5776,3.4397,3.4335,3.3865,3.3188,3.3124,3.3102,3.3102,3.3102,3.3102,3.3102,0.0,0.0,0.0,0.0,0.0,0.0,0.0,0.0,0.0,0.0,0.0,3.1511,3.1511,3.1361,0.0,0.0,0.0,0.0,0.0,0.0,0.0,0.0,0.0,0.0,0.0,0.0,0.0,3.0925,3.1073,3.1146,3.1132,3.0613,0.0,0.0,2.9267,2.8982,2.8682,2.8779,2.9459,3.0409,2.9777,3.0188,0.0,0.0,0.0,0.0,3.074,3.1773,0.0,0.0,0.0,0.0,0.0,0.0,0.0,0.0,3.3928,3.4397,3.4397,0.0,3.4397,3.4397,3.4397,3.4397,0.0,0.0,0.0,0.0,0.0,3.4397,3.4397,3.4397,3.4397,3.4397,3.4397,3.4639,3.5305,3.5801,0.0,3.7002,3.7059,3.7259,3.7709,3.7752,3.7752,3.7752,3.7752,3.7825,3.7984,3.7984,3.8057,3.8202,3.8072,3.8057,3.8202,3.8202,3.8202,3.8202,3.8202,3.7848,3.7169,3.657,3.581,3.495,3.4288,3.4155,3.4356,3.3675,3.3675,3.4021,3.3368,3.3102,3.3102,3.3102,3.3102,3.3102,0.0,0.0,0.0,0.0,0.0,0.0,0.0,0.0,0.0,0.0,0.0,0.0,0.0,0.0,0.0,0.0,0.0,0.0,0.0,0.0,0.0,0.0,0.0,0.0,0.0,0.0,0.0,0.0,0.0,3.1043,0.0,0.0,0.0,0.0,2.9421,2.9062,2.8748,2.903,2.9193,2.9243,2.9577,0.0,0.0,0.0,0.0,0.0,3.0476,3.1158,0.0,3.2024,3.2577,3.3311,0.0,0.0,0.0,0.0,3.4062,3.4397,3.4397,3.4397,3.4397,3.4397,3.4397,3.4397,3.4397,0.0,0.0,0.0,0.0,3.4397,3.4397,3.4481,3.4617,3.4823,3.5003,3.5324,0.0,0.0,3.7188,3.7572,3.7828,3.8117,3.8438,3.8482,3.8445,3.8333,3.8348,3.8296,3.8202,3.8202,3.8202,3.8202,3.8202,3.8202,3.8202,3.8202,3.8202,3.8202,3.8202,3.7739,3.6897,3.6452,3.5568,3.4377,3.3907,3.3738,3.3781,3.3283,3.339,3.3759,3.3283,3.3102,3.3102,3.3102,3.3102,3.3102,0.0,0.0,0.0,0.0,0.0,0.0,0.0,0.0,0.0,0.0,0.0,0.0,0.0,0.0,0.0,0.0,0.0,0.0,0.0,0.0,0.0,0.0,0.0,0.0,0.0,0.0,0.0,0.0,0.0,0.0,0.0,0.0,3.0804,3.0583,3.0022,2.9406,2.8796,2.9235,2.8759,2.7807,2.9276,0.0,0.0,0.0,0.0,0.0,0.0,0.0,0.0,3.2146,3.2577,3.2627,3.3569,0.0,0.0,0.0,0.0,0.0,3.4397,3.4397,3.4397,3.4397,3.4397,3.4397,3.4397,0.0,0.0,0.0,0.0,0.0,3.4431,3.4636,0.0,3.5391,3.5915,0.0,3.6778,3.7409,3.7838,3.7838,3.8385,3.88,3.88,3.88,3.8741,3.8571,3.8553,3.8464,3.8296,3.8296,3.8296,3.8296,3.8296,3.824,3.8108,3.8165,3.8127,3.8,3.8,3.751,3.6551,3.6531,3.5689,3.4251,3.4209,3.3781,3.3102,3.3102,3.3102,3.3102,3.3102,3.3102,3.3102,3.3102,3.3102,3.3102,0.0,0.0,0.0,0.0,0.0,0.0,0.0,0.0,0.0,0.0,0.0,0.0,0.0,0.0,0.0,0.0,0.0,0.0,0.0,0.0,0.0,0.0,0.0,0.0,0.0,0.0,0.0,0.0,0.0,0.0,3.164,3.1473,3.0815,2.9777,2.9685,2.8919,2.7769,2.8409,2.8424,2.8051,2.8314,0.0,0.0,0.0,0.0,0.0,0.0,0.0,0.0,3.0853,3.1974,3.3739,3.1988,0.0,0.0,0.0,0.0,0.0,3.4397,3.4397,3.4397,3.4397,3.4397,3.4397,3.4397,0.0,0.0,0.0,0.0,0.0,0.0,3.5001,3.5411,0.0,0.0,3.7872,0.0,0.0,3.8865,3.8865,3.8829,3.88,3.88,3.88,3.8797,3.876,3.8745,3.8727,3.8708,3.8708,3.8708,3.8708,3.8708,3.8393,3.7701,3.8018,3.7829,3.7092,3.7092,3.6373,3.5032,3.4847,3.4322,3.3535,3.3356,3.3219,3.3102,3.3102,3.3102,3.3102,3.3102,3.3102,3.3102,3.3102,3.3102,3.3102,0.0,0.0,0.0,0.0,0.0,0.0,0.0,0.0,0.0,0.0,0.0,0.0,0.0,0.0,0.0,0.0,0.0,0.0,0.0,0.0,0.0,0.0,0.0,0.0,0.0,0.0,0.0,0.0,0.0,3.2329,3.2329,3.1747,3.0824,2.9623,2.9992,2.9361,2.8084,2.8794,2.8758,2.8233,0.0,0.0,0.0,0.0,0.0,0.0,0.0,0.0,0.0,0.0,3.1336,3.247,3.2223,0.0,0.0,0.0,0.0,0.0,3.4397,3.4397,3.4397,3.4397,3.4397,3.4397,3.4397,3.4397,0.0,0.0,0.0,0.0,0.0,0.0,3.6435,3.7141,0.0,3.8554,3.8677,3.8944,3.9104,3.9104,3.9104,3.9123,3.9123,3.9123,3.9086,3.8962,3.8962,3.8907,3.88,3.88,3.88,3.88,3.88,3.8616,3.8248,3.8,3.7453,3.657,3.657,3.597,3.4847,3.4778,3.4301,3.3556,3.3462,3.342,3.342,3.342,3.342,3.342,3.342,3.342,3.342,3.342,3.342,3.342,0.0,0.0,0.0,0.0,0.0,0.0,0.0,0.0,0.0,0.0,0.0,0.0,0.0,0.0,0.0,0.0,0.0,0.0,0.0,0.0,0.0,0.0,0.0,0.0,0.0,0.0,3.1967,3.2083,3.2821,3.3113,3.3002,3.2012,3.1049,3.0114,3.0323,2.9879,2.8983,2.9251,2.9107,2.8743,0.0,0.0,0.0,0.0,0.0,0.0,0.0,0.0,0.0,0.0,0.0,0.0,0.0,0.0,0.0,3.4113,3.4264,3.4147,3.4346,3.4264,3.4208,3.4537,3.4632,3.4632,3.4632,3.4731,0.0,0.0,0.0,0.0,0.0,3.7013,0.0,3.8421,3.8781,3.898,3.9141,3.9159,3.9159,3.9159,3.9301,3.9406,3.9406,3.9406,3.9337,3.9177,3.9159,3.9104,3.8943,3.8943,3.8943,3.8943,3.876,3.856,3.836,3.7553,3.6961,3.659,3.6175,3.5655,3.506,3.4806,3.4384,3.3789,3.3747,3.3691,3.3691,3.3691,3.3691,3.3691,3.3691,3.3691,3.3691,3.3691,3.3691,3.3691,0.0,0.0,0.0,0.0,0.0,0.0,0.0,0.0,0.0,0.0,0.0,0.0,0.0,0.0,0.0,0.0,0.0,0.0,0.0,0.0,0.0,0.0,0.0,0.0,0.0,3.1976,3.2493,3.2899,3.3419,3.3646,3.3601,3.2357,3.1727,3.1592,3.0387,3.0026,3.0291,2.9157,2.9175,2.9913,2.9192,0.0,0.0,0.0,0.0,0.0,0.0,0.0,0.0,0.0,0.0,0.0,0.0,0.0,3.2484,3.396,3.3877,3.3451,3.4196,3.3845,3.3613,3.4987,3.5334,0.0,3.5334,3.5767,0.0,3.6473,0.0,0.0,0.0,3.7789,3.8453,3.8981,3.9235,3.9355,3.9388,3.9388,3.9388,3.9388,3.9388,3.9406,3.9406,3.9406,3.9388,3.9388,3.9388,3.9355,3.9355,3.9355,3.9355,3.9355,3.8631,3.7853,3.7053,3.6235,3.636,3.7396,3.5856,3.5162,3.5244,3.4254,3.3894,3.4055,3.381,3.3691,3.3691,3.3691,3.3691,3.3691,3.3691,3.3691,3.3691,3.3691,3.3691,3.3691,0.0,0.0,0.0,0.0,0.0,0.0,0.0,0.0,0.0,0.0,0.0,0.0,0.0,0.0,0.0,0.0,0.0,0.0,0.0,0.0,0.0,0.0,0.0,3.1395,3.1511,3.2119,3.2612,3.3004,3.3969,3.4262,3.3867,3.2843,0.0,3.1598,3.1206,3.0793,3.0388,3.0402,3.0541,3.0654,2.9939,2.998,0.0,0.0,0.0,0.0,0.0,0.0,0.0,0.0,3.0495,3.1347,3.1347,3.2006,3.2822,3.2928,3.3087,3.328,3.3572,3.3748,3.3959,3.4448,3.5597,0.0,0.0,3.623,3.6592,3.6961,3.7232,0.0,0.0,0.0,3.9074,3.9256,3.9699,4.0004,4.0004,4.0382,4.0487,4.0083,4.0004,3.9855,3.9436,3.9406,3.9406,3.9406,3.9406,3.9174,3.8682,3.9137,3.8925,3.7866,3.856,3.8285,3.6914,3.6601,3.668,3.7107,3.5433,3.4675,3.4724,3.4322,3.4189,3.4272,3.4189,3.4147,3.4147,3.4147,3.4147,3.4147,3.4147,3.4147,3.4147,3.4147,3.4147,3.4147,0.0,0.0,0.0,0.0,0.0,0.0,0.0,0.0,0.0,0.0,0.0,0.0,0.0,0.0,0.0,0.0,0.0,0.0,0.0,0.0,0.0,0.0,0.0,3.1351,3.1278,3.2139,3.2719,3.3004,3.4219,3.4681,3.4369,0.0,0.0,3.234,3.1934,3.1623,3.1349,3.1225,3.1382,3.1672,3.0548,3.0433,0.0,0.0,0.0,0.0,0.0,0.0,0.0,0.0,3.0457,3.1217,3.0988,3.1806,3.2755,3.2254,3.2613,3.3252,3.3448,3.3635,3.3995,3.4889,0.0,0.0,3.6845,3.7001,3.724,3.7748,3.8303,3.8857,3.9415,0.0,0.0,4.0019,4.0412,4.0711,4.0711,4.1119,4.1224,4.0771,4.0711,4.0531,4.0083,4.0019,4.0019,4.0019,4.0019,3.9784,3.9247,3.9453,3.9071,3.7921,3.8467,3.8135,3.6795,3.6517,3.6301,3.6088,3.4937,3.453,3.4799,3.4543,3.4397,3.4397,3.4397,3.4397,3.4397,3.4397,3.4397,3.4397,3.4397,3.4397,3.4397,3.4397,3.4397,3.4397,0.0,0.0,0.0,0.0,0.0,0.0,0.0,0.0,0.0,0.0,0.0,0.0,0.0,0.0,0.0,0.0,0.0,0.0,0.0,3.1511,3.1438,0.0,0.0,3.1014,3.0821,3.2123,3.2891,3.3018,3.4151,3.4881,3.518,3.4159,0.0,0.0,3.2472,3.246,3.3558,3.1364,3.1509,3.302,3.0953,3.0438,3.0839,0.0,0.0,0.0,0.0,0.0,0.0,0.0,3.0835,3.1947,3.1175,3.1471,3.2092,3.2092,3.2613,3.335,3.4014,3.3555,3.3623,3.6552,0.0,0.0,3.7671,3.8202,3.8371,3.8977,3.9805,4.0397,4.0412,4.0954,0.0,4.1403,4.1403,4.1403,4.1403,4.1403,4.1418,4.1403,4.1403,4.1403,4.1403,4.1403,4.1403,4.1403,4.1403,4.1384,4.1365,4.0485,3.9986,3.9967,3.8304,3.7125,3.6502,3.5719,3.5033,3.441,3.441,3.4861,3.5669,3.4799,3.4397,3.4397,3.4397,3.4397,3.4397,3.4397,3.4397,3.4397,3.4397,3.4397,3.4397,3.4397,3.4397,3.4397,0.0,0.0,0.0,0.0,0.0,0.0,0.0,0.0,0.0,0.0,0.0,0.0,0.0,0.0,0.0,0.0,0.0,0.0,0.0,0.0,3.1467,3.1438,3.1841,3.199,3.1781,3.3003,3.3869,3.4344,3.4824,3.5032,0.0,0.0,0.0,3.4643,0.0,0.0,3.3746,3.3371,3.3295,3.3315,3.2173,3.1736,3.1618,0.0,0.0,0.0,0.0,0.0,0.0,0.0,0.0,0.0,3.1742,3.1974,3.2092,3.2092,3.2254,3.2553,3.312,3.3891,3.4678,3.5313,0.0,0.0,0.0,3.806,0.0,0.0,4.0007,4.0383,4.0976,4.1268,0.0,4.1403,4.1792,4.2111,4.2111,4.2462,4.2581,4.2137,4.2111,4.1931,4.1448,4.1403,4.1126,4.0466,4.0412,3.9883,3.8654,3.8865,3.8482,3.7292,3.7895,3.7583,3.6224,3.658,3.6372,3.56,3.56,3.5317,3.4778,3.4522,3.4397,3.4397,3.4397,3.4397,3.4397,3.4397,3.4397,3.4397,3.4397,3.4397,3.4397,3.4397,3.4397,3.4397,0.0,0.0,0.0,0.0,0.0,0.0,0.0,0.0,0.0,0.0,0.0,0.0,0.0,0.0,0.0,0.0,0.0,0.0,0.0,0.0,3.2288,3.2288,3.2631,3.2869,3.2984,3.3708,3.44,3.5017,3.5065,0.0,0.0,0.0,3.4632,3.5116,0.0,3.4238,3.4353,3.4232,3.4082,3.3897,3.2964,3.2448,3.2101,0.0,0.0,0.0,0.0,0.0,0.0,0.0,0.0,0.0,3.2078,3.2169,3.211,3.2169,3.2585,3.3182,3.3739,3.4789,3.5826,3.6124,3.7154,3.8171,3.8379,0.0,0.0,0.0,4.0538,4.1166,4.1698,4.2002,4.2162,4.2162,4.2491,4.2765,4.2765,4.307,4.3175,4.2791,4.2765,4.2596,4.2192,4.2162,4.1919,4.1347,4.0995,4.033,3.9278,3.897,3.8375,3.7347,3.7971,3.7712,3.6462,3.6989,3.6857,3.6109,3.6109,3.5744,3.5064,3.4855,3.462,3.4397,3.4397,3.4397,3.4397,3.4397,3.4397,3.4397,3.4397,3.4397,3.4397,3.4397,3.4397,3.4397,0.0,0.0,0.0,0.0,0.0,0.0,0.0,0.0,0.0,0.0,0.0,0.0,0.0,0.0,0.0,0.0,0.0,0.0,0.0,0.0,3.3499,3.3499,3.342,3.3669,3.4278,3.4292,3.4589,3.523,3.5034,0.0,0.0,0.0,3.5115,3.5455,0.0,3.5017,3.5164,3.4221,3.4167,3.4633,3.3391,3.272,3.2349,3.1755,0.0,0.0,0.0,0.0,0.0,0.0,0.0,0.0,3.2358,3.2254,3.2178,3.2497,3.3499,3.4636,3.5299,3.608,3.6995,3.8136,3.8085,3.8107,3.9593,4.0252,4.0465,4.0089,0.0,4.2425,4.247,4.294,4.329,4.329,4.329,4.329,4.329,4.329,4.329,4.329,4.329,4.329,4.329,4.323,4.315,4.3056,4.2237,4.1707,4.1624,4.0021,3.9077,3.9077,3.8304,3.7639,3.709,3.709,3.6815,3.6266,3.6266,3.624,3.6162,3.5626,3.5064,3.4554,3.4502,3.4476,3.4476,3.4424,3.4397,3.4397,3.4397,3.4397,3.4397,3.4397,3.4397,3.4397,0.0,0.0,0.0,0.0,0.0,0.0,0.0,0.0,0.0,0.0,0.0,0.0,0.0,0.0,0.0,0.0,0.0,0.0,0.0,0.0,3.3499,3.3499,3.3822,3.4307,3.4959,3.4974,3.5129,3.5439,3.5392,0.0,0.0,0.0,0.0,3.5261,0.0,3.5098,3.5359,3.4271,3.4288,3.4966,3.3552,3.285,3.2565,3.1974,3.1238,0.0,0.0,0.0,0.0,0.0,0.0,0.0,3.3882,3.3419,3.2476,3.4333,3.4699,3.4736,3.5815,3.6853,3.7642,3.7699,3.8631,3.9763,4.0628,4.1426,4.1899,4.1663,4.2042,4.2526,4.301,4.322,4.329,4.329,4.329,4.329,4.329,4.329,4.329,4.329,4.329,4.329,4.329,4.2679,4.1976,4.1239,4.0332,3.9511,3.8823,3.8408,3.8194,3.8194,3.8015,3.7848,3.7717,3.7704,3.7639,3.7521,3.7521,3.726,3.6789,3.6201,3.5861,3.5704,3.5286,3.5103,3.5064,3.4593,3.4397,3.4397,3.4397,3.4397,3.4397,3.4397,3.4397,3.4397,0.0,0.0,0.0,0.0,0.0,0.0,0.0,0.0,0.0,0.0,0.0,0.0,0.0,0.0,0.0,0.0,0.0,0.0,0.0,0.0,0.0,0.0,3.4691,3.5001,3.5343,3.5343,3.5392,0.0,0.0,0.0,0.0,0.0,0.0,3.5343,0.0,3.5294,3.5455,3.4868,3.4837,3.5148,3.4469,3.3652,3.2797,3.247,3.1814,3.106,3.1065,0.0,0.0,0.0,0.0,0.0,0.0,0.0,3.3226,3.5281,3.5802,3.5913,3.6895,3.7879,3.8654,3.8854,0.0,4.0908,4.1579,4.2299,4.2801,4.2698,4.2757,4.294,4.325,4.329,4.329,4.329,4.329,4.329,4.329,4.329,4.329,4.329,4.2935,4.2679,4.2679,4.1852,4.1134,4.0646,3.9724,3.9002,3.8549,3.8125,3.79,3.79,3.79,3.79,3.79,3.79,3.79,3.79,3.79,3.7743,3.7403,3.6515,3.6109,3.6083,3.5809,3.5678,3.5652,3.5338,3.5208,3.5208,3.5208,3.5051,3.4829,3.4829,3.4646,3.4397,0.0,0.0,0.0,0.0,0.0,0.0,0.0,0.0,0.0,0.0,0.0,0.0,0.0,0.0,0.0,0.0,0.0,0.0,0.0,0.0,0.0,0.0,3.5488,3.5488,3.5455,3.5488,3.5504,0.0,0.0,0.0,0.0,0.0,0.0,3.5455,0.0,3.5504,3.5488,3.5359,3.5279,3.5246,3.5279,3.4387,3.3027,3.2971,3.2416,3.1685,3.1809,3.1773,3.1905,3.3546,0.0,0.0,0.0,0.0,3.4479,3.6053,3.6861,3.7357,3.8079,3.8811,3.9586,4.0382,4.0999,0.0,4.2376,4.294,4.329,4.329,4.329,4.329,4.329,4.329,4.329,4.329,4.329,4.329,4.329,4.329,4.329,4.329,4.2659,4.2217,4.2217,4.1239,4.0603,4.0603,3.9585,3.8979,3.8979,3.8294,3.79,3.79,3.79,3.79,3.79,3.79,3.79,3.79,3.79,3.79,3.7874,3.6867,3.641,3.641,3.6305,3.6253,3.6253,3.6149,3.6109,3.6109,3.6109,3.5822,3.5443,3.5443,3.5064,3.4554,0.0,0.0,0.0,0.0,0.0,0.0,0.0,0.0,0.0,0.0,0.0,0.0,0.0,0.0,0.0,0.0,0.0,0.0,3.537,0.0,0.0,3.5261,3.5423,3.5423,3.5245,3.5423,3.5504,0.0,0.0,0.0,0.0,0.0,0.0,3.5261,0.0,0.0,3.5441,3.4758,3.4856,3.5392,3.4725,3.3939,3.3175,0.0,0.0,0.0,0.0,3.1658,3.1413,3.3433,3.3888,0.0,0.0,0.0,3.6646,3.757,3.7937,3.8172,3.8804,3.9172,3.969,4.0954,4.1328,4.1698,4.2906,4.325,4.329,4.329,4.329,4.329,4.329,4.329,4.329,4.329,4.329,4.329,4.329,4.329,4.329,4.329,4.321,4.313,4.313,4.1595,4.0603,4.0603,3.9042,3.807,3.807,3.7969,3.79,3.79,3.79,3.79,3.79,3.79,3.79,3.79,3.79,3.79,3.79,3.773,3.7665,3.7639,3.7116,3.6881,3.6841,3.6319,3.6109,3.6109,3.6109,3.6057,3.5992,3.5992,3.5652,3.5182,0.0,0.0,0.0,0.0,0.0,0.0,0.0,0.0,0.0,0.0,0.0,0.0,0.0,0.0,0.0,3.5504,3.5504,3.5504,3.5504,3.5504,3.5455,3.5359,3.5455,3.5455,3.5359,3.5455,0.0,0.0,0.0,0.0,0.0,3.5504,3.5455,0.0,0.0,0.0,0.0,0.0,3.4673,3.4221,3.4293,3.3616,0.0,0.0,0.0,0.0,0.0,0.0,3.2888,3.4671,3.5257,3.544,3.6523,0.0,0.0,0.0,3.8552,3.8928,3.9208,3.9319,3.972,4.1074,4.1403,4.1728,4.301,4.329,4.329,4.329,4.329,4.329,4.329,4.329,4.329,4.329,4.329,4.329,4.329,4.329,4.329,4.329,4.2875,4.236,4.1838,4.0589,3.9607,3.9118,3.8353,3.79,3.79,3.79,3.79,3.79,3.79,3.79,3.79,3.79,3.79,3.79,3.79,3.79,3.79,3.79,3.79,3.7887,3.7625,3.7508,3.7482,3.722,3.7116,3.7116,3.7116,3.6907,3.6606,3.6606,3.624,3.5744,0.0,0.0,0.0,0.0,0.0,0.0,0.0,0.0,0.0,0.0,0.0,0.0,0.0,0.0,0.0,0.0,3.5504,3.5504,3.5504,3.5504,3.5504,3.5504,3.5504,3.5504,3.5504,3.5504,0.0,0.0,0.0,0.0,3.5504,3.5504,3.5504,0.0,3.5504,0.0,0.0,0.0,0.0,0.0,0.0,0.0,0.0,0.0,0.0,0.0,0.0,0.0,0.0,0.0,3.6328,3.6676,3.7367,3.8084,0.0,0.0,0.0,3.9406,3.9406,3.9406,3.972,4.1074,4.1403,4.1728,4.301,4.329,4.329,4.329,4.329,4.329,4.329,4.329,4.329,4.329,4.329,4.329,4.329,4.329,4.321,4.2996,4.2395,4.1624,4.0689,3.9746,3.8935,3.8294,3.8024,3.79,3.79,3.79,3.79,3.79,3.79,3.79,3.79,3.79,3.79,3.79,3.79,3.79,3.79,3.79,3.79,3.79,3.79,3.79,3.79,3.79,3.79,3.79,3.79,3.7625,3.7233,3.7233,3.6854,3.6332,0.0,0.0,0.0,0.0,0.0,0.0,0.0,0.0,0.0,0.0,0.0,0.0,0.0,3.5504,3.5504,3.5504,3.5504,3.5504,3.5504,3.5504,3.5504,3.5504,3.5504,0.0,3.5504,0.0,0.0,0.0,0.0,0.0,3.5504,3.5504,3.5504,3.5504,3.5504,3.5488,3.5441,0.0,0.0,0.0,0.0,0.0,0.0,0.0,0.0,0.0,0.0,0.0,0.0,0.0,0.0,0.0,0.0,3.8719,3.9346,0.0,0.0,0.0,3.9406,3.9406,3.972,4.1074,4.1403,4.1728,4.301,4.329,4.329,4.329,4.329,4.329,4.329,4.329,4.329,4.329,4.329,4.329,4.329,4.329,4.2996,4.2155,4.2032,4.1624,4.0689,3.9746,3.9188,3.9144,3.8372,3.79,3.79,3.79,3.79,3.79,3.79,3.79,3.79,3.79,3.79,3.79,3.79,3.79,3.79,3.79,3.79,3.79,3.79,3.79,3.79,3.79,3.79,3.79,3.79,3.7887,3.7861,3.7861,3.7469,3.6959,0.0,0.0,0.0,0.0,0.0,0.0,0.0,0.0,0.0,0.0,0.0,0.0,0.0,3.5504,3.5504,3.5504,3.5504,3.5504,3.5504,3.5504,3.5504,3.5504,3.5504,3.5504,3.5504,0.0,0.0,0.0,0.0,3.5504,3.5504,3.5504,3.5729,3.6133,3.6133,3.5854,3.5438,3.6352,0.0,0.0,0.0,0.0,0.0,0.0,0.0,0.0,0.0,0.0,0.0,0.0,0.0,0.0,0.0,0.0,0.0,0.0,0.0,3.9406,0.0,0.0,3.972,4.1074,4.1403,4.1728,4.301,4.329,4.329,4.329,4.329,4.329,4.329,4.329,4.329,4.329,4.329,4.329,4.329,4.329,4.319,4.2875,4.2339,4.1624,4.0689,3.9746,3.8957,3.8417,3.807,3.79,3.79,3.79,3.79,3.79,3.79,3.79,3.79,3.79,3.79,3.79,3.79,3.79,3.79,3.79,3.79,3.79,3.79,3.79,3.79,3.79,3.79,3.79,3.79,3.79,3.79,3.79,3.7769,3.7586,0.0,0.0,0.0,0.0,0.0,0.0,0.0,0.0,0.0,0.0,0.0,0.0,0.0,0.0,3.5504,3.5504,3.5504,3.5504,3.5504,3.5504,3.5504,3.5504,3.5504,3.5504,3.5504,0.0,0.0,0.0,0.0,0.0,0.0,3.6043,3.6387,3.6806,3.7047,3.6716,0.0,0.0,0.0,3.5045,0.0,0.0,3.3748,0.0,0.0,0.0,0.0,0.0,0.0,0.0,0.0,0.0,0.0,0.0,0.0,0.0,0.0,0.0,3.9406,0.0,0.0,4.1134,4.1568,4.2017,4.307,4.329,4.329,4.329,4.329,4.329,4.329,4.329,4.329,4.329,4.329,4.329,4.329,4.329,4.319,4.2895,4.2339,4.1624,4.0689,3.9746,3.8957,3.8372,3.807,3.79,3.79,3.79,3.79,3.79,3.79,3.79,3.79,3.79,3.79,3.79,3.79,3.79,3.79,3.79,3.79,3.79,3.79,3.79,3.79,3.79,3.79,3.79,3.79,3.79,3.79,3.79,3.79,3.79,0.0,0.0,0.0,0.0,0.0,0.0,0.0,0.0,0.0,0.0,0.0,0.0,0.0,0.0,0.0,3.5504,3.5504,3.5504,3.5504,3.5504,3.5504,3.5504,3.5504,3.5504,3.5504,0.0,0.0,0.0,0.0,0.0,0.0,0.0,3.7402,3.7464,3.8108,3.8048,3.7413,0.0,3.6646,3.7157,0.0,3.5839,3.5729,0.0,0.0,0.0,3.5831,3.6875,0.0,3.8279,0.0,0.0,0.0,0.0,0.0,0.0,0.0,0.0,0.0,0.0,0.0,4.1224,4.1901,4.2526,4.316,4.329,4.329,4.329,4.329,4.329,4.329,4.329,4.329,4.329,4.329,4.329,4.329,4.329,4.2975,4.2135,4.2011,4.1624,4.0689,3.9768,3.9219,3.9166,3.8395,3.7923,3.79,3.79,3.79,3.79,3.79,3.79,3.79,3.79,3.79,3.79,3.79,3.79,3.79,3.79,3.79,3.79,3.79,3.79,3.79,3.79,3.79,3.79,3.79,3.79,3.79,3.79,3.79,3.79,0.0,0.0,0.0,0.0,0.0,0.0,0.0,0.0,0.0,0.0,0.0,0.0,0.0,0.0,0.0,3.5504,3.5504,3.5504,3.5504,3.5504,3.5504,3.5504,3.5504,3.5504,3.5504,0.0,0.0,0.0,0.0,0.0,0.0,0.0,0.0,0.0,3.832,3.8571,3.8835,3.8606,0.0,3.7852,3.6977,3.6598,0.0,0.0,0.0,0.0,0.0,3.9191,3.9673,0.0,3.9911,3.9218,0.0,0.0,0.0,0.0,0.0,0.0,3.9406,0.0,0.0,0.0,0.0,0.0,4.3055,4.329,4.329,4.329,4.329,4.329,4.329,4.329,4.329,4.329,4.329,4.329,4.329,4.329,4.321,4.2975,4.2395,4.1624,4.0689,4.0375,3.9686,3.8349,3.8616,3.8571,3.7923,3.79,3.79,3.79,3.79,3.79,3.79,3.79,3.79,3.79,3.79,3.79,3.79,3.79,3.79,3.79,3.79,3.79,3.79,3.79,3.79,3.79,3.79,3.79,3.79,3.79,3.79,3.79,0.0,0.0,0.0,0.0,0.0,0.0,0.0,0.0,0.0,0.0,0.0,0.0,0.0,0.0,0.0,0.0,3.5504,3.5504,3.5504,3.5504,3.5504,3.5504,3.5504,3.5624,3.5908,0.0,0.0,0.0,0.0,0.0,0.0,0.0,0.0,0.0,0.0,0.0,0.0,0.0,0.0,0.0,3.7916,0.0,0.0,3.791,3.849,0.0,0.0,0.0,4.0237,4.1107,4.0797,0.0,0.0,0.0,0.0,0.0,0.0,0.0,0.0,0.0,0.0,0.0,0.0,0.0,4.3145,4.329,4.329,4.329,4.329,4.329,4.329,4.329,4.329,4.329,4.329,4.329,4.329,4.329,4.329,4.329,4.2855,4.2319,4.1775,4.1401,4.0745,3.9692,3.9356,3.8814,3.7946,3.79,3.79,3.79,3.79,3.79,3.79,3.79,3.79,3.79,3.79,3.79,3.79,3.79,3.79,3.79,3.79,3.79,3.79,3.79,3.79,3.79,3.79,3.79,3.79,3.79,3.79,3.79,0.0,0.0,0.0,0.0,0.0,0.0,0.0,0.0,0.0,0.0,0.0,0.0,0.0,0.0,0.0,0.0,3.5564,3.5609,3.5609,3.5669,3.5714,3.5714,3.5714,3.5983,3.6598,0.0,0.0,0.0,0.0,0.0,0.0,0.0,0.0,0.0,0.0,0.0,0.0,0.0,0.0,3.8347,3.8884,3.8735,0.0,0.0,3.983,3.9383,4.0175,4.046,4.0559,4.1279,4.1508,0.0,0.0,0.0,0.0,0.0,4.0098,0.0,0.0,0.0,0.0,0.0,4.2791,0.0,4.3275,4.329,4.329,4.329,4.329,4.329,4.329,4.329,4.329,4.329,4.329,4.329,4.329,4.329,4.329,4.329,4.329,4.327,4.317,4.2537,4.2052,4.1867,4.0202,3.8904,3.8239,3.8015,3.7946,3.8047,3.7946,3.79,3.79,3.79,3.79,3.79,3.79,3.7946,3.8047,3.8047,3.8047,3.8047,3.8047,3.7992,3.79,3.79,3.79,3.79,3.79,3.79,3.79,3.79,3.79,3.79,0.0,0.0,0.0,0.0,0.0,0.0,0.0,0.0,0.0,0.0,0.0,0.0,0.0,0.0,0.0,0.0,0.0,3.6314,3.6314,3.6761,3.7028,3.7028,3.7028,3.7088,3.7225,3.7225,0.0,0.0,0.0,0.0,0.0,0.0,0.0,0.0,0.0,0.0,0.0,0.0,0.0,3.8928,3.9044,3.9422,3.9982,4.0651,4.1228,4.1799,4.2436,4.2669,4.2634,4.2322,4.2201,4.2111,0.0,0.0,0.0,4.1209,0.0,0.0,0.0,0.0,0.0,0.0,4.25,0.0,4.319,4.329,4.329,4.329,4.329,4.329,4.329,4.329,4.329,4.329,4.329,4.329,4.329,4.329,4.329,4.329,4.329,4.3016,4.2319,4.2719,4.2441,4.0986,3.9834,3.9453,4.0057,3.8688,3.8226,3.8912,3.8272,3.79,3.79,3.79,3.79,3.79,3.79,3.8272,3.8935,3.8935,3.8935,3.8935,3.8935,3.8549,3.79,3.79,3.79,3.79,3.79,3.79,3.79,3.79,3.79,3.79,0.0,0.0,0.0,0.0,0.0,0.0,0.0,0.0,0.0,0.0,0.0,0.0,0.0,0.0,0.0,0.0,0.0,0.0,0.0,0.0,3.7387,3.7387,3.7387,3.7569,3.7883,3.7898,0.0,0.0,0.0,0.0,0.0,0.0,0.0,0.0,0.0,0.0,0.0,0.0,3.9843,3.9784,4.0113,0.0,4.0855,4.1829,4.2486,4.2895,4.319,4.329,4.3265,4.2955,4.2851,0.0,4.2462,4.2152,4.1897,0.0,4.1658,4.1463,0.0,0.0,0.0,4.2686,4.2851,0.0,0.0,4.329,4.329,4.329,4.329,4.329,4.329,4.329,4.329,4.329,4.329,4.329,4.329,4.329,4.329,4.329,4.329,4.313,4.2679,4.3036,4.2739,4.1401,4.0859,4.0603,4.0603,3.973,3.9458,3.9877,3.9015,3.8549,3.8549,3.8125,3.79,3.79,3.8327,3.8783,3.9219,3.9681,3.9899,3.9877,3.9395,3.8935,3.8549,3.8549,3.8549,3.8549,3.8549,3.8549,3.8549,3.8549,3.8272,3.7969,0.0,0.0,0.0,0.0,0.0,0.0,0.0,0.0,0.0,0.0,0.0,0.0,0.0,0.0,0.0,0.0,0.0,0.0,0.0,0.0,0.0,3.7776,3.7776,3.8048,3.8571,3.8586,3.8856,0.0,0.0,0.0,0.0,0.0,0.0,0.0,0.0,0.0,0.0,0.0,0.0,4.0831,0.0,4.1501,4.1492,4.2803,4.329,4.329,4.329,4.329,4.329,4.329,4.329,4.329,4.329,4.297,0.0,0.0,0.0,0.0,0.0,0.0,0.0,0.0,0.0,4.329,0.0,0.0,0.0,4.329,4.329,4.329,4.329,4.329,4.3245,4.3145,4.322,4.3245,4.3145,4.3235,4.329,4.329,4.329,4.329,4.329,4.315,4.2835,4.2293,4.1929,4.1547,4.1134,4.0781,4.0689,4.0859,3.9964,3.9373,3.921,3.8494,3.807,3.79,3.8769,3.9285,3.9505,4.0439,4.088,4.0838,4.0073,3.9637,3.9461,3.9461,3.9571,3.9724,3.9527,3.9461,3.9461,3.9461,3.9015,3.8508,3.5504,3.5504,0.0,0.0,0.0,0.0,0.0,0.0,0.0,0.0,0.0,0.0,0.0,0.0,0.0,0.0,0.0,0.0,3.8305,0.0,0.0,3.9167,3.9167,3.9212,3.9287,3.9287,3.9316,3.9406,0.0,0.0,0.0,0.0,0.0,0.0,4.0004,0.0,0.0,0.0,4.1628,0.0,4.2261,4.2263,0.0,4.3016,4.329,4.329,4.329,4.329,4.329,4.329,4.329,4.329,0.0,4.3265,4.3205,4.3205,0.0,0.0,0.0,0.0,0.0,0.0,4.329,4.329,4.329,0.0,4.329,4.329,0.0,4.329,4.329,0.0,0.0,4.2586,4.2955,4.3115,4.2571,4.297,4.329,4.329,4.329,4.329,4.329,4.2598,4.2435,4.3095,4.1672,4.1407,4.29,4.147,4.0986,4.1811,4.0923,4.0029,3.921,3.9099,3.8648,3.79,3.8769,3.9637,4.0461,4.1401,4.1831,4.1831,4.1728,4.1212,4.0439,4.0439,4.0923,4.1603,4.0774,4.0439,4.0439,4.0439,4.0389,4.0303,3.5504,3.5504,0.0,0.0,0.0,0.0,0.0,0.0,0.0,0.0,0.0,0.0,0.0,0.0,0.0,0.0,0.0,4.0146,0.0,0.0,0.0,0.0,3.9616,3.9406,3.9406,3.9406,3.9406,3.9406,3.9406,0.0,0.0,0.0,0.0,0.0,4.0277,0.0,4.1029,0.0,4.2141,0.0,0.0,4.2925,4.2955,4.3205,4.329,4.329,4.329,4.329,4.329,4.329,4.329,4.329,0.0,0.0,0.0,4.329,0.0,0.0,0.0,0.0,0.0,0.0,0.0,4.329,4.329,4.329,4.329,4.329,0.0,0.0,0.0,0.0,0.0,0.0,4.313,4.322,4.297,4.3145,4.329,4.329,4.329,4.329,4.329,4.2975,4.2915,4.327,4.2603,4.2502,4.327,4.2583,4.2345,4.2739,4.1873,4.1233,4.0838,4.0267,3.9826,3.9494,4.0389,4.1029,4.1442,4.2339,4.2739,4.2734,4.2217,4.1769,4.1401,4.1401,4.1645,4.2011,4.212,4.1873,4.1401,4.1401,4.1071,4.0689,0.0,0.0,0.0,0.0,0.0,0.0,0.0,0.0,0.0,0.0,0.0,0.0,4.0546,4.0666,0.0,0.0,4.1403,4.1403,0.0,0.0,4.0666,0.0,0.0,0.0,0.0,3.9963,3.9855,3.9675,0.0,0.0,0.0,0.0,0.0,0.0,0.0,4.1224,4.1718,0.0,4.2646,4.269,4.3115,4.329,4.329,4.329,4.329,4.329,4.329,4.329,4.329,4.329,4.329,4.329,4.329,4.329,4.329,0.0,0.0,0.0,4.329,4.329,4.329,4.329,4.329,4.329,4.329,4.329,4.329,4.329,4.329,0.0,0.0,0.0,0.0,0.0,0.0,4.325,4.307,4.3205,4.329,4.329,4.329,4.329,4.329,4.3076,4.3036,4.327,4.309,4.3036,4.329,4.329,4.329,4.329,4.2679,4.2237,4.199,4.1317,4.0859,4.0625,4.1561,4.199,4.2032,4.2895,4.329,4.327,4.2618,4.2354,4.2354,4.2354,4.2354,4.2415,4.3036,4.2915,4.2354,4.2354,4.1935,4.1442,3.7327,3.6866,0.0,0.0,0.0,0.0,0.0,0.0,0.0,0.0,0.0,0.0,0.0,0.0,0.0,0.0,0.0,4.1403,4.1403,0.0,4.1373,0.0,0.0,4.1343,0.0,4.1343,4.1029,4.0367,0.0,0.0,0.0,0.0,0.0,0.0,4.2051,4.2351,4.241,4.301,4.326,4.326,4.329,4.329,4.329,4.329,4.329,4.329,4.329,4.329,4.329,4.329,4.329,4.329,4.329,4.329,4.329,4.329,4.329,4.329,4.329,4.329,4.329,4.329,4.329,4.329,4.329,4.329,4.329,4.329,4.329,4.329,4.329,0.0,0.0,0.0,0.0,0.0,0.0,4.294,4.329,4.329,4.329,4.329,4.329,4.2537,4.2395,4.323,4.2517,4.2415,4.325,4.329,4.329,4.329,4.327,4.2855,4.2011,4.197,4.1484,4.0625,4.1561,4.199,4.2032,4.2895,4.329,4.329,4.327,4.327,4.327,4.327,4.327,4.327,4.329,4.327,4.327,4.327,4.325,4.321,0.0,0.0,0.0,0.0,0.0,0.0,0.0,3.9439,0.0,0.0,4.0786,0.0,0.0,4.2066,4.2226,0.0,0.0,4.2651,4.2651,4.2286,0.0,0.0,0.0,4.1403,0.0,0.0,0.0,0.0,0.0,0.0,0.0,0.0,0.0,0.0,0.0,4.2616,0.0,4.322,4.329,4.329,4.329,4.329,4.329,4.329,4.329,4.329,4.329,4.329,4.329,4.329,4.329,4.329,4.329,4.329,4.329,4.329,4.329,4.329,4.329,4.329,4.329,4.329,4.329,4.329,4.329,4.329,4.329,4.329,4.329,4.329,4.329,0.0,0.0,0.0,0.0,0.0,0.0,4.3175,4.329,4.329,4.329,4.329,4.329,4.3036,4.2975,4.327,4.3036,4.2996,4.327,4.329,4.329,4.329,4.329,4.317,4.2855,4.2855,4.2699,4.2386,4.2699,4.2855,4.2875,4.317,4.329,4.329,4.329,4.329,4.329,4.329,4.329,4.329,4.329,4.329,4.329,4.329,4.329,4.329,3.8676,0.0,0.0,0.0,0.0,0.0,0.0,0.0,0.0,0.0,4.1493,0.0,4.2661,0.0,4.288,0.0,4.329,4.329,4.329,4.294,0.0,4.272,4.2297,4.2073,0.0,0.0,0.0,0.0,0.0,4.1767,0.0,0.0,0.0,0.0,0.0,4.294,4.329,4.329,4.329,4.3319,4.3564,4.3803,4.4012,4.4012,4.3728,4.329,4.329,4.329,4.329,4.329,4.329,4.329,4.329,4.329,4.329,4.329,4.329,4.329,4.329,4.329,4.329,4.329,4.329,4.329,4.329,4.329,4.329,4.329,4.329,4.329,4.329,0.0,0.0,0.0,0.0,0.0,0.0,4.329,4.329,4.329,4.329,4.329,4.329,4.329,4.329,4.329,4.329,4.329,4.329,4.329,4.329,4.329,4.329,4.329,4.329,4.329,4.329,4.329,4.329,4.329,4.329,4.329,4.329,4.329,4.329,4.329,4.329,4.329,4.329,4.329,4.329,4.329,4.329,4.329,4.329,4.329,3.9496,3.9496,0.0,0.0,4.0038,0.0,0.0,0.0,4.1673,0.0,4.2425,4.2661,4.325,4.329,4.329,4.329,4.329,4.329,4.329,4.329,0.0,0.0,4.329,4.329,4.329,0.0,0.0,0.0,0.0,0.0,0.0,0.0,0.0,0.0,4.329,0.0,4.329,4.329,4.3319,4.3409,4.4072,4.4736,4.5289,4.5289,4.4506,4.3394,4.3394,4.3394,4.3394,4.3394,4.3394,4.3394,4.3394,4.3394,4.3394,4.3394,4.3384,4.3349,4.3349,4.3319,4.329,4.329,4.329,4.329,4.329,4.329,4.329,4.329,4.329,4.329,4.329,0.0,0.0,0.0,0.0,0.0,0.0,0.0,4.329,4.329,4.329,4.329,4.329,4.329,4.329,4.329,4.329,4.329,4.329,4.329,4.329,4.329,4.329,4.329,4.329,4.329,4.329,4.329,4.329,4.329,4.329,4.329,4.329,4.329,4.329,4.329,4.329,4.329,4.329,4.329,4.329,4.329,4.329,4.329,4.329,4.329,4.0894,4.0894,4.0894,4.0894,4.1029,4.1149,4.1149,4.1703,0.0,0.0,4.2776,4.313,4.3275,4.329,4.329,4.329,4.329,0.0,0.0,0.0,0.0,4.329,4.329,4.329,4.329,4.329,4.322,4.307,0.0,0.0,4.307,0.0,0.0,0.0,0.0,4.329,4.329,4.329,4.3594,4.4102,4.4781,4.5155,4.5289,4.5289,4.5095,4.4796,4.4796,4.4796,4.4796,4.4796,4.4796,4.4796,4.4796,4.4796,4.4796,4.4796,4.4431,4.4042,4.4042,4.3683,4.329,4.329,4.329,4.329,4.329,4.329,4.329,4.329,4.329,4.329,4.329,4.329,0.0,0.0,0.0,0.0,0.0,0.0,4.329,4.329,4.329,4.329,4.329,4.329,4.329,4.329,4.329,4.329,4.329,4.329,4.329,4.329,4.329,4.329,4.329,4.329,4.329,4.329,4.329,4.329,4.329,4.329,4.329,4.329,4.329,4.329,4.329,4.329,4.329,4.329,4.329,4.329,4.329,4.329,4.329,4.329,4.1403,4.1628,4.1837,4.1837,4.2062,4.2132,4.1867,4.2391,4.2776,4.2776,4.3085,0.0,4.3713,4.3743,4.3863,4.4147,4.4162,0.0,4.4162,0.0,0.0,4.4162,4.4162,4.4042,4.3743,4.3743,0.0,4.329,0.0,0.0,4.329,0.0,0.0,0.0,0.0,4.329,4.3319,4.3624,4.4296,4.5209,4.5603,4.5918,0.0,4.6172,4.6172,4.6172,4.6172,4.5798,4.5289,4.5289,4.5289,4.5289,4.5289,4.5289,4.5289,4.5289,4.5035,4.4751,4.4751,4.4446,4.4162,4.4162,4.4162,4.4162,4.4162,4.4162,4.4162,4.4162,4.4162,4.4087,4.3788,4.3743,0.0,0.0,0.0,0.0,0.0,0.0,4.329,4.329,4.329,4.329,4.329,4.329,4.329,4.329,4.329,4.329,4.329,4.329,4.329,4.329,4.329,4.329,4.329,4.329,4.329,4.329,4.329,4.329,4.329,4.329,4.329,4.329,4.329,4.329,4.329,4.329,4.329,4.329,4.329,4.329,4.329,4.329,4.329,4.329,4.1658,4.2122,4.2511,4.2511,4.2955,4.3145,4.2705,4.303,4.3319,4.3409,4.3444,4.3698,4.4356,4.4436,4.4676,4.5244,4.5289,4.5289,4.5289,4.5289,4.5289,4.5289,4.5289,4.5035,4.4451,4.4436,4.4102,0.0,0.0,0.0,0.0,0.0,0.0,0.0,4.3379,4.3489,4.3624,4.4282,4.5224,4.6315,4.6405,4.6779,4.7309,4.7309,4.7309,4.7309,4.7309,4.6546,4.5559,4.5559,4.5559,4.5559,4.5559,4.5559,4.5559,4.5559,4.5499,4.5424,4.5424,4.5364,4.5289,4.5289,4.5289,4.5289,4.5289,4.5289,4.5289,4.5289,4.5289,4.5125,4.4541,4.4356,4.4102,0.0,0.0,0.0,0.0,0.0,0.0,0.0,4.329,0.0,4.329,4.329,4.329,4.329,4.329,4.329,4.329,4.329,4.329,4.329,4.329,4.329,4.329,4.329,4.329,4.329,4.329,4.329,4.329,4.329,4.329,4.329,4.329,4.329,4.329,4.329,4.329,4.329,4.329,4.329,4.329,4.329,4.329,4.329,4.2965,4.307,0.0,4.3145,4.3235,4.3459,4.3913,4.3594,4.3504,4.4042,4.4117,4.4371,4.505,4.5125,4.517,4.5289,4.5289,4.5289,4.5289,4.5289,4.5289,4.5289,4.5289,4.5244,4.5125,4.5125,4.4811,0.0,0.0,0.0,0.0,0.0,0.0,0.0,4.3878,4.4431,4.499,4.5657,4.6091,4.6345,4.6899,4.7204,4.7309,4.7309,4.7309,4.7309,4.7309,4.716,4.695,4.695,4.695,4.695,4.695,4.695,4.695,4.695,4.6576,4.6121,4.6121,4.5723,4.5289,4.5289,4.5289,4.5289,4.5289,4.5289,4.5289,4.5289,4.5289,4.5259,4.5155,4.4676,4.4252,4.4147,4.3668,4.329,4.329,0.0,0.0,0.0,4.329,4.329,4.329,4.329,4.329,4.329,4.329,4.329,4.329,4.329,4.329,4.329,4.329,4.329,4.329,4.329,4.329,4.329,4.329,4.329,4.329,4.329,4.329,4.329,4.329,4.329,4.329,4.329,4.329,4.329,4.329,4.329,4.329,4.329,4.329,4.329,4.329,0.0,0.0,0.0,4.4102,4.4446,4.4781,4.4536,4.4446,4.4781,4.4825,4.508,4.5753,4.5807,4.5963,4.6307,4.6337,4.6337,4.6337,4.6337,4.6337,4.6337,4.6337,4.6172,4.5843,4.5807,4.5499,4.4825,4.4825,0.0,0.0,0.0,0.0,4.4341,4.4676,4.52,4.5837,4.6166,4.6495,4.6839,4.7174,4.7309,4.7309,4.7309,4.7309,4.7309,4.7309,4.7309,4.7309,4.7309,4.7309,4.7309,4.7309,4.7309,4.7309,4.7309,4.7063,4.6809,4.6809,4.6591,4.6337,4.6337,4.6337,4.6337,4.6337,4.6337,4.6337,4.6337,4.6337,4.6232,4.5867,4.5274,4.4706,4.4356,4.4027,4.3698,4.3349,4.329,4.329,0.0,0.0,0.0,4.329,4.329,4.329,4.329,4.329,4.329,4.329,4.329,4.329,4.329,4.329,4.329,4.329,4.329,4.329,4.329,4.329,4.329,4.329,4.329,4.329,4.329,4.329,4.329,4.329,4.329,4.329,4.329,4.329,4.329,4.329,4.329,4.329,4.329,4.3728,4.4147,4.4506,4.4506,4.4945,4.5349,4.5484,4.5514,4.5514,4.5514,4.5514,4.5783,4.6435,4.651,4.6719,4.7249,4.7309,4.7309,4.7309,4.7309,4.7309,4.7309,4.7309,4.7055,4.6525,4.651,4.6181,4.5514,4.5514,4.5439,4.5289,0.0,0.0,4.5514,4.5514,4.5867,4.651,4.651,4.6809,4.7309,4.7309,4.7309,4.7309,4.7309,4.7309,4.7309,4.7309,4.7309,4.7309,4.7309,4.7309,4.7309,4.7309,4.7309,4.7309,4.7309,4.7309,4.7309,4.7309,4.7309,4.7309,4.7309,4.7309,4.7309,4.7309,4.7309,4.7309,4.7309,4.7309,4.7145,4.6614,4.5956,4.5349,4.4805,4.4491,4.4117,4.3594,4.3379,4.329,0.0,0.0,0.0,4.329,4.329,4.329,4.329,4.329,4.329,4.329,4.329,4.329,4.329,4.329,4.329,4.329,4.329,4.329,4.329,4.329,4.329,4.329,4.329,4.329,4.329,4.329,4.329,4.329,4.329,4.329,4.329,4.329,4.329,4.329,4.329,4.329,4.329,4.511,4.5155,4.5214,4.5214,4.5259,4.5499,4.6106,4.6211,4.6211,4.6211,4.6211,4.645,4.7123,4.7219,4.7234,4.7294,4.7309,4.7309,4.7309,4.7309,4.7309,4.7309,4.7309,4.7279,4.7219,4.7219,4.6869,4.6211,4.6211,4.5897,4.5289,4.5289,4.5618,4.6211,4.6211,4.657,4.7219,4.7219,4.7249,4.7309,4.7309,4.7309,4.7309,4.7309,4.7309,4.7309,4.7309,4.7309,4.7309,4.7309,4.7309,4.7309,4.7309,4.7309,4.7309,4.7309,4.7309,4.7309,4.7309,4.7309,4.7309,4.7309,4.7309,4.7309,4.7309,4.7309,4.7309,4.7309,4.7309,4.7279,4.7219,4.6659,4.6196,4.6121,4.5089,4.4267,4.4207,4.3683,4.329,4.329,0.0,0.0,4.329,4.329,4.329,4.329,4.329,4.329,4.329,4.329,4.329,4.329,4.329,4.329,4.329,4.329,4.329,4.329,4.329,4.329,4.329,4.329,4.329,4.329,4.329,4.329,4.329,4.329,4.329,4.329,4.329,4.329,4.329,4.329,4.329,4.329,4.5289,4.5618,4.5897,4.5897,4.6232,4.6591,4.6875,4.6899,4.6899,4.6899,4.6899,4.6988,4.7279,4.7309,4.7309,4.7309,4.7309,4.7309,4.7309,4.7309,4.7309,4.7309,4.7309,4.7309,4.7309,4.7309,4.7174,4.6899,4.6899,4.6749,4.6501,4.6501,4.6651,4.6899,4.6899,4.7055,4.7309,4.7309,4.7309,4.7309,4.7309,4.7309,4.7309,4.7309,4.7309,4.7309,4.7309,4.7309,4.7309,4.7309,4.7309,4.7309,4.7309,4.7309,4.7309,4.7309,4.7309,4.7309,4.7309,4.7309,4.7309,4.7309,4.7309,4.7309,4.7309,4.7309,4.7309,4.7309,4.7309,4.7309,4.7309,4.7085,4.6764,4.6375,4.5852,4.5358,4.496,4.4311,4.3908,4.3908,0.0,4.329,4.329,4.329,4.329,4.329,4.329,4.329,4.329,4.329,4.329,4.329,4.329,4.329,4.329,4.329,4.329,4.329,4.329,4.329,4.329,4.329,4.329,4.329,4.329,4.329,4.329,4.329,4.329,4.329,4.329,4.329,4.329,4.329,4.329,4.329,4.5888,4.6277,4.6585,4.6585,4.6995,4.7309,4.7309,4.7309,4.7309,4.7309,4.7309,4.7309,4.7309,4.7309,4.7309,4.7309,4.7309,4.7309,4.7309,4.7309,4.7309,4.7309,4.7309,4.7309,4.7309,4.7309,4.7309,4.7309,4.7309,4.7309,4.7309,4.7309,4.7309,4.7309,4.7309,4.7309,4.7309,4.7309,4.7309,4.7309,4.7309,4.7309,4.7309,4.7309,4.7309,4.7309,4.7309,4.7309,4.7309,4.7309,4.7309,4.7309,4.7309,4.7309,4.7309,4.7309,4.7309,4.7309,4.7309,4.7309,4.7309,4.7309,4.7309,4.7309,4.7309,4.7309,4.7309,4.7309,4.7309,4.7309,4.7309,4.7309,4.716,4.6674,4.6435,4.6136,4.5663,4.502,4.4506,4.4311,4.3878,4.3519,4.3319,4.329,4.329,4.329,4.329,4.329,4.329,4.329,4.329,4.329,4.329,4.329,4.329,4.329,4.329,4.329,4.329,4.329,4.329,4.329,4.329,4.329,4.329,4.329,4.329,4.329,4.329,4.329,4.329,4.329,4.329,4.329,4.329,4.329,4.7279,4.7294,4.7294,4.7294,4.7294,4.7309,4.7309,4.7309,4.7309,4.7309,4.7309,4.7309,4.7309,4.7309,4.7309,4.7309,4.7309,4.7309,4.7309,4.7309,4.7309,4.7309,4.7309,4.7309,4.7309,4.7309,4.7309,4.7309,4.7309,4.7309,4.7309,4.7309,4.7309,4.7309,4.7309,4.7309,4.7309,4.7309,4.7309,4.7309,4.7309,4.7309,4.7309,4.7309,4.7309,4.7309,4.7309,4.7309,4.7309,4.7309,4.7309,4.7309,4.7309,4.7309,4.7309,4.7309,4.7309,4.7309,4.7309,4.7309,4.7309,4.7309,4.7309,4.7309,4.7309,4.7309,4.7309,4.7309,4.7309,4.7309,4.7309,4.7309,4.7309,4.7294,4.6734,4.63,4.6285,4.5723,4.5035,4.4371,4.4282,4.4027,4.3349,4.329,4.329,4.329,4.329,4.329,4.329,4.329,4.329,4.329,4.329,4.329,4.329,4.329,4.329,4.329,4.329,4.329,4.329,4.329,4.329,4.329,4.329,4.329,4.329,4.329,4.329,4.329,4.329,4.329,4.329,4.329,4.329,4.329,4.7309,4.7309,4.7309,4.7309,4.7309,4.7309,4.7309,4.7309,4.7309,4.7309,4.7309,4.7309,4.7309,4.7309,4.7309,4.7309,4.7309,4.7309,4.7309,4.7309,4.7309,4.7309,4.7309,4.7309,4.7309,4.7309,4.7309,4.7309,4.7309,4.7309,4.7309,4.7309,4.7309,4.7309,4.7309,4.7309,4.7309,4.7309,4.7309,4.7309,4.7309,4.7309,4.7309,4.7309,4.7309,4.7309,4.7309,4.7309,4.7309,4.7309,4.7309,4.7309,4.7309,4.7309,4.7309,4.7309,4.7309,4.7309,4.7309,4.7309,4.7309,4.7309,4.7309,4.7309,4.7309,4.7309,4.7309,4.7309,4.7309,4.7309,4.7309,4.7309,4.7309,4.7309,4.713,4.6973,4.6973,4.639,4.5897,4.5687,4.485,4.4207,4.3997,4.3579,4.329,4.329,4.329,4.329,4.329,4.329,4.329,4.329,4.329,4.329,4.329,4.329,4.329,4.329,4.329,4.329,4.329,4.329,4.329,4.329,4.329,4.329,4.329,4.329,4.329,4.329,4.329,4.329,4.329,4.329,4.329,4.329,4.7309,4.7309,4.7309,4.7309,4.7309,4.7309,4.7309,4.7309,4.7309,4.7309,4.7309,4.7309,4.7309,4.7309,4.7309,4.7309,4.7309,4.7309,4.7309,4.7309,4.7309,4.7309,4.7309,4.7309,4.7309,4.7309,4.7309,4.7309,4.7309,4.7309,4.7309,4.7309,4.7309,4.7309,4.7309,4.7309,4.7309,4.7309,4.7309,4.7309,4.7309,4.7309,4.7309,4.7309,4.7309,4.7309,4.7309,4.7309,4.7309,4.7309,4.7309,4.7309,4.7309,4.7309,4.7309,4.7309,4.7309,4.7309,4.7309,4.7309,4.7309,4.7309,4.7309,4.7309,4.7309,4.7309,4.7309,4.7309,4.7309,4.7309,4.7309,4.7309,4.7309,4.7309,4.7309,4.7309,4.7309,4.6929,4.6585,4.633,4.5553,4.485,4.4341,4.3923,4.3579,4.3319,4.329,4.329,4.329,4.329,4.329,4.329,4.329,4.329,4.329,4.329,4.329,4.329,4.329,4.329,4.329,4.329,4.329,4.329,4.329,4.329,4.329,4.329,4.329,4.329,4.329,4.329,4.329,4.329,4.329,4.329,4.7309,4.7309,4.7309,4.7309,4.7309,4.7309,4.7309,4.7309,4.7309,4.7309,4.7309,4.7309,4.7309,4.7309,4.7309,4.7309,4.7309,4.7309,4.7309,4.7309,4.7309,4.7309,4.7309,4.7309,4.7309,4.7309,4.7309,4.7309,4.7309,4.7309,4.7309,4.7309,4.7309,4.7309,4.7309,4.7309,4.7309,4.7309,4.7309,4.7309,4.7309,4.7309,4.7309,4.7309,4.7309,4.7309,4.7309,4.7309,4.7309,4.7309,4.7309,4.7309,4.7309,4.7309,4.7309,4.7309,4.7309,4.7309,4.7309,4.7309,4.7309,4.7309,4.7309,4.7309,4.7309,4.7309,4.7309,4.7309,4.7309,4.7309,4.7309,4.7309,4.7309,4.7309,4.7309,4.7309,4.7309,4.7309,4.707,4.6435,4.633,4.5807,4.4551,4.4386,4.4102,4.3504,4.3394,4.3364,4.3364,4.3319,4.329,4.329,4.329,4.329,4.329,4.329,4.329,4.329,4.329,4.329,4.329,4.329,4.329,4.329,4.329,4.329,4.329,4.329,4.329,4.329,4.329,4.329,4.329,4.329,4.329,4.329,4.7309,4.7309,4.7309,4.7309,4.7309,4.7309,4.7309,4.7309,4.7309,4.7309,4.7309,4.7309,4.7309,4.7309,4.7309,4.7309,4.7309,4.7309,4.7309,4.7309,4.7309,4.7309,4.7309,4.7309,4.7309,4.7309,4.7309,4.7309,4.7309,4.7309,4.7309,4.7309,4.7309,4.7309,4.7309,4.7309,4.7309,4.7309,4.7309,4.7309,4.7309,4.7309,4.7309,4.7309,4.7309,4.7309,4.7309,4.7309,4.7309,4.7309,4.7309,4.7309,4.7309,4.7309,4.7309,4.7309,4.7309,4.7309,4.7309,4.7309,4.7309,4.7309,4.7309,4.7309,4.7309,4.7309,4.7309,4.7309,4.7309,4.7309,4.7309,4.7309,4.7309,4.7309,4.7309,4.7309,4.7309,4.7309,4.7249,4.7078,4.6614,4.6181,4.5852,4.5364,4.5005,4.484,4.4341,4.4057,4.4057,4.3579,4.329,4.329,4.329,4.329,4.329,4.329,4.329,4.329,4.329,4.329,4.329,4.329,4.329,4.329,4.329,4.329,4.329,4.329,4.329,4.329,4.329,4.329,4.329,4.329,4.329,4.329,4.7309,4.7309,4.7309,4.7309,4.7309,4.7309,4.7309,4.7309,4.7309,4.7309,4.7309,4.7309,4.7309,4.7309,4.7309,4.7309,4.7309,4.7309,4.7309,4.7309,4.7309,4.7309,4.7309,4.7309,4.7309,4.7309,4.7309,4.7309,4.7309,4.7309,4.7309,4.7309,4.7309,4.7309,4.7309,4.7309,4.7309,4.7309,4.7309,4.7309,4.7309,4.7309,4.7309,4.7309,4.7309,4.7309,4.7309,4.7309,4.7309,4.7309,4.7309,4.7309,4.7309,4.7309,4.7309,4.7309,4.7309,4.7309,4.7309,4.7309,4.7309,4.7309,4.7309,4.7309,4.7309,4.7309,4.7309,4.7309,4.7309,4.7309,4.7309,4.7309,4.7309,4.7309,4.7309,4.7309,4.7309,4.7309,4.7309,4.7309,4.6995,4.6629,4.633,4.5956,4.5633,4.5319,4.496,4.4766,4.4766,4.4117,4.3624,4.3305,4.329,4.329,4.329,4.329,4.329,4.329,4.329,4.329,4.329,4.329,4.329,4.329,4.329,4.329,4.329,4.329,4.329,4.329,4.329,4.329,4.329,4.329,4.329,4.329,4.7309,4.7309,4.7309,4.7309,4.7309,4.7309,4.7309,4.7309,4.7309,4.7309,4.7309,4.7309,4.7309,4.7309,4.7309,4.7309,4.7309,4.7309,4.7309,4.7309,4.7309,4.7309,4.7309,4.7309,4.7309,4.7309,4.7309,4.7309,4.7309,4.7309,4.7309,4.7309,4.7309,4.7309,4.7309,4.7309,4.7309,4.7309,4.7309,4.7309,4.7309,4.7309,4.7309,4.7309,4.7309,4.7309,4.7309,4.7309,4.7309,4.7309,4.7309,4.7309,4.7309,4.7309,4.7309,4.7309,4.7309,4.7309,4.7309,4.7309,4.7309,4.7309,4.7309,4.7309,4.7309,4.7309,4.7309,4.7309,4.7309,4.7309,4.7309,4.7309,4.7309,4.7309,4.7309,4.7309,4.7309,4.7309,4.7309,4.7309,4.7309,4.7085,4.651,4.645,4.6211,4.5648,4.5514,4.5454,4.5454,4.4825,4.4192,4.3624,4.3414,4.3349,4.3439,4.3439,4.3504,4.3609,4.3609,4.3609,4.3609,4.3504,4.3439,4.3439,4.3334,4.329,4.329,4.329,4.329,4.329,4.329,4.329,4.329,4.329,4.329,4.329,4.7309,4.7309,4.7309,4.7309,4.7309,4.7309,4.7309,4.7309,4.7309,4.7309,4.7309,4.7309,4.7309,4.7309,4.7309,4.7309,4.7309,4.7309,4.7309,4.7309,4.7309,4.7309,4.7309,4.7309,4.7309,4.7309,4.7309,4.7309,4.7309,4.7309,4.7309,4.7309,4.7309,4.7309,4.7309,4.7309,4.7309,4.7309,4.7309,4.7309,4.7309,4.7309,4.7309,4.7309,4.7309,4.7309,4.7309,4.7309,4.7309,4.7309,4.7309,4.7309,4.7309,4.7309,4.7309,4.7309,4.7309,4.7309,4.7309,4.7309,4.7309,4.7309,4.7309,4.7309,4.7309,4.7309,4.7309,4.7309,4.7309,4.7309,4.7309,4.7309,4.7309,4.7309,4.7309,4.7309,4.7309,4.7309,4.7309,4.7309,4.7309,4.7264,4.716,4.7138,4.7115,4.6995,4.645,4.6136,4.6136,4.5514,4.5095,4.499,4.3893,4.3579,4.4132,4.4147,4.4436,4.499,4.499,4.499,4.4975,4.4386,4.4147,4.4102,4.3564,4.329,4.329,4.329,4.329,4.329,4.329,4.329,4.329,4.329,4.329,4.329,4.7309,4.7309,4.7309,4.7309,4.7309,4.7309,4.7309,4.7309,4.7309,4.7309,4.7309,4.7309,4.7309,4.7309,4.7309,4.7309,4.7309,4.7309,4.7309,4.7309,4.7309,4.7309,4.7309,4.7309,4.7309,4.7309,4.7309,4.7309,4.7309,4.7309,4.7309,4.7309,4.7309,4.7309,4.7309,4.7309,4.7309,4.7309,4.7309,4.7309,4.7309,4.7309,4.7309,4.7309,4.7309,4.7309,4.7309,4.7309,4.7309,4.7309,4.7309,4.7309,4.7309,4.7309,4.7309,4.7309,4.7309,4.7309,4.7309,4.7309,4.7309,4.7309,4.7309,4.7309,4.7309,4.7309,4.7309,4.7309,4.7309,4.7309,4.7309,4.7309,4.7309,4.7309,4.7309,4.7309,4.7309,4.7309,4.7309,4.7309,4.7309,4.7309,4.7309,4.7309,4.7337,4.7445,4.7068,4.6903,4.6995,4.6244,4.5843,4.5843,4.488,4.4541,4.484,4.484,4.499,4.5289,4.5289,4.5289,4.5289,4.4975,4.484,4.4811,4.4132,4.3848,4.3818,4.3439,4.329,4.329,4.329,4.329,4.329,4.329,4.329,4.329,4.7309,4.7309,4.7309,4.7309,4.7309,4.7309,4.7309,4.7309,4.7309,4.7309,4.7309,4.7309,4.7309,4.7309,4.7309,4.7309,4.7309,4.7309,4.7309,4.7309,4.7309,4.7309,4.7309,4.7309,4.7309,4.7309,4.7309,4.7309,4.7309,4.7309,4.7309,4.7309,4.7309,4.7309,4.7309,4.7309,4.7309,4.7309,4.7309,4.7309,4.7309,4.7309,4.7309,4.7309,4.7309,4.7309,4.7309,4.7309,4.7309,4.7309,4.7309,4.7309,4.7309,4.7309,4.7309,4.7309,4.7309,4.7309,4.7309,4.7309,4.7309,4.7309,4.7309,4.7309,4.7309,4.7309,4.7309,4.7309,4.7309,4.7309,4.7309,4.7309,4.7309,4.7309,4.7309,4.7309,4.7309,4.7309,4.7309,4.7309,4.7309,4.7309,4.7309,4.7309,4.7359,4.7531,4.7381,4.7374,4.7531,4.6916,4.6546,4.661,4.5759,4.5364,4.5529,4.5529,4.5603,4.5768,4.5768,4.5768,4.5753,4.5603,4.5529,4.5484,4.4661,4.4296,4.4252,4.3579,4.329,4.329,4.329,4.329,4.329,4.329,4.329,4.329,4.7309,4.7309,4.7309,4.7309,4.7309,4.7309,4.7309,4.7309,4.7309,4.7309,4.7309,4.7309,4.7309,4.7309,4.7309,4.7309,4.7309,4.7309,4.7309,4.7309,4.7309,4.7309,4.7309,4.7309,4.7309,4.7309,4.7309,4.7309,4.7309,4.7309,4.7309,4.7309,4.7309,4.7309,4.7309,4.7309,4.7309,4.7309,4.7309,4.7309,4.7309,4.7309,4.7309,4.7309,4.7309,4.7309,4.7309,4.7309,4.7309,4.7309,4.7309,4.7309,4.7309,4.7309,4.7309,4.7309,4.7309,4.7309,4.7309,4.7309,4.7309,4.7309,4.7309,4.7309,4.7309,4.7309,4.7309,4.7309,4.7309,4.7309,4.7309,4.7309,4.7309,4.7309,4.7309,4.7309,4.7309,4.7309,4.7309,4.7309,4.7309,4.7309,4.7309,4.7309,4.7309,4.7331,4.7309,4.7309,4.7331,4.7264,4.7321,4.7499,4.6068,4.5603,4.6226,4.6226,4.654,4.716,4.716,4.716,4.713,4.651,4.6226,4.6151,4.4865,4.4296,4.4252,4.3579,4.329,4.329,4.329,4.329,4.329,4.329,4.329,4.329,4.7309,4.7309,4.7309,4.7309,4.7309,4.7309,4.7309,4.7309,4.7309,4.7309,4.7309,4.7309,4.7309,4.7309,4.7309,4.7309,4.7309,4.7337,4.7488,4.7488,4.7424,4.7309,4.7309,4.7309,4.7309,4.7309,4.7309,4.7309,4.7309,4.7309,4.7309,4.7309,4.7309,4.7309,4.7309,4.7309,4.7309,4.7309,4.7309,4.7309,4.7309,4.7309,4.7309,4.7309,4.7309,4.7309,4.7309,4.7309,4.7309,4.7309,4.7309,4.7309,4.7309,4.7309,4.7309,4.7309,4.7309,4.7309,4.7309,4.7309,4.7309,4.7309,4.7309,4.7309,4.7309,4.7309,4.7309,4.7309,4.7309,4.7309,4.7309,4.7309,4.7309,4.7309,4.7309,4.7309,4.7309,4.7309,4.7309,4.7309,4.7402,4.7445,4.7294,4.7402,4.7488,4.7488,4.7374,4.7337,4.7488,4.7488,4.7531,4.7602,4.719,4.7096,4.7347,4.7198,4.7233,4.7488,4.7359,4.7309,4.7294,4.7055,4.6914,4.6875,4.5942,4.5298,4.487,4.4192,4.3683,4.329,4.329,4.329,4.329,4.329,4.329,4.329,4.7309,4.7309,4.7309,4.7309,4.7309,4.7309,4.7309,4.7309,4.7309,4.7309,4.7309,4.7309,4.7309,4.7309,4.7331,4.7381,4.7381,4.7488,4.7709,4.773,4.7639,4.7402,4.7331,4.7309,4.7309,4.7309,4.7309,4.7309,4.7309,4.7309,4.7309,4.7309,4.7309,4.7309,4.7309,4.7309,4.7309,4.7309,4.7309,4.7309,4.7309,4.7309,4.7309,4.7309,4.7309,4.7309,4.7309,4.7309,4.7309,4.7309,4.7309,4.7309,4.7309,4.7309,4.7309,4.7309,4.7309,4.7309,4.7309,4.7309,4.7309,4.7309,4.7309,4.7309,4.7309,4.7309,4.7309,4.7309,4.7309,4.7309,4.7309,4.7309,4.7309,4.7309,4.7309,4.7309,4.7309,4.7337,4.7381,4.7381,4.7596,4.7681,4.7531,4.7624,4.773,4.773,4.7596,4.7574,4.7709,4.773,4.7752,4.7816,4.8007,4.8118,4.8197,4.788,4.7666,4.7602,4.7553,4.7445,4.7309,4.7374,4.7381,4.7351,4.6606,4.6073,4.5633,4.4763,4.4088,4.3609,4.3479,4.3423,4.3423,4.3423,4.3463,4.3522,4.7309,4.7309,4.7309,4.7309,4.7309,4.7309,4.7309,4.7309,4.7309,4.7309,4.7309,4.7309,4.7309,4.7294,4.7396,4.7596,4.7602,4.7709,4.7986,4.8007,4.788,4.7617,4.7402,4.7309,4.7309,4.7309,4.7309,4.7309,4.7309,4.7309,4.7309,4.7309,4.7309,4.7309,4.7309,4.7309,4.7309,4.7309,4.7309,4.7309,4.7309,4.7309,4.7309,4.7309,4.7309,4.7309,4.7309,4.7309,4.7309,4.7309,4.7309,4.7309,4.7309,4.7309,4.7309,4.7309,4.7309,4.7309,4.7309,4.7309,4.7309,4.7309,4.7309,4.7309,4.7309,4.7309,4.7309,4.7309,4.7309,4.7309,4.7309,4.7309,4.7309,4.7309,4.7309,4.7309,4.7309,4.7467,4.7602,4.7602,4.7837,4.8007,4.8007,4.8007,4.8007,4.8007,4.8007,4.8007,4.8007,4.8007,4.8091,4.8286,4.8286,4.8391,4.8599,4.8202,4.7858,4.7617,4.7858,4.7767,4.7294,4.751,4.7602,4.7551,4.6691,4.6434,4.6514,4.5167,4.4484,4.4277,4.3852,4.371,4.371,4.371,4.3847,4.4007,4.7309,4.7309,4.7309,4.7309,4.7309,4.7309,4.7309,4.7309,4.7309,4.7309,4.7424,4.751,4.751,4.7681,4.7831,4.788,4.788,4.7964,4.8197,4.8202,4.816,4.8097,4.7709,4.7445,4.7309,4.7309,4.7309,4.7309,4.7309,4.7309,4.7309,4.7309,4.7309,4.7309,4.7309,4.7309,4.7309,4.7309,4.7309,4.7309,4.7309,4.7309,4.7309,4.7309,4.7309,4.7309,4.7309,4.7309,4.7309,4.7309,4.7309,4.7309,4.7309,4.7309,4.7309,4.7309,4.7309,4.7309,4.7309,4.7309,4.7309,4.7309,4.7309,4.7309,4.7309,4.7309,4.7309,4.7309,4.7309,4.7309,4.7309,4.7309,4.7309,4.7309,4.7309,4.7309,4.7309,4.7467,4.7602,4.7602,4.7964,4.8154,4.8007,4.8133,4.8154,4.8007,4.8007,4.8007,4.8007,4.8133,4.8223,4.8286,4.8432,4.8537,4.8599,4.8328,4.816,4.8091,4.8028,4.7922,4.7773,4.7837,4.788,4.7864,4.7619,4.7256,4.6804,4.594,4.5279,4.4719,4.4148,4.391,4.391,4.391,4.3949,4.4007,4.7574,4.7488,4.7445,4.7553,4.7488,4.7445,4.7553,4.7574,4.7574,4.7574,4.7666,4.7752,4.7752,4.7901,4.8028,4.8112,4.8181,4.8286,4.8412,4.8412,4.837,4.8286,4.8028,4.773,4.7424,4.7424,4.7381,4.7309,4.7309,4.7309,4.7309,4.7309,4.7309,4.7309,4.7309,4.7309,4.7309,4.7309,4.7309,4.7309,4.7309,4.7309,4.7309,4.7309,4.7309,4.7309,4.7309,4.7309,4.7309,4.7309,4.7309,4.7309,4.7309,4.7309,4.7309,4.7309,4.7309,4.7309,4.7309,4.7309,4.7309,4.7309,4.7309,4.7309,4.7309,4.7309,4.7309,4.7309,4.7309,4.7309,4.7309,4.7309,4.7309,4.7309,4.7309,4.7331,4.7402,4.7617,4.7794,4.7858,4.8202,4.837,4.826,4.8349,4.837,4.826,4.8223,4.8223,4.8223,4.8349,4.8412,4.8412,4.8537,4.8599,4.8599,4.8474,4.837,4.8286,4.826,4.8139,4.8007,4.8091,4.8133,4.8112,4.8028,4.7821,4.7427,4.6498,4.5834,4.5298,4.445,4.4108,4.4108,4.4108,4.4166,4.4243,4.8007,4.7794,4.7709,4.7964,4.7794,4.7709,4.7964,4.8007,4.8007,4.8007,4.8007,4.8028,4.8028,4.8049,4.8133,4.8307,4.8495,4.8599,4.8599,4.8599,4.8516,4.8328,4.8328,4.8118,4.7666,4.7624,4.751,4.7309,4.7309,4.7309,4.7309,4.7309,4.7309,4.7309,4.7309,4.7309,4.7309,4.7309,4.7309,4.7309,4.7309,4.7309,4.7309,4.7309,4.7309,4.7309,4.7309,4.7309,4.7309,4.7309,4.7309,4.7309,4.7309,4.7309,4.7309,4.7309,4.7309,4.7294,4.7331,4.7331,4.7331,4.7352,4.7337,4.7331,4.7294,4.7309,4.7309,4.7309,4.7309,4.7309,4.7309,4.7309,4.7309,4.7309,4.7309,4.7374,4.7574,4.7837,4.807,4.8265,4.8474,4.8599,4.8599,4.8599,4.8599,4.8599,4.8599,4.8599,4.8599,4.8599,4.8599,4.8599,4.8599,4.8599,4.8599,4.8599,4.8516,4.8328,4.8516,4.8412,4.807,4.8223,4.8328,4.8307,4.8133,4.8154,4.8236,4.6936,4.6264,4.594,4.4839,4.4381,4.4339,4.4339,4.4454,4.4591,4.8007,4.7943,4.7922,4.7986,4.7943,4.7922,4.7986,4.8007,4.8007,4.8007,4.8133,4.8223,4.8223,4.837,4.8495,4.8537,4.8563,4.8599,4.8599,4.8599,4.8578,4.8537,4.8537,4.8412,4.8139,4.7794,4.751,4.7309,4.7309,4.7309,4.7309,4.7309,4.7309,4.7309,4.7309,4.7309,4.7309,4.7309,4.7309,4.7309,4.7309,4.7309,4.7309,4.7309,4.7309,4.7309,4.7309,4.7309,4.7309,4.7309,4.7309,4.7309,4.7309,4.7309,4.7309,4.7309,4.7309,4.7316,4.7488,4.7531,4.7596,4.781,4.7688,4.7488,4.7352,4.7309,4.7309,4.7309,4.7309,4.7309,4.7309,4.7309,4.7309,4.7309,4.7309,4.7374,4.7574,4.7837,4.807,4.8265,4.8474,4.8599,4.8599,4.8599,4.8599,4.8599,4.8599,4.8599,4.8599,4.8599,4.8599,4.8599,4.8599,4.8599,4.8599,4.8599,4.8578,4.8537,4.8578,4.8557,4.8474,4.8516,4.8537,4.8537,4.8495,4.8495,4.8475,4.7645,4.698,4.6392,4.5617,4.4991,4.4515,4.4515,4.4553,4.4591,4.8301,4.8202,4.816,4.8265,4.8202,4.8175,4.8265,4.8301,4.8301,4.8301,4.837,4.8432,4.8432,4.8537,4.8599,4.8599,4.8599,4.8599,4.8599,4.8599,4.8599,4.8599,4.8599,4.8516,4.8307,4.807,4.7773,4.7445,4.7445,4.7381,4.7309,4.7309,4.7309,4.7309,4.7309,4.7309,4.7309,4.7309,4.7309,4.7309,4.7309,4.7359,4.7424,4.7352,4.7445,4.7617,4.7488,4.7445,4.7424,4.7331,4.7359,4.7424,4.7331,4.7445,4.7617,4.7488,4.7531,4.766,4.7752,4.7794,4.7816,4.7964,4.7901,4.773,4.7488,4.7374,4.7331,4.7424,4.7445,4.7488,4.7617,4.7639,4.7596,4.7467,4.7553,4.7681,4.7773,4.7986,4.8218,4.8412,4.8537,4.8599,4.8599,4.8599,4.8599,4.8599,4.8599,4.8599,4.8599,4.8599,4.8599,4.8599,4.8599,4.8599,4.8599,4.8599,4.8599,4.8599,4.8599,4.8599,4.8599,4.8599,4.8599,4.8599,4.8599,4.8599,4.8537,4.7881,4.7388,4.6973,4.5992,4.5391,4.5037,4.4714,4.4591,4.4591,4.8599,4.8474,4.8412,4.8578,4.8474,4.8412,4.8563,4.8599,4.8599,4.8599,4.8599,4.8599,4.8599,4.8599,4.8599,4.8599,4.8599,4.8599,4.8599,4.8599,4.8599,4.8599,4.8599,4.8537,4.8349,4.8349,4.8133,4.7666,4.7666,4.7596,4.7417,4.7359,4.7337,4.7337,4.7331,4.7309,4.7309,4.7309,4.7331,4.7337,4.7337,4.7488,4.7645,4.7488,4.766,4.7964,4.7752,4.7666,4.7624,4.7467,4.7531,4.7624,4.7467,4.7703,4.7964,4.773,4.7816,4.8007,4.8049,4.8049,4.807,4.8091,4.807,4.7986,4.7773,4.7559,4.7467,4.7624,4.7666,4.773,4.7964,4.8007,4.7922,4.7688,4.7858,4.8007,4.8049,4.8181,4.837,4.8578,4.8599,4.8599,4.8599,4.8599,4.8599,4.8599,4.8599,4.8599,4.8599,4.8599,4.8599,4.8599,4.8599,4.8599,4.8599,4.8599,4.8599,4.8599,4.8599,4.8599,4.8599,4.8599,4.8599,4.8599,4.8599,4.8599,4.8553,4.8004,4.7711,4.7496,4.6372,4.5885,4.5727,4.5182,4.499,4.499,4.8599,4.8578,4.8578,4.8599,4.8578,4.8578,4.8599,4.8599,4.8599,4.8599,4.8599,4.8599,4.8599,4.8599,4.8599,4.8599,4.8599,4.8599,4.8599,4.8599,4.8599,4.8599,4.8599,4.8599,4.8557,4.8557,4.8349,4.7943,4.7943,4.7922,4.7901,4.7681,4.7559,4.7538,4.7396,4.7309,4.7309,4.7309,4.7402,4.7559,4.7559,4.7709,4.7943,4.7922,4.7943,4.7986,4.7964,4.7943,4.7943,4.7901,4.7922,4.7943,4.7901,4.7943,4.7986,4.7964,4.7964,4.8049,4.8202,4.8265,4.8286,4.8474,4.8391,4.826,4.8202,4.8049,4.7901,4.7943,4.7943,4.7964,4.7986,4.8007,4.7986,4.7943,4.7986,4.807,4.8223,4.8286,4.837,4.8578,4.8599,4.8599,4.8599,4.8599,4.8599,4.8599,4.8599,4.8599,4.8599,4.8599,4.8599,4.8599,4.8599,4.8599,4.8599,4.8599,4.8599,4.8599,4.8599,4.8599,4.8599,4.8599,4.8599,4.8599,4.8599,4.8599,4.8583,4.8491,4.8107,4.7588,4.7404,4.7002,4.6549,4.6509,4.6499,4.6499,4.9204,4.8897,4.8599,4.8599,4.8599,4.8599,4.8599,4.8599,4.8599,4.8599,4.8599,4.8599,4.8599,4.8599,4.8599,4.8599,4.8599,4.8599,4.8599,4.8599,4.8599,4.8599,4.9004,4.9204,4.9204,4.9589,4.9689,4.9512,4.8987,4.8858,4.9116,4.8607,4.8376,4.836,4.774,4.7467,4.7467,4.7467,4.7531,4.7602,4.7752,4.7964,4.8154,4.8049,4.8154,4.8328,4.8202,4.8175,4.8154,4.8049,4.807,4.8154,4.8049,4.8139,4.8307,4.8202,4.826,4.8349,4.8432,4.8474,4.8495,4.8578,4.8537,4.8474,4.8474,4.8391,4.8286,4.8197,4.8175,4.8202,4.8307,4.8328,4.8286,4.8197,4.8265,4.8328,4.8286,4.8391,4.8495,4.8599,4.8599,4.8599,4.8599,4.8599,4.8599,4.8599,4.8599,4.8599,4.8599,4.8599,4.8599,4.8599,4.8599,4.8599,4.8599,4.8599,4.8599,4.8599,4.8599,4.8599,4.8599,4.8599,4.8599,4.8599,4.8599,4.8599,4.8599,4.8599,4.8707,4.8845,4.8419,4.7902,4.7371,4.7403,4.7151,4.6794]}]]